     2.11           OBSERVATION DATA    G (GPS)             RINEX VERSION / TYPE
teqc 2010Oct21 OPUS Account 20111101 15:20:42UTC            PGM / RUN BY / DATE
A 1521                                                      MARKER NAME
1116                                                        MARKER NUMBER
CSMIDDLETON NGS                                             OBSERVER / AGENCY
4624K01631 TRIMBLE NETR5 4.41                               REC # / TYPE / VERS
12481390 TRM41249.00 NONE                                   ANT # / TYPE
  -740236.9461 -5462854.5083  3197336.8784                  APPROX POSITION XYZ
        2.0000        0.0000        0.0000                  ANTENNA: DELTA H/E/N
     1     1                                                WAVELENGTH FACT L1/2
     5    L1    L2    C1    P1    P2                        # / TYPES OF OBSERV
    15                                                      LEAP SECONDS
  2011     8     9    13    14    0.0000000     GPS         TIME OF FIRST OBS
                                                            END OF HEADER
 11  8  9 13 14  0.0000000  0  6G31G23G32G16G14G20
 114244052.05917  89021371.89616  21739920.586                    21739928.078
 123658762.70217  96357465.15153  23531481.266                    23531488.020
 109354669.47118  85211463.62556  20809501.945                    20809509.945
 114819878.64517  89470032.67755  21849496.133                    21849504.473
 125048505.02216  97440467.10753  23795949.773                    23795958.402
 112999094.01717  88051261.63455  21503012.500                    21503019.563
 11  8  9 13 14 30.0000000  0  6G31G23G32G16G14G20
 114311155.093 7  89073659.931 6  21752690.125                    21752697.656
 123583365.714 7  96298714.20844  23517133.992                    23517140.332
 109339074.078 8  85199311.35346  20806534.547                    20806542.367
 114728308.802 7  89398679.55345  21832071.391                    21832078.367
 125108072.284 6  97486883.13644  23807285.055                    23807294.246
 112943902.930 7  88008255.58945  21492510.063                    21492516.852
 11  8  9 13 15  0.0000000  0  7G24G31G23G32G16G14G20
 124007371.01917  96629186.15453  23597829.164                    23597838.078
 114378374.969 7  89126039.055 6  21765481.766                    21765489.039
 123507935.382 7  96239937.29544  23502779.609                    23502785.527
 109323965.034 8  85187538.05146  20803659.648                    20803667.332
 114637081.751 7  89327593.55945  21814712.211                    21814719.074
 125167785.909 6  97533413.13443  23818647.969                    23818657.500
 112889185.475 7  87965618.58345  21482097.539                    21482104.953
 11  8  9 13 15 30.0000000  0  7G24G31G23G32G16G14G20
 124067033.737 7  96675676.56643  23609182.563                    23609192.109
 114445709.756 7  89178507.668 6  21778295.141                    21778302.188
 123432471.939 6  96181134.56544  23488419.398                    23488425.746
 109309343.132 8  85176144.34046  20800876.781                    20800884.609
 114546200.739 8  89256777.19145  21797417.602                    21797425.258
 125227646.135 6  97580057.40844  23830039.070                    23830047.629
 112834943.687 8  87923352.24645  21471775.547                    21471782.809
 11  8  9 13 16  0.0000000  0  7G24G31G23G32G16G14G20
 124126897.275 7  96722323.42044  23620574.492                    23620583.668
 114513157.524 7  89231064.348 6  21791129.875                    21791137.207
 123356975.659 6  96122306.27844  23474052.727                    23474059.855
 109295208.877 8  85165130.61346  20798187.250                    20798194.945
 114455668.711 8  89186232.75745  21780189.891                    21780197.012
 125287653.452 7  97626816.30243  23841458.578                    23841467.813
 112781179.068 8  87881457.72345  21461544.172                    21461552.141
 11  8  9 13 16 30.0000000  0  7G24G31G23G32G16G14G20
 124186959.513 7  96769125.09444  23632003.859                    23632014.199
 114580717.115 7  89283708.130 7  21803986.352                    21803994.691
 123281447.581 7  96063453.20744  23459681.078                    23459687.797
 109281564.132 8  85154498.32846  20795590.656                    20795598.781
 114365488.865 7  89115962.74045  21763029.102                    21763036.039
 125347808.362 7  97673690.22644  23852905.859                    23852913.871
 112727894.069 8  87839936.93045  21451405.070                    21451411.805
 11  8  9 13 17  0.0000000  0  7G24G31G23G32G16G14G20
 124247217.239 7  96816079.07944  23643469.922                    23643481.723
 114648386.111 7  89336437.174 6  21816863.445                    21816870.395
 123205888.331 6  96004575.83244  23445302.359                    23445308.938
 109268409.319 8  85144247.80346  20793087.344                    20793095.273
 114275664.159 8  89045969.47645  21745936.430                    21745943.273
 125408111.293 7  97720679.45243  23864380.836                    23864389.309
 112675090.702 8  87798791.43145  21441356.664                    21441363.520
 11  8  9 13 17 30.0000000  0  7G24G31G23G32G16G14G20
 124307667.806 6  96863183.38144  23654973.352                    23654984.965
 114716163.197 7  89389250.479 6  21829761.180                    21829767.664
 123130298.507 7  95945674.63844  23430918.211                    23430924.750
 109255745.920 8  85134380.20446  20790677.531                    20790685.520
 114186197.947 8  88976255.54445  21728911.375                    21728917.836
 125468562.932 6  97767784.54843  23875884.195                    23875893.566
 112622771.165 8  87758022.93445  21431400.336                    21431407.281
 11  8  9 13 18  0.0000000  0  7G24G31G23G32G16G14G20
 124368308.397 6  96910435.66843  23666513.648                    23666523.734
 114784046.349 7  89442146.423 6  21842678.672                    21842685.492
 123054678.891 7  95886750.27444  23416528.531                    23416534.656
 109243574.747 8  85124896.15346  20788361.727                    20788369.547
 114097093.012 8  88906823.14145  21711955.766                    21711962.133
 125529163.445 6  97815005.65443  23887416.688                    23887425.824
 112570937.282 8  87717632.87045  21421536.523                    21421544.004
 11  8  9 13 18 30.0000000  0  7G24G31G23G32G16G14G20
 124429136.102 6  96957833.79043  23678088.750                    23678098.922
 114852033.939 7  89495123.723 6  21855616.656                    21855622.863
 122979030.074 7  95827803.14444  23402132.789                    23402139.621
 109231896.649 8  85115796.31946  20786138.688                    20786146.926
 114008352.376 8  88837674.59445  21695068.203                    21695075.012
 125589913.392 6  97862343.19643  23898976.648                    23898985.496
 112519590.965 8  87677622.76045  21411766.070                    21411773.766
 11  8  9 13 19  0.0000000  0  7G24G31G23G32G16G14G20
 124490148.003 6  97005375.52243  23689698.586                    23689708.836
 114920124.243 7  89548181.107 6  21868573.516                    21868579.535
 122903352.559 7  95768833.62944  23387732.242                    23387738.695
 109220712.719 8  85107081.54946  20784010.984                    20784019.180
 113919978.854 7  88768812.09745  21678251.391                    21678259.309
 125650813.287 6  97909797.57343  23910565.391                    23910574.180
 112468734.065 8  87637993.98845  21402088.438                    21402095.516
 11  8  9 13 19 30.0000000  0  7G24G31G23G32G16G14G20
 124551341.374 6  97053058.56443  23701343.234                    23701353.266
 114988315.466 7  89601317.090 6  21881549.633                    21881556.574
 122827647.113 7  95709842.37244  23373325.461                    23373332.043
 109210023.614 8  85098752.35546  20781976.977                    20781985.438
 113831975.493 7  88700238.05345  21661504.578                    21661512.605
 125711863.229 6  97957368.90643  23922183.266                    23922192.844
 112418368.596 8  87598748.17045  21392504.172                    21392510.906
 11  8  9 13 20  0.0000000  0  7G24G31G23G32G16G14G20
 124612713.696 6  97100881.07243  23713021.977                    23713031.520
 115056606.040 7  89654530.464 6  21894544.672                    21894552.766
 122751914.288 7  95650829.77044  23358913.992                    23358920.582
 109199830.428 8  85090809.60946  20780036.992                    20780045.359
 113744345.395 7  88631954.84145  21644829.547                    21644837.102
 125773063.737 6  98005057.56543  23933828.805                    23933838.637
 112368496.447 8  87559886.73945  21383013.656                    21383020.711
 11  8  9 13 20 30.0000000  0  7G24G31G23G32G16G14G20
 124674262.034 7  97148840.71843  23724734.086                    23724744.305
 115124994.406 7  89707820.070 6  21907558.789                    21907567.000
 122676154.772 7  95591796.40144  23344497.305                    23344504.734
 109190134.166 8  85083254.05646  20778192.063                    20778200.313
 113657091.281 7  88563964.65345  21628225.961                    21628233.441
 125834415.333 6  98052863.93343  23945504.070                    23945513.203
 112319119.596 8  87521411.27045  21373617.492                    21373624.676
 11  8  9 13 21  0.0000000  0  7G24G31G23G32G16G14G20
 124735983.213 7  97196935.05044  23736480.461                    23736488.898
 115193478.105 7  89761183.959 6  21920590.672                    21920598.840
 122600369.155 7  95532742.61144  23330075.945                    23330082.672
 109180935.124 8  85076085.96346  20776441.609                    20776449.902
 113570216.051 8  88496269.68745  21611693.953                    21611701.727
 125895918.280 6  98100788.25843  23957207.406                    23957217.512
 112270239.488 8  87483322.88045  21364316.023                    21364323.031
 11  8  9 13 21 30.0000000  0  7G24G31G23G32G16G14G20
 124797874.721 6  97245162.13743  23748257.203                    23748267.559
 115262055.842 7  89814621.091 6  21933640.922                    21933649.043
 122524558.205 7  95473669.13144  23315649.680                    23315655.547
 109172234.482 8  85069306.22146  20774785.656                    20774793.797
 113483722.888 8  88428872.43645  21595234.656                    21595242.172
 125957572.985 6  98148830.84743  23968940.531                    23968950.820
 112221858.259 8  87445623.20745  21355110.063                    21355116.898
 11  8  9 13 22  0.0000000  0  7G24G31G23G32G16G14G20
 124859933.509 7  97293519.60044  23760066.813                    23760076.395
 115330725.815 7  89868130.149 6  21946708.734                    21946717.074
 122448722.623 7  95414576.43544  23301218.836                    23301224.605
 109164032.859 8  85062915.33746  20773224.945                    20773233.191
 113397614.319 8  88361774.85245  21578848.883                    21578855.914
 126019379.801 6  98196991.96343  23980701.398                    23980711.750
 112173977.643 8  87408313.61645  21345998.250                    21346005.211
 11  8  9 13 22 30.0000000  0  7G24G31G23G32G16G14G20
 124922156.839 7  97342005.25844  23771908.258                    23771918.219
 115399486.560 7  89921709.908 6  21959793.000                    21959801.188
 122372862.880 7  95355464.93344  23286783.102                    23286789.801
 109156331.218 8  85056914.03746  20771759.703                    20771767.863
 113311893.555 8  88294979.43745  21562536.625                    21562544.641
 126081339.143 6  98245271.87843  23992492.031                    23992502.188
 112126599.707 8  87371395.72545  21336982.367                    21336989.965
 11  8  9 13 23  0.0000000  0  7G24G31G23G32G16G14G20
 124984541.940 7  97390616.97144  23783779.570                    23783790.332
 115468336.570 7  89975359.204 6  21972894.898                    21972901.832
 122296980.063 7  95296335.48144  23272342.594                    23272349.676
 109149130.291 8  85051302.92746  20770389.672                    20770397.574
 113226563.499 8  88228488.48345  21546298.828                    21546306.270
 126143451.223 6  98293670.84843  24004311.875                    24004321.711
 112079726.136 8  87334870.86746  21328062.672                    21328070.332
 11  8  9 13 23 30.0000000  0  7G24G31G23G32G16G14G20
 125047085.713 7  97439352.29244  23795681.164                    23795691.887
 115537273.727 7  90029076.455 6  21986012.859                    21986019.801
 122221074.613 7  95237188.35644  23257899.117                    23257904.957
 109142430.616 8  85046082.38746  20769114.328                    20769122.500
 113141626.668 8  88162303.93846  21530136.320                    21530143.793
 126205716.489 6  98342189.22043  24016160.500                    24016170.555
 112033358.413 8  87298740.15946  21319239.313                    21319246.371
 11  8  9 13 24  0.0000000  0  7G24G31G23G32G16G14G20
 125109785.582 7  97488209.27843  23807612.641                    23807622.609
 115606296.377 7  90082860.335 6  21999147.844                    21999154.734
 122145147.394 7  95178024.25144  23243450.164                    23243455.781
 109136233.062 8  85041253.10846  20767935.383                    20767943.297
 113057086.027 8  88096428.11045  21514048.141                    21514056.086
 126268135.395 6  98390827.22342  24028037.188                    24028048.234
 111987498.579 8  87263005.21046  21310512.453                    21310519.695
 11  8  9 13 24 30.0000000  0  7G24G31G23G32G16G14G20
 125172638.679 7  97537185.62143  23819573.641                    23819582.879
 115675403.103 7  90136709.699 6  22012298.031                    22012305.828
 122069198.854 7  95118843.54944  23228997.773                    23229003.477
 109130538.439 8  85036815.71946  20766851.820                    20766860.422
 112972944.776 8  88030863.47645  21498036.563                    21498043.820
 126330708.362 6  98439585.33143  24039945.852                    24039955.645
 111942148.373 8  87227667.38446  21301882.969                    21301890.430
 11  8  9 13 25  0.0000000  0  7G24G31G23G32G16G14G20
 125235641.957 7  97586279.06943  23831562.813                    23831570.484
 115744592.170 7  90190623.235 6  22025464.781                    22025471.156
 121993230.097 7  95059647.10844  23214541.328                    23214548.180
 109125347.236 8  85032770.61346  20765863.602                    20765871.727
 112889205.654 8  87965612.22145  21482101.781                    21482109.477
 126393435.471 6  98488463.55343  24051882.648                    24051892.445
 111897309.308 8  87192727.84446  21293349.883                    21293357.488
 11  8  9 13 25 30.0000000  0  7G24G31G23G32G16G14G20
 125298792.602 7  97635487.31542  23843580.313                    23843587.895
 115813861.894 7  90244599.618 6  22038646.242                    22038654.086
 121917241.798 7  95000435.43244  23200081.492                    23200087.828
 109120660.287 8  85029118.43146  20764971.922                    20764979.816
 112805871.399 8  87900676.43745  21466243.945                    21466251.023
 126456317.366 6  98537462.34542  24063848.164                    24063857.902
 111852983.125 8  87158187.94446  21284915.031                    21284921.922
 11  8  9 13 26  0.0000000  0  7G24G31G23G32G16G14G20
 125362087.705 7  97684808.16143  23855624.703                    23855633.730
 115883210.903 7  90298637.755 6  22051843.047                    22051851.453
 121841234.656 7  94941209.07644  23185616.898                    23185624.254
 109116478.023 8  85025859.50046  20764175.711                    20764184.230
 112722944.703 8  87836058.24246  21450463.383                    21450470.922
 126519353.935 5  98586581.68342  24075843.766                    24075854.031
 111809171.461 8  87124048.98046  21276578.086                    21276585.125
 11  8  9 13 26 30.0000000  0  7G24G31G23G32G16G14G20
 125425524.723 7  97734239.48843  23867696.891                    23867705.398
 115952637.194 7  90352736.130 7  22065054.813                    22065063.199
 121765209.742 7  94881968.88244  23171149.906                    23171157.141
 109112801.406 8  85022994.57546  20763476.414                    20763484.422
 112640428.754 8  87771760.11546  21434761.492                    21434768.668
 126582545.906 6  98635822.05642  24087868.969                    24087878.734
 111765876.472 8  87090312.61746  21268339.195                    21268346.555
 11  8  9 13 27  0.0000000  0  7G24G31G23G32G16G14G20
 125489100.583 6  97783779.04443  23879794.063                    23879804.324
 116022139.481 7  90406893.719 6  22078279.938                    22078288.727
 121689167.509 7  94822715.15944  23156680.000                    23156687.023
 109109630.869 8  85020524.02046  20762872.938                    20762881.371
 112558325.790 8  87707783.77946  21419137.297                    21419145.352
 126645893.279 6  98685183.60142  24099923.008                    24099933.309
 111723099.633 8  87056980.00946  21260198.719                    21260206.059
 11  8  9 13 27 30.0000000  0  7G24G31G23G32G16G14G20
 125552812.492 6  97833424.62343  23891918.000                    23891928.336
 116091715.834 7  90461109.014 6  22091520.063                    22091527.777
 121613108.579 7  94763448.44445  23142206.781                    23142213.434
 109106966.839 7  85018448.10746  20762365.758                    20762374.223
 112476638.976 8  87644131.70546  21403593.438                    21403600.750
 126709396.765 6  98734666.72843  24112008.555                    24112017.695
 111680842.117 8  87024052.07446  21252157.297                    21252165.031
 11  8  9 13 28  0.0000000  0  7G24G31G23G32G16G14G20
 125616657.610 6  97883174.00543  23904067.234                    23904077.027
 116161364.843 7  90515380.954 6  22104773.641                    22104780.926
 121537033.946 7  94704169.53744  23127729.500                    23127737.289
 109104809.899 7  85016767.36646  20761955.406                    20761964.063
 112395371.350 8  87580806.27846  21388128.203                    21388135.875
 126773056.342 6  98784271.48242  24124122.438                    24124131.488
 111639105.787 8  86991530.24146  21244215.203                    21244222.883
 11  8  9 13 28 30.0000000  0  7G24G31G23G32G16G14G20
 125680633.177 6  97933024.99843  23916241.047                    23916251.324
 116231084.793 7  90569708.179 6  22118041.281                    22118047.930
 121460944.489 7  94644879.09344  23113250.273                    23113257.586
 109103160.692 7  85015482.24146  20761641.695                    20761650.027
 112314525.135 8  87517809.23446  21372743.930                    21372751.375
 126836872.239 6  98833998.07742  24136266.828                    24136275.355
 111597892.174 8  86959415.72846  21236372.641                    21236380.328
 11  8  9 13 29  0.0000000  0  7G24G31G23G32G16G14G20
 125744736.181 7  97982975.31443  23928440.578                    23928450.613
 116300874.384 7  90624089.639 7  22131322.289                    22131329.523
 121384841.104 7  94585577.73844  23098768.734                    23098775.328
 109102019.899 7  85014593.30046  20761424.188                    20761433.270
 112234103.045 8  87455142.67446  21357439.938                    21357447.094
 126900845.091 6  98883846.93443  24148439.844                    24148449.848
 111557202.874 8  86927709.76846  21228629.898                    21228637.637
 11  8  9 13 29 30.0000000  0  7G24G31G23G32G16G14G20
 125808963.714 6  98033022.62443  23940662.883                    23940671.449
 116370731.893 7  90678524.028 6  22144615.195                    22144623.797
 121308724.422 7  94526266.03444  23084283.813                    23084291.406
 109101387.661 8  85014100.61846  20761304.375                    20761312.895
 112154108.001 8  87392808.89446  21342217.242                    21342225.008
 126964975.078 6  98933818.20242  24160644.211                    24160653.746
 111517039.437 8  86896413.57546  21220986.828                    21220994.691
 11  8  9 13 30  0.0000000  0  7G24G31G23G32G16G14G20
 125873313.133 7  98083164.95943  23952907.781                    23952917.641
 116440655.938 7  90733010.259 6  22157920.977                    22157929.961
 121232595.586 7  94466944.87844  23069797.391                    23069804.309
 109101264.844 8  85014004.89646  20761280.805                    20761289.066
 112074543.032 8  87330810.20746  21327076.703                    21327083.906
 127029262.526 6  98983912.17542  24172878.313                    24172886.641
 111477403.447 8  86865528.37246  21213444.242                    21213452.313
 11  8  9 13 30 30.0000000  0  7G24G31G23G32G16G14G20
 125937781.498 7  98133400.02244  23965175.859                    23965187.008
 116510644.994 7  90787547.129 6  22171239.688                    22171248.754
 121156455.422 7  94407614.88544  23055307.688                    23055315.324
 109101651.896 8  85014306.47646  20761354.695                    20761363.121
 111995410.661 8  87269148.62046  21312018.023                    21312025.516
 127093707.623 6  99034129.08442  24185140.648                    24185151.109
 111438296.941 8  86835055.76046  21206002.766                    21206010.066
 11  8  9 13 31  0.0000000  0  7G24G31G23G32G16G14G20
 126002365.966 6  98183725.43444  23977466.188                    23977476.051
 116580697.266 7  90842133.283 6  22184570.797                    22184578.250
 121080304.479 7  94348276.49044  23040816.859                    23040824.582
 109102549.055 7  85015005.54346  20761525.172                    20761533.574
 111916713.429 8  87207826.10945  21297042.859                    21297049.848
 127158310.819 5  99084469.21942  24197435.258                    24197445.219
 111399720.912 8  86804996.51246  21198661.922                    21198669.324
 11  8  9 13 31 30.0000000  0  7G24G31G23G32G16G14G20
 126067063.915 7  98234139.31944  23989777.586                    23989788.102
 116650811.565 7  90896767.789 6  22197913.234                    22197920.281
 121004143.997 7  94288930.60544  23026324.438                    23026331.535
 109103957.032 8  85016102.65446  20761793.414                    20761801.469
 111838454.442 8  87146845.09945  21282150.617                    21282157.719
 127223072.474 5  99134932.72242  24209758.547                    24209768.059
 111361677.020 8  86775351.90846  21191422.508                    21191430.074
 11  8  9 13 32  0.0000000  0  7G24G31G23G32G16G14G20
 126131872.399 6  98284639.38044  24002110.156                    24002120.898
 116720986.357 7  90951449.392 7  22211266.898                    22211275.594
 120927974.639 7  94229577.90444  23011829.766                    23011836.969
 109105876.026 7  85017597.94246  20762158.586                    20762166.891
 111760635.934 8  87086207.30346  21267342.094                    21267349.336
 127287992.470 5  99185519.65242  24222111.625                    24222122.965
 111324166.196 8  86746122.69946  21184284.164                    21184292.301
 11  8  9 13 32 30.0000000  0  7G24G31G23G32G16G14G20
 126196788.697 6  98335223.46944  24014462.617                    24014473.645
 116791220.136 7  91006176.977 7  22224631.797                    22224640.246
 120851797.464 7  94170219.04644  22997334.078                    22997340.664
 109108306.481 8  85019491.77446  20762621.680                    20762629.527
 111683260.585 7  87025914.84846  21252618.219                    21252625.465
 127353071.395 5  99236230.47442  24234495.820                    24234507.477
 111287190.619 8  86717310.55046  21177247.820                    21177255.617
 11  8  9 13 33  0.0000000  0  7G24G31G23G32G16G14G20
 126261809.830 7  98385889.22443  24026836.891                    24026846.672
 116861511.246 7  91060949.230 6  22238007.836                    22238015.699
 120775613.377 7  94110854.82444  22982836.492                    22982842.730
 109111248.709 8  85021784.41046  20763181.445                    20763189.363
 111606331.347 7  86965969.97646  21237978.516                    21237987.090
 127418309.39114                  24246909.633
 111250751.645 8  86688916.51746  21170313.688                    21170321.527
 11  8  9 13 33 30.0000000  0  7G24G31G23G32G16G14G20
 126326933.017 7  98436634.47543  24039229.250                    24039239.754
 116931858.560 7  91115765.276 6  22251394.234                    22251401.855
 120699423.607 7  94051486.14044  22968338.094                    22968344.027
 109114703.467 8  85024476.40546  20763838.680                    20763846.965
 111529851.092 8  86906374.98246  21223425.031                    21223433.203
 127483706.97215                  24259354.336
 111214850.610 8  86660941.66246  21163482.656                    21163489.785
 11  8  9 13 34  0.0000000  0  7G24G31G23G32G16G14G20
 126392155.146 7  98487456.80943  24051640.688                    24051650.492
 117002260.354 7  91170623.814 7  22264791.320                    22264798.730
 120623228.760 7  93992113.50744  22953839.344                    22953844.809
 109118670.649 8  85027567.68946  20764593.445                    20764601.676
 111453821.996 7  86847131.52746  21208957.258                    21208965.270
 127549264.13915                  24271829.336
 111179488.895 8  86633387.06946  21156753.813                    21156760.480
 11  8  9 13 34 30.0000000  0  7G24G31G23G32G16G14G20
 126457473.628 7  98538354.22444  24064070.844                    24064081.723
 117072715.141 7  91225523.613 7  22278198.289                    22278207.008
 120547029.649 7  93932737.54444  22939339.367                    22939343.816
 109123150.592 8  85031058.53646  20765446.188                    20765454.598
 111378246.593 8  86788241.60146  21194575.852                    21194583.313
 127614981.16415                  24284335.648
 111144667.717 8  86606253.66146  21150126.992                    21150134.691
 11  8  9 13 35  0.0000000  0  6G24G31G23G32G16G20
 126522885.503 6  98589324.54043  24076517.234                    24076528.594
 117143221.516 7  91280463.588 7  22291615.250                    22291623.277
 120470827.274 7  93873359.06144  22924837.594                    22924843.051
 109128143.510 8  85034949.11046  20766396.102                    20766404.789
 111303127.476 8  86729707.24746  21180281.117                    21180288.539
 111110388.214 8  86579542.35546  21143603.719                    21143611.500
 11  8  9 13 35 30.0000000  0  6G24G31G23G32G16G20
 126588387.860 6  98640365.29443  24088982.359                    24088992.648
 117213777.713 7  91335442.419 7  22305042.289                    22305050.023
 120394622.102 6  93813978.40944  22910336.078                    22910342.320
 109133649.471 8  85039239.43746  20767444.219                    20767452.660
 111228466.967 7  86671530.23246  21166073.906                    21166080.566
 111076651.550 8  86553254.03446  21137183.617                    21137191.480
 11  8  9 13 36  0.0000000  0  6G24G31G23G32G16G20
 126653977.734 6  98691474.22643  24101463.109                    24101474.391
 117284382.352 8  91390458.979 7  22318477.539                    22318485.559
 120318415.585 6  93754596.75944  22895833.773                    22895841.000
 109139668.830 8  85043929.84046  20768589.547                    20768597.949
 111154267.839 8  86613712.73446  21151953.625                    21151960.715
 111043459.264 8  86527389.90546  21130867.945                    21130874.684
 11  8  9 13 36 30.0000000  0  6G24G31G23G32G16G20
 126719652.950 6  98742649.64443  24113961.891                    24113971.895
 117355034.668 8  91445512.698 7  22331922.508                    22331930.180
 120242209.072 7  93695215.09444  22881332.398                    22881339.469
 109146202.417 7  85049020.92646  20769832.461                    20769841.793
 111080532.974 8  86556257.02546  21137922.445                    21137930.184
 111010813.049 8  86501951.28646  21124655.430                    21124662.676
 11  8  9 13 37  0.0000000  0  6G24G31G23G32G16G20
 126785409.479 6  98793888.37343  24126474.977                    24126486.059
 117425731.979 7  91500601.477 7  22345375.469                    22345382.301
 120166002.351 7  93635833.24744  22866830.844                    22866838.945
 109153249.229 8  85054511.92246  20771173.164                    20771181.816
 111007264.016 8  86499164.33346  21123980.211                    21123988.180
 110978713.305 8  86476938.46846  21118547.102                    21118553.602
 11  8  9 13 37 30.0000000  0  6G24G31G23G32G16G20
 126851246.582 6  98845189.87843  24139003.102                    24139014.695
 117496475.028 7  91555725.914 7  22358837.047                    22358844.398
 120089798.986 7  93576454.01644  22852330.406                    22852337.395
 109160811.559 8  85060404.61846  20772612.750                    20772621.230
 110934465.428 8  86442438.17446  21110127.102                    21110134.543
 110947162.890 8  86452353.71046  21112543.430                    21112549.719
 11  8  9 13 38  0.0000000  0  6G24G31G23G32G16G20
 126917160.457 7  98896551.28743  24151546.391                    24151557.805
 117567261.652 7  91610884.279 7  22372307.789                    22372315.617
 120013598.268 7  93517076.82644  22837829.648                    22837836.539
 109168888.569 7  85066698.36546  20774149.828                    20774158.078
 110862138.804 8  86386079.77746  21096363.703                    21096371.191
 110916162.641 8  86428197.64546  21106644.531                    21106650.879
 11  8  9 13 38 30.0000000  0  6G24G31G23G32G16G20
 126983147.854 6  98947969.95542  24164103.039                    24164112.832
 117638089.618 7  91666074.862 7  22385786.070                    22385794.133
 119937400.787 7  93457702.17644  22823329.938                    22823336.824
 109177479.573 7  85073392.63046  20775784.266                    20775792.406
 110790285.846 8  86330090.45846  21082690.633                    21082698.637
 110885712.762 8  86404470.44046  21100850.023                    21100856.777
 11  8  9 13 39  0.0000000  0  6G24G31G23G32G16G20
 127049205.955 6  98999443.75743  24176673.094                    24176683.805
 117708957.926 7  91721296.883 7  22399272.117                    22399279.996
 119861207.906 7  93398331.11845  22808830.992                    22808837.762
 109186585.097 8  85080487.81746  20777517.914                    20777525.328
 110718909.277 8  86274472.33246  21069108.219                    21069115.676
 110855814.552 8  86381173.12446  21095160.594                    21095167.320
 11  8  9 13 39 30.0000000  0  6G24G31G23G32G16G20
 127115332.256 6  99050970.66143  24189256.211                    24189267.715
 117779865.296 8  91776549.367 7  22412764.828                    22412773.031
 119785021.167 7  93338964.83945  22794333.203                    22794339.992
 109196205.423 8  85087984.14646  20779348.445                    20779356.875
 110648011.627 8  86219227.41046  21055616.602                    21055624.434
 110826469.595 8  86358306.90446  21089576.000                    21089583.609
 11  8  9 13 40  0.0000000  0  6G24G31G23G32G16G20
 127181523.921 6  99102548.50243  24201853.602                    24201862.934
 117850810.256 7  91831831.131 7  22426265.063                    22426273.391
 119708841.285 7  93279603.90045  22779836.961                    22779843.477
 109206340.502 8  85095881.57946  20781276.859                    20781285.414
 110577595.206 8  86164357.47946  21042216.992                    21042224.680
 110797678.778 8  86335872.47646  21084097.945                    21084105.230
 11  8  9 13 40 30.0000000  0  7G24G31G23G32G16G14G20
 127247777.635 6  99154174.66144  24214461.883                    24214471.504
 117921791.527 8  91887141.167 7  22439772.789                    22439780.484
 119632668.925 7  93220248.82845  22765341.734                    22765348.734
 109216990.103 8  85104179.95046  20783303.258                    20783311.992
 110507662.423 8  86109864.40546  21028909.148                    21028916.965
 128416162.89215                  24436794.320
 110769442.721 8  86313870.33146  21078724.617                    21078731.703
 11  8  9 13 41  0.0000000  0  6G24G31G23G32G16G20
 127314091.246 7  99205847.53044  24227080.922                    24227090.594
 117992807.992 7  91942478.628 7  22453286.813                    22453294.777
 119556505.807 7  93160900.93344  22750848.398                    22750854.598
 109228154.864 8  85112879.73246  20785428.016                    20785436.516
 110438216.154 7  86055750.44546  21015693.906                    21015701.328
 110741763.519 8  86292302.11346  21073457.195                    21073464.250
 11  8  9 13 41 30.0000000  0  6G24G31G23G32G16G20
 127380461.957 7  99257564.88844  24239710.375                    24239721.734
 118063858.505 7  91997842.627 7  22466807.445                    22466815.457
 119480353.274 7  93101561.28545  22736356.664                    22736363.363
 109239834.883 7  85121981.02046  20787650.633                    20787659.500
 110369258.820 8  86002017.45546  21002571.469                    21002579.188
 110714642.348 8  86271168.71846  21068296.625                    21068303.781
 11  8  9 13 42  0.0000000  0  6G24G31G23G32G16G20
 127446886.540 7  99309324.26343  24252349.625                    24252361.523
 118134941.320 8  92053231.784 7  22480333.641                    22480341.234
 119404211.857 7  93042230.27845  22721867.234                    22721873.875
 109252029.751 8  85131483.49546  20789971.328                    20789979.871
 110300792.205 8  85948666.85046  20989542.914                    20989550.359
 110688079.376 8  86250470.28546  21063241.852                    21063249.328
 11  8  9 13 42 30.0000000  0  6G24G31G23G32G16G20
 127513362.333 6  99361123.46243  24264999.555                    24265011.105
 118206055.383 8  92108645.313 7  22493866.398                    22493874.059
 119328082.696 7  92982908.84345  22707380.477                    22707387.547
 109264739.519 8  85141387.18246  20792390.023                    20792398.488
 110232819.032 8  85895700.75246  20976608.055                    20976615.691
 110662076.051 8  86230207.95446  21058292.906                    21058301.285
 11  8  9 13 43  0.0000000  0  7G24G31G23G32G16G14G20
 127579886.531 6  99412960.50443  24277658.313                    24277671.039
 118277199.411 7  92164082.179 7  22507404.445                    22507412.566
 119251966.978 7  92923597.89344  22692895.875                    22692902.734
 109277964.056 7  85151691.99746  20794906.133                    20794915.102
 110165341.375 8  85843120.76946  20963767.531                    20963775.047
 128756923.34215                  24501623.227
 110636633.301 8  86210382.42546  21053451.336                    21053459.836
 11  8  9 13 43 30.0000000  0  7G24G31G23G32G16G14G20
 127646456.445 6  99464833.02443  24290328.141                    24290338.871
 118348371.860 8  92219541.207 7  22520948.266                    22520956.535
 119175865.782 7  92864298.24145  22678414.844                    22678420.836
 109291703.121 7  85162397.73846  20797520.586                    20797529.480
 110098361.277 8  85790928.48946  20951021.695                    20951028.918
 128825550.97215                  24514682.234
 110611751.537 8  86190994.03546  21048716.883                    21048724.621
 11  8  9 13 44  0.0000000  0  7G24G31G23G32G16G14G20
 127713069.346 6  99516739.12243  24303002.852                    24303014.043
 118419571.899 8  92275021.707 7  22534497.367                    22534505.188
 119099780.637 7  92805011.12044  22663935.875                    22663942.289
 109305957.074 8  85173504.69646  20800233.305                    20800242.027
 110031881.508 8  85739126.07946  20938370.742                    20938378.617
 128894341.856 4                  24527775.938
 110587432.558 8  86172044.16546  21044088.805                    21044096.809
 11  8  9 13 44 30.0000000  0  7G24G31G23G32G16G14G20
 127779722.323 7  99568676.47843  24315687.586                    24315697.184
 118490797.964 8  92330522.481 7  22548051.445                    22548059.688
 119023712.046 7  92745736.90644  22649460.602                    22649467.445
 109320725.475 8  85185012.51446  20803043.711                    20803051.965
 109965904.328 8  85687715.28546  20925815.625                    20925823.695
 128963296.033 4                  24540895.711
 110563677.225 8  86153533.50546  21039568.352                    21039576.574
 11  8  9 13 45  0.0000000  0  6G24G31G23G32G16G20
 127846412.806 6  99620643.00143  24328375.102                    24328388.895
 118562049.003 8  92386042.739 7  22561610.188                    22561618.148
 118947661.622 7  92686476.86445  22634989.352                    22634995.512
 109336008.420 8  85196921.27946  20805951.961                    20805960.520
 109900432.139 8  85636697.98546  20913356.555                    20913364.520
 110540486.765 8  86135463.00946  21035155.234                    21035163.180
 11  8  9 13 45 30.0000000  0  6G24G31G23G32G16G20
 127913137.840 6  99672636.43143  24341073.469                    24341085.516
 118633324.114 8  92441581.765 7  22575173.359                    22575181.027
 118871630.396 7  92627231.75345  22620520.664                    22620527.625
 109351805.871 8  85209230.95246  20808958.117                    20808966.590
 109835467.170 8  85586075.92546  20900994.320                    20901002.098
 110517861.251 8  86117832.74046  21030849.773                    21030857.473
 11  8  9 13 46  0.0000000  0  7G24G31G06G23G32G16G20
 127979894.745 6  99724654.64643  24353779.961                    24353790.246
 118704621.422 8  92497138.077 7  22588740.805                    22588748.090
 128865492.46615                  24522287.211
 118795619.703 7  92568002.64945  22606055.555                    22606063.043
 109368117.441 8  85221941.25046  20812062.484                    20812070.082
 109771011.242 8  85535850.52946  20888729.047                    20888736.660
 110495801.765 8  86100643.51746  21026652.320                    21026659.922
 11  8  9 13 46 30.0000000  0  7G24G31G06G23G32G16G20
 128046680.509 6  99776695.42943  24366487.250                    24366499.645
 118775939.914 7  92552710.902 7  22602311.898                    22602320.242
 128791945.81815                  24508292.461
 118719630.448 7  92508790.25245  22591595.602                    22591602.684
 109384942.791 8  85235051.89546  20815263.672                    20815271.945
 109707066.537 8  85486023.48946  20876560.836                    20876568.152
 110474309.211 8  86083896.06446  21022562.547                    21022570.324
 11  8  9 13 47  0.0000000  0  7G24G31G06G23G32G16G20
 128113492.890 6  99828756.97943  24379201.578                    24379212.297
 118847278.808 7  92608299.614 7  22615887.672                    22615895.902
 128718329.85515                  24494283.266
 118643664.292 7  92449595.85145  22577140.172                    22577146.879
 109402282.121 8  85248563.03446  20818563.602                    20818571.500
 109643635.776 8  85436596.94446  20864490.188                    20864497.652
 110453385.073 8  86067591.53946  21018580.641                    21018588.242
 11  8  9 13 47 30.0000000  0  7G24G31G06G23G32G16G20
 128180328.506 6  99880836.57243  24391918.844                    24391930.797
 118918636.516 7  92663902.982 7  22629466.438                    22629474.293
 128644646.68014                  24480261.914
 118567721.981 7  92390420.03445  22562688.633                    22562695.410
 109420134.587 8  85262474.03746  20821960.734                    20821969.387
 109580720.329 8  85387571.93346  20852517.680                    20852525.293
 110433028.892 8  86051729.57546  21014706.906                    21014715.035
 11  8  9 13 48  0.0000000  0  7G24G31G06G23G32G16G20
 128247184.923 6  99932932.47443  24404641.703                    24404653.738
 118990011.803 8  92719520.065 7  22643048.469                    22643056.152
 128570899.11414                  24466235.180
 118491804.922 7  92331263.90945  22548242.297                    22548248.723
 109438500.381 8  85276785.02846  20825455.766                    20825464.133
 109518322.866 8  85338950.52446  20840643.906                    20840651.488
 110413242.082 8  86036311.27546  21010941.664                    21010950.102
 11  8  9 13 48 30.0000000  0  6G24G31G23G32G16G20
 128314059.171 6  99985042.20043  24417367.023                    24417380.766
 119061403.600 8  92775149.982 7  22656634.094                    22656641.781
 118415914.548 7  92272128.58445  22533800.852                    22533807.234
 109457378.963 8  85291495.58946  20829048.000                    20829057.035
 109456445.412 8  85290734.31846  20828869.430                    20828876.879
 110394025.596 8  86021337.37746  21007284.258                    21007292.195
 11  8  9 13 49  0.0000000  0  6G24G31G23G32G16G20
 128380948.758 6 100037163.87642  24430095.883                    24430109.285
 119132810.787 8  92830791.919 7  22670222.875                    22670230.973
 118340051.553 7  92213014.57145  22519364.766                    22519370.922
 109476770.019 8  85306605.48346  20832737.844                    20832746.785
 109395089.663 8  85242924.64446  20817193.422                    20817200.848
 110375379.607 8  86006808.02246  21003736.445                    21003744.359
 11  8  9 13 49 30.0000000  0  6G24G31G23G32G16G20
 128447850.685 6 100089295.12743  24442828.414                    24442839.012
 119204232.097 8  92886444.843 7  22683813.633                    22683821.754
 118264217.355 7  92153923.03544  22504933.539                    22504940.117
 109496673.241 8  85322114.46746  20836525.602                    20836534.059
 109334257.855 8  85195523.24746  20805617.352                    20805624.941
 110357304.884 8  85992723.81046  21000296.953                    21000305.160
 11  8  9 13 50  0.0000000  0  6G24G31G23G32G16G20
 128514762.368 6 100141434.05043  24455560.836                    24455570.879
 119275666.443 8  92942107.913 7  22697406.914                    22697415.125
 118188413.485 7  92094855.06644  22490508.344                    22490514.449
 109517088.341 8  85338022.30946  20840410.656                    20840419.188
 109273952.222 8  85148531.84646  20794141.695                    20794149.074
 110339802.270 8  85979085.39346  20996966.578                    20996974.402
 11  8  9 13 50 30.0000000  0  6G24G31G23G32G16G20
 128581681.114 6 100193578.48343  24468294.344                    24468306.727
 119347112.724 8  92997780.319 7  22711002.875                    22711010.445
 118112641.009 7  92035811.58344  22476089.508                    22476095.254
 109538015.061 8  85354328.82146  20844392.953                    20844401.078
 109214174.883 8  85101952.10246  20782766.148                    20782774.016
 110322872.600 8  85965893.41346  20993744.617                    20993752.609
 11  8  9 13 51  0.0000000  0  6G24G31G23G32G16G20
 128648604.052 7 100245726.20243  24481029.703                    24481041.137
 119418569.836 7  93053461.121 7  22724600.453                    22724608.832
 118036901.185 7  91976793.53845  22461676.789                    22461683.078
 109559452.637 8  85371033.40446  20848472.438                    20848480.637
 109154927.321 8  85055785.18346  20771491.945                    20771500.031
 110306516.107 8  85953148.07546  20990632.266                    20990640.551
 11  8  9 13 51 30.0000000  0  7G24G31G13G23G32G16G20
 128715528.606 6 100297875.15443  24493765.078                    24493776.551
 119490036.814 7  93109149.637 7  22738200.797                    22738208.418
 129011575.95315                  24550109.211
 117961195.616 7  91917802.21345  22447270.406                    22447276.816
 109581401.055 8  85388136.04646  20852648.758                    20852657.414
 109096212.184 8  85010033.11046  20760319.203                    20760326.145
 110290733.819 8  85940850.17846  20987629.406                    20987636.676
 11  8  9 13 52  0.0000000  0  7G24G31G13G23G32G16G20
 128782452.067 6 100350023.22243  24506500.781                    24506511.766
 119561512.599 7  93164845.021 7  22751802.195                    22751810.051
 128928341.802 6                  24534270.797
 117885525.744 7  91858838.66545  22432871.016                    22432877.836
 109603859.982 8  85405636.48646  20856922.500                    20856931.148
 109038031.467 8  84964697.50646  20749247.266                    20749255.539
 110275526.134 8  85929000.02146  20984735.102                    20984742.816
 11  8  9 13 52 30.0000000  0  7G24G31G13G23G32G16G20
 128849371.917 6 100402168.40143  24519235.633                    24519246.035
 119632996.051 7  93220546.395 7  22765404.883                    22765412.770
 128845034.924 6 100398855.63552  24518418.656                    24518427.000
 117809892.541 8  91799903.73345  22418478.672                    22418485.305
 109626828.936 8  85423534.36046  20861293.430                    20861302.215
 108980386.951 8  84919779.72246  20738278.250                    20738285.879
 110260893.928 8  85917598.30546  20981950.414                    20981958.313
 11  8  9 13 53  0.0000000  0  8G24G31G13G03G23G32G16G20
 128916285.330 6 100454308.73243  24531969.305                    24531979.879
 119704485.984 7  93276252.790 7  22779008.758                    22779016.781
 128761655.828 6 100333884.91942  24502552.945                    24502560.875
 128968762.03915 100495320.35852  24541971.953                    24541984.004
 117734297.647 7  91740998.63445  22404093.781                    22404099.289
 109650307.490 8  85441829.31846  20865761.250                    20865769.953
 108923280.638 8  84875281.30046  20727411.242                    20727418.359
 110246837.781 8  85906645.44746  20979275.469                    20979283.465
 11  8  9 13 53 30.0000000  0  8G24G31G13G03G23G32G16G20
 128983188.955 6 100506441.38342  24544697.836                    24544712.316
 119775981.562 7  93331963.608 7  22792614.438                    22792621.664
 128678205.100 6 100268858.40442  24486672.266                    24486680.891
 128880958.38415 100426901.87452  24525265.547                    24525277.508
 117658741.909 8  91682124.04645  22389715.828                    22389722.047
 109674294.583 8  85460520.53246  20870326.102                    20870334.590
 108866714.017 8  84831203.41646  20716646.766                    20716654.207
 110233357.437 8  85896141.26846  20976710.547                    20976718.625
 11  8  9 13 54  0.0000000  0  9G24G31G06G13G03G23G32G16G20
 129050081.077 5 100558565.08042  24557429.844                    24557441.156
 119847482.006 7  93387678.193 7  22806220.555                    22806228.977
 127682027.01615                  24297052.563
 128594683.339 6 100203776.52242  24470778.789                    24470786.805
 128793010.021 5 100358370.62642  24508531.281                    24508541.547
 117583227.385 8  91623281.58345  22375345.484                    22375352.152
 109698790.642 8  85479608.35346  20874987.516                    20874995.762
 108810689.726 8  84787548.11946  20705985.750                    20705993.418
 110220454.243 8  85886086.83446  20974255.313                    20974263.434
 11  8  9 13 54 30.0000000  0  9G24G31G06G13G03G23G32G16G20
 129116958.668 6 100610677.29543  24570155.766                    24570166.660
 119918985.811 7  93443395.420 7  22819826.781                    22819835.664
 127607687.450 5                  24282905.125
 128511091.167 6 100138639.81243  24454871.195                    24454880.969
 128704919.652 5 100289728.87142  24491768.008                    24491778.680
 117507754.979 7  91564471.91745  22360983.477                    22360990.543
 109723794.478 8  85499091.83746  20879745.813                    20879754.355
 108755209.132 8  84744316.48546  20695427.992                    20695435.531
 110208127.919 8  85876481.87946  20971910.023                    20971917.387
 11  8  9 13 55  0.0000000  0  9G24G31G06G13G03G23G32G16G20
 129183818.476 6 100662775.81943  24582878.773                    24582890.172
 119990491.640 7  93499114.204 7  22833434.352                    22833442.766
 127533321.554 5                  24268755.352
 128427428.896 6 100073448.42942  24438950.859                    24438960.188
 128616689.684 5 100220978.35142  24474977.820                    24474989.371
 117432325.723 7  91505695.87445  22346629.945                    22346636.746
 109749305.084 8  85518970.20946  20884600.195                    20884608.645
 108700273.486 8  84701509.49146  20684974.492                    20684981.867
 110196378.708 8  85867326.63346  20969674.063                    20969681.809
 11  8  9 13 55 30.0000000  0  9G24G31G06G13G03G23G32G16G20
 129250657.803 6 100714858.33643  24595597.922                    24595607.965
 120061998.495 7  93554833.791 7  22847041.273                    22847049.801
 127458932.016 5                  24254597.445
 128343696.878 6 100008202.58942  24423016.359                    24423026.930
 128528322.133 6 100152120.53442  24458161.773                    24458173.406
 117356940.865 7  91446954.42345  22332284.898                    22332291.223
 109775322.145 8  85539243.22046  20889551.039                    20889559.105
 108645884.931 8  84659128.80246  20674624.734                    20674632.094
 110185207.336 8  85858621.64546  20967548.352                    20967555.348
 11  8  9 13 56  0.0000000  0  9G24G31G06G13G03G23G32G16G20
 129317474.503 6 100766923.23443  24608312.922                    24608323.563
 120133505.736 7  93610553.691 7  22860648.703                    22860656.527
 127384521.600 5                  24240436.516
 128259896.133 6  99942903.30942  24407069.789                    24407080.383
 128439819.859 6 100083157.61942  24441319.891                    24441332.371
 117281602.385 8  91388249.12045  22317947.969                    22317954.371
 109801845.416 8  85559910.67446  20894598.445                    20894607.250
 108592045.592 8  84617176.09846  20664379.594                    20664386.316
 110174614.587 8  85850367.54646  20965532.609                    20965540.387
 11  8  9 13 56 30.0000000  0  9G24G31G06G13G03G23G32G16G20
 129384266.129 6 100818968.64543  24621022.531                    24621034.223
 120205012.737 7  93666273.358 7  22874256.711                    22874264.246
 127310093.626 5                  24226275.227
 128176027.637 6  99877551.22243  24391111.219                    24391120.438
 128351186.170 5                  24424453.961
 117206311.974 8  91329581.26145  22303620.852                    22303627.328
 109828874.534 8  85580972.30346  20899741.445                    20899750.215
 108538757.540 8  84575652.96046  20654238.984                    20654246.770
 110164600.849 8  85842564.62646  20963626.984                    20963635.066
 11  8  9 13 57  0.0000000  0  9G24G31G06G13G03G23G32G16G20
 129451029.869 6 100870992.20443  24633728.547                    24633738.180
 120276518.205 7  93721991.881 7  22887863.539                    22887870.859
 127235650.339 6  99144572.20752  24212110.047                    24212118.695
 128092091.691 6  99812146.64343  24375138.336                    24375147.066
 128262423.276 5                  24407563.063
 117131070.697 7  91270951.71445  22289303.094                    22289309.570
 109856408.600 8  85602427.40446  20904980.922                    20904989.211
 108486022.258 8  84534560.51846  20644203.883                    20644211.906
 110155166.194 8  85835212.93546  20961831.695                    20961839.609
 11  8  9 13 57 30.0000000  0  9G24G31G06G13G03G23G32G16G20
 129517762.785 5 100922991.80543  24646425.469                    24646437.598
 120348021.172 7  93777708.449 7  22901469.516                    22901476.844
 127161194.794 5  99086554.99542  24197941.102                    24197951.063
 128008089.144 6  99746690.11143  24359153.531                    24359162.012
 128173533.297 5                  24390648.633
 117055879.851 8  91212361.45545  22274994.523                    22275000.848
 109884446.836 8  85624275.35646  20910316.367                    20910325.543
 108433841.273 8  84493900.01446  20634273.633                    20634281.191
 110146310.922 8  85828312.69646  20960146.703                    20960153.625
 11  8  9 13 58  0.0000000  0  9G24G31G06G13G03G23G32G16G20
 129584462.668 6 100974965.63942  24659118.078                    24659130.402
 120419520.647 7  93833422.276 7  22915075.727                    22915084.227
 127086729.723 6  99028530.34142  24183771.039                    24183780.621
 127924020.255 6  99681181.84243  24343155.406                    24343164.508
 128084519.277 5  99806290.31552  24373706.234                    24373716.148
 116980741.223 8  91153811.88045  22260696.297                    22260702.883
 109912988.771 8  85646515.80046  20915748.297                    20915756.719
 108382216.805 8  84453673.15146  20624450.086                    20624457.820
 110138035.383 8  85821864.20946  20958571.844                    20958579.555
 11  8  9 13 58 30.0000000  0  9G24G31G06G13G03G23G32G16G20
 129651126.555 5 101026911.44642  24671803.352                    24671814.898
 120491015.533 7  93889132.542 6  22928680.633                    22928688.598
 127012257.600 6  98970500.19252  24169599.109                    24169609.188
 127839885.893 6  99615622.60343  24327144.148                    24327154.488
 127995383.73215  99736834.03352  24356746.688                    24356756.801
 116905655.994 8  91095303.90745  22246408.117                    22246414.699
 109942033.362 8  85669147.95246  20921275.078                    20921283.578
 108331149.808 8  84413880.68946  20614732.359                    20614739.652
 110130339.652 8  85815867.53546  20957107.461                    20957115.535
 11  8  9 13 59  0.0000000  0  9G24G31G06G13G03G23G32G16G20
 129717752.005 5 101078827.25542  24684481.258                    24684493.625
 120562505.076 6  93944838.634 7  22942284.625                    22942293.461
 126937781.665 6  98912467.08442  24155426.375                    24155436.727
 127755686.202 6  99550012.47843  24311123.344                    24311132.191
 127906128.934 5  99667284.90742  24339761.172                    24339773.398
 116830625.668 8  91036838.72745  22232130.500                    22232136.227
 109971580.174 8  85692171.41146  20926897.875                    20926906.605
 108280642.135 8  84374524.09146  20605120.883                    20605128.699
 110123224.097 8  85810322.93646  20955753.234                    20955760.816
 11  8  9 13 59 30.0000000  0  9G24G31G06G13G03G23G32G16G20
 129784335.630 6 101130710.52043  24697153.570                    24697164.363
 120633987.703 7  94000539.338 7  22955887.008                    22955895.539
 126863304.131 6  98854432.64542  24141254.906                    24141264.203
 127671422.285 6  99484352.25643  24295087.711                    24295097.129
 127816757.12215  99597644.56752  24322754.617                    24322766.641
 116755651.163 7  90978417.03645  22217862.898                    22217869.320
 110001627.799 8  85715585.13146  20932615.766                    20932624.418
 108230695.222 8  84335604.43846  20595616.258                    20595624.188
 110116688.435 8  85805230.18446  20954509.688                    20954517.020
 11  8  9 14  0  0.0000000  0  9G24G31G06G13G03G23G32G16G20
 129850875.299 6 101182559.50243  24709816.008                    24709827.258
 120705463.072 7  94056234.393 7  22969488.609                    22969497.633
 126788828.094 6  98796399.42643  24127081.742                    24127092.590
 127587094.955 6  99418642.70142  24279040.297                    24279050.621
 127727271.820 5  99527915.83342  24305727.539                    24305737.938
 116680734.515 8  90920040.46145  22203606.641                    22203613.684
 110032175.924 8  85739388.84246  20938428.750                    20938437.598
 108181311.022 8  84297123.25246  20586218.563                    20586226.441
 110110733.263 8  85800589.79346  20953376.078                    20953383.977
 11  8  9 14  0 30.0000000  0  8G31G06G13G03G23G32G16G20
 120776930.461 7  94111923.198 7  22983089.188                    22983096.953
 126714356.986 6  98738370.07443  24112911.156                    24112921.590
 127502705.096 6  99352884.32942  24262981.008                    24262990.621
 127637675.541 5  99458100.61642  24288676.438                    24288687.805
 116605877.462 7  90861710.31045  22189361.313                    22189368.863
 110063224.252 8  85763582.31246  20944337.094                    20944345.910
 108132491.490 8  84259082.06346  20576928.875                    20576936.559
 110105358.919 8  85796401.98446  20952353.352                    20952361.539
 11  8  9 14  1  0.0000000  0  8G31G06G13G03G23G32G16G20
 120848388.882 7  94167605.059 6  22996686.734                    22996695.152
 126639893.184 6  98680346.34243  24098740.148                    24098751.438
 127418252.988 6  99287077.48842  24246910.594                    24246919.344
 127547970.484 5                  24271606.250
 116531081.216 8  90803427.55645  22175128.672                    22175135.645
 110094771.516 8  85788164.56946  20950340.266                    20950349.480
 108084237.628 8  84221481.66146  20567746.258                    20567754.453
 110100565.696 8  85792666.99146  20951441.305                    20951448.836
 11  8  9 14  1 30.0000000  0  8G31G06G13G03G23G32G16G20
 120919837.636 7  94223279.361 6  23010282.750                    23010291.105
 126565439.971 6  98622330.90043  24084572.086                    24084583.184
 127333739.502 6  99221222.76942  24230829.172                    24230837.387
 127458159.69715                  24254515.203
 116456347.501 7  90745193.52245  22160907.445                    22160913.465
 110126817.356 8  85813135.32446  20956438.656                    20956447.473
 108036551.463 8  84184323.60946  20558672.039                    20558679.957
 110096353.573 8  85789384.80546  20950639.391                    20950647.574
 11  8  9 14  2  0.0000000  0  8G31G06G13G03G23G32G16G20
 120991275.749 7  94278945.360 6  23023878.570                    23023885.465
 126491000.031 6  98564325.80943  24070407.625                    24070417.578
 127249165.702 6  99155321.23143  24214735.078                    24214743.875
 127368245.90514                  24237404.727
 116381677.988 7  90687009.48745  22146697.953                    22146704.055
 110159360.704 8  85838493.75246  20962631.289                    20962639.582
 107989434.609 8  84147609.17146  20549705.719                    20549713.566
 110092722.755 7  85786555.57946  20949949.156                    20949957.512
 11  8  9 14  2 30.0000000  0  8G31G06G13G03G23G32G16G20
 121062702.191 7  94334602.337 6  23037469.297                    23037477.203
 126416575.967 6  98506333.09043  24056244.766                    24056255.695
 127164531.616 6  99089372.57443  24198629.953                    24198638.566
 127278231.61115                  24220276.492
 116307073.614 8  90628876.23845  22132501.305                    22132507.652
 110192400.473 8  85864239.00346  20968918.414                    20968927.160
 107942888.078 8  84111339.16346  20540848.859                    20540855.891
 110089672.871 8  85784179.04046  20949368.672                    20949376.656
 11  8  9 14  3  0.0000000  0  8G31G06G13G03G23G32G16G20
 121134115.426 7  94390248.983 6  23051059.516                    23051066.934
 126342169.896 5  98448354.32743  24042084.898                    24042096.047
 127079838.129 6  99023377.62642  24182512.164                    24182522.398
 127188118.593 5                  24203129.109
 116232535.576 7  90570794.67345  22118316.953                    22118323.262
 110225935.215 8  85890369.96146  20975299.406                    20975308.598
 107896912.584 8  84075514.11146  20532099.719                    20532106.711
 110087203.299 7  85782254.69846  20948898.602                    20948906.496
 11  8  9 14  3 30.0000000  0  8G31G06G13G03G23G32G16G20
 121205514.904 7  94445884.905 7  23064646.289                    23064653.957
 126267785.295 5  98390392.40743  24027929.664                    24027941.430
 126995085.890 6  98957336.99543  24166385.086                    24166394.727
 127097910.156 5                  24185961.945
 116158065.921 8  90512766.40145  22104146.125                    22104152.887
 110259964.284 8  85916886.09746  20981775.570                    20981783.996
 107851510.147 8  84040135.60946  20523459.898                    20523467.629
 110085314.719 8  85780783.06846  20948539.281                    20948547.016
 11  8  9 14  4  0.0000000  0  8G31G06G13G03G23G32G16G20
 121276900.060 7  94501509.679 7  23078230.703                    23078238.152
 126193425.34516  98332449.58052  24013779.148                    24013790.777
 126910275.756 6  98891251.14642  24150245.891                    24150256.461
 127007609.08715                  24168777.195
 116083666.338 7  90454792.70545  22089988.117                    22089994.199
 110294487.131 8  85943786.98946  20988345.023                    20988353.531
 107806682.499 8  84005204.99746  20514929.805                    20514936.781
 110084007.223 8  85779764.21446  20948290.430                    20948298.461
 11  8  9 14  4 30.0000000  0  8G31G06G13G03G23G32G16G20
 121348270.013 7  94557122.588 7  23091811.328                    23091820.070
 126119092.345 5  98274527.88842  23999634.602                    23999646.117
 126825408.600 7  98825120.84142  24134096.742                    24134105.973
 126917218.11215                  24151576.453
 116009337.950 8  90396874.48045  22075844.148                    22075850.516
 110329502.494 8  85971071.68146  20995008.586                    20995017.332
 107762430.666 8  83970723.06646  20506508.766                    20506515.898
 110083280.353 8  85779197.80546  20948152.102                    20948160.023
 11  8  9 14  5  0.0000000  0  8G31G06G13G03G23G32G16G20
 121419623.594 7  94612722.695 7  23105389.805                    23105398.344
 126044789.30415  98216629.34252  23985494.789                    23985505.754
 126740484.494 6  98758946.19543  24117936.781                    24117946.340
 126826739.55915                  24134359.648
 115935082.176 8  90339012.87745  22061713.547                    22061720.070
 110365009.239 8  85998739.24546  21001764.469                    21001773.582
 107718755.831 8  83936690.73546  20498197.539                    20498205.414
 110083133.916 8  85779083.69246  20948124.438                    20948132.430
 11  8  9 14  5 30.0000000  0  8G31G06G13G03G23G32G16G20
 121490960.299 7  94668309.732 6  23118964.117                    23118973.563
 125970519.58316  98158756.86852  23971362.883                    23971373.066
 126655505.166 6  98692728.56343  24101764.875                    24101775.660
 126736176.507 5                  24117127.430
 115860901.002 8  90281209.36345  22047597.664                    22047603.586
 110401006.821 8  86026789.29046  21008614.898                    21008623.520
 107675659.876 8  83903109.47046  20489996.352                    20490003.887
 110083568.283 8  85779422.13446  20948207.336                    20948215.203
 11  8  9 14  6  0.0000000  0  8G31G06G13G03G23G32G16G20
 121562279.536 7  94723883.145 6  23132535.523                    23132544.363
 125896285.776 6  98100912.42042  23957237.109                    23957246.785
 126570471.566 6  98626468.60143  24085582.977                    24085593.273
 126645531.697 5  98685010.01952  24099878.875                    24099888.250
 115786796.397 8  90223465.52845  22033495.711                    22033502.012
 110437494.217 8  86055221.00346  21015558.406                    21015567.000
 107633144.164 8  83869980.34646  20481906.445                    20481914.063
 110084583.381 8  85780213.09046  20948400.523                    20948407.813
 11  8  9 14  6 30.0000000  0  8G31G06G13G03G23G32G16G20
 121633580.186 7  94779442.036 6  23146104.375                    23146112.891
 125822090.917 6  98043098.21742  23943116.594                    23943128.727
 126485383.880 6  98560166.51142  24069392.180                    24069400.637
 126554808.006 6  98614316.29042  24082613.195                    24082624.688
 115712769.449 8  90165782.19445  22019408.758                    22019415.738
 110474470.223 8  86084033.45046  21022594.656                    21022603.418
 107591209.495 8  83837303.96846  20473926.430                    20473934.242
 110086178.823 8  85781456.27046  20948703.922                    20948711.430
 11  8  9 14  7  0.0000000  0  8G31G06G13G03G23G32G16G20
 121704861.924 7  94834986.220 6  23159668.203                    23159676.961
 125747937.841 6  97985316.64342  23929007.000                    23929018.082
 126400243.047 6  98493822.97343  24053190.609                    24053199.293
 126464008.234 5  98543563.20742  24065334.727                    24065345.645
 115638822.126 7  90108160.91445  22005336.867                    22005343.227
 110511933.851 8  86113225.86746  21029723.781                    21029732.516
 107549857.264 8  83805081.45446  20466057.602                    20466064.684
 110088354.669 8  85783151.73546  20949118.117                    20949125.922
 11  8  9 14  7 30.0000000  0  8G31G06G13G03G23G32G16G20
 121776123.815 7  94890514.939 6  23173229.500                    23173236.977
 125673829.537 6  97927569.97842  23914904.859                    23914914.195
 126315049.949 6  98427438.79243  24036978.930                    24036987.406
 126373134.793 6  98472752.80742  24048042.594                    24048053.672
 115564955.877 8  90050602.80545  21991280.953                    21991287.543
 110549884.092 8  86142797.45846  21036945.695                    21036954.719
 107509088.810 8  83773313.83146  20458299.469                    20458306.672
 110091110.707 8  85785299.27846  20949642.617                    20949650.250
 11  8  9 14  8  0.0000000  0  8G31G06G13G03G23G32G16G20
 121847364.874 7  94946027.399 6  23186786.602                    23186793.070
 125599768.801 6  97869860.35543  23900811.297                    23900820.859
 126229805.692 6  98361014.74743  24020757.273                    24020766.164
 126282190.550 5  98401887.14743  24030735.750                    24030747.320
 115491172.184 8  89993109.01045  21977240.484                    21977246.504
 110588319.745 8  86172747.29146  21044259.609                    21044268.195
 107468905.295 8  83742002.02446  20450652.445                    20450660.648
 110094446.303 8  85787898.42346  20950277.477                    20950284.773
 11  8  9 14  8 30.0000000  0  8G31G06G13G03G23G32G16G20
 121918584.115 7  95001522.878 6  23200338.906                    23200345.750
 125525758.705 6  97812190.19443  23886728.133                    23886737.512
 126144510.969 6  98294551.36143  24004525.164                    24004534.715
 126191178.313 6  98330968.49442  24013416.594                    24013429.160
 115417473.117 8  89935681.18445  21963216.133                    21963222.133
 110627239.762 8  86203074.55646  21051665.906                    21051674.965
 107429308.149 8  83711147.12446  20443117.969                    20443124.742
 110098361.162 8  85790948.96046  20951022.523                    20951030.250
 11  8  9 14  9  0.0000000  0  8G31G06G13G03G23G32G16G20
 121989781.553 7  95057001.334 6  23213887.461                    23213895.496
 125451802.087 6  97754561.71643  23872654.234                    23872663.719
 126059166.649 6  98228049.25043  23988284.734                    23988294.242
 126100100.80115  98259999.10852  23996084.492                    23996096.484
 115343860.211 8  89878320.49345  21949207.664                    21949214.223
 110666643.036 8  86233778.38446  21059164.141                    21059173.133
 107390298.495 8  83680750.00646  20435693.906                    20435701.078
 110102855.732 8  85794451.20146  20951877.500                    20951885.223
 11  8  9 14  9 30.0000000  0  8G31G06G13G03G23G32G16G20
 122060956.147 7  95112461.973 6  23227431.133                    23227440.156
 125377901.854 6  97696977.22243  23858590.617                    23858601.512
 125973773.442 6  98161509.10143  23972034.742                    23972045.281
 126008961.054 6  98188981.13242  23978741.336                    23978753.328
 115270334.848 8  89821028.03845  21935216.484                    21935223.258
 110706528.438 8  86264857.88946  21066754.094                    21066762.883
 107351877.067 8  83650811.23246  20428382.914                    20428390.285
 110107929.328 8  85798404.64446  20952843.438                    20952850.813
 11  8  9 14 10  0.0000000  0  8G31G06G13G03G23G32G16G20
 122132106.759 7  95167904.004 6  23240970.633                    23240979.148
 125304061.031 6  97639438.93843  23844540.055                    23844550.129
 125888332.583 6  98094931.86443  23955775.891                    23955786.637
 125917761.923 5  98117916.82542  23961385.680                    23961397.664
 115196898.812 8  89763805.16846  21921242.289                    21921249.125
 110746894.800 7  86296312.16546  21074435.852                    21074444.504
 107314045.335 7  83621331.96546  20421183.531                    20421191.391
 110113581.455 7  85802808.89346  20953918.633                    20953926.160
 11  8  9 14 10 30.0000000  0  8G31G06G13G03G23G32G16G20
 122203233.244 7  95223327.154 6  23254505.922                    23254514.535
 125230282.613 6  97581949.32043  23830500.023                    23830510.070
 125802844.756 6  98028317.96243  23939509.352                    23939518.469
 125826505.969 6  98046808.26543  23944021.961                    23944031.680
 115123554.342 8  89706653.64646  21907284.977                    21907291.688
 110787740.857 8  86328140.24846  21082208.641                    21082217.180
 107276804.540 8  83592313.15446  20414096.828                    20414104.375
 110119812.109 8  85807663.91446  20955104.273                    20955112.191
 11  8  9 14 11  0.0000000  0  8G31G06G13G03G23G32G16G20
 122274334.591 7  95278730.758 6  23268036.258                    23268044.730
 125156569.496 6  97524510.53443  23816472.906                    23816483.352
 125717310.791 6  97961668.17743  23923232.711                    23923242.148
 125735196.065 6  97975657.77243  23926646.695                    23926657.168
 115050302.454 8  89649574.26545  21893345.336                    21893351.801
 110829065.525 8  86360341.26146  21090071.984                    21090080.801
 107240155.287 8  83563755.29546  20407122.727                    20407130.387
 110126620.549 8  85812969.18646  20956399.789                    20956407.500
 11  8  9 14 11 30.0000000  0  8G31G06G13G03G23G32G16G20
 122345410.174 7  95334114.275 7  23281561.125                    23281570.789
 125082924.312 7  97467124.70643  23802458.766                    23802468.676
 125631731.680 6  97894983.18443  23906947.625                    23906957.023
 125643835.107 6  97904467.50843  23909260.508                    23909270.867
 114977144.682 8  89592568.19145  21879423.664                    21879430.703
 110870867.387 8  86392914.10946  21098026.953                    21098035.441
 107204098.838 8  83535659.36546  20400261.625                    20400268.902
 110134006.357 8  85818724.35446  20957805.383                    20957813.090
 11  8  9 14 12  0.0000000  0  8G31G06G13G03G23G32G16G20
 122416459.313 7  95389477.202 6  23295081.367                    23295090.203
 125009350.182 6  97409794.26543  23788458.383                    23788468.656
 125546108.291 6  97828263.69943  23890653.172                    23890663.223
 125552426.083 6  97833239.70843  23891866.344                    23891875.848
 114904083.119 8  89535637.11845  21865520.680                    21865527.129
 110913145.275 8  86425857.89746  21106071.867                    21106080.512
 107168635.883 8  83508025.91246  20393513.297                    20393520.605
 110141969.152 8  85824929.10846  20959321.008                    20959328.801
 11  8  9 14 12 30.0000000  0  8G31G06G13G03G23G32G16G20
 122487481.440 7  95444819.089 6  23308595.570                    23308606.043
 124935850.110 7  97352521.51543  23774471.859                    23774480.828
 125460441.626 6  97761510.48142  23874351.180                    23874361.293
 125460971.561 6  97761976.48843  23874462.781                    23874472.906
 114831119.791 8  89478782.57545  21851636.422                    21851643.320
 110955897.813 8  86459171.54746  21114207.445                    21114216.180
 107133767.548 8  83480855.80846  20386877.523                    20386885.371
 110150508.532 8  85831583.15946  20960945.945                    20960953.668
 11  8  9 14 13  0.0000000  0  8G31G06G13G03G23G32G16G20
 122558475.624 7  95500139.175 6  23322106.383                    23322115.262
 124862426.936 6  97295308.67543  23760499.375                    23760509.199
 125374732.711 7  97694724.33843  23858041.766                    23858050.848
 125369474.628 6  97690680.22343  23857051.602                    23857061.055
 114758256.006 8  89422005.60145  21837770.805                    21837777.609
 110999123.953 8  86492854.22246  21122433.461                    21122442.234
 107099494.870 8  83454149.83946  20380355.773                    20380363.559
 110159623.839 8  85838685.97546  20962680.594                    20962688.320
 11  8  9 14 13 30.0000000  0  8G31G06G13G03G23G32G16G20
 122629441.429 7  95555437.195 6  23335611.094                    23335618.004
 124789083.844 6  97238158.24143  23746542.031                    23746552.063
 125288982.576 6  97627906.04343  23841725.023                    23841733.648
 125277937.897 6  97619352.92843  23839632.609                    23839642.781
 114685493.341 7  89365307.43845  21823924.602                    21823931.332
 111042822.154 8  86526904.73846  21130748.766                    21130757.840
 107065818.858 8  83427908.80346  20373947.828                    20373955.090
 110169315.007 8  85846237.51846  20964525.102                    20964532.605
 11  8  9 14 14  0.0000000  0  8G31G06G13G03G23G32G16G20
 122700378.019 7  95610712.400 6  23349108.555                    23349117.191
 124715823.652 6  97181072.39643  23732601.195                    23732611.621
 125203191.917 6  97561056.17643  23825399.453                    23825407.973
 125186364.534 6  97547997.08243  23822206.414                    23822217.750
 114612834.069 8  89308689.83745  21810097.852                    21810104.730
 111086991.329 7  86561322.25346  21139154.070                    21139162.746
 107032740.316 8  83402133.32146  20367652.930                    20367660.887
 110179581.012 8  85854236.98746  20966477.500                    20966486.023
 11  8  9 14 14 30.0000000  0  8G31G06G13G03G23G32G16G20
 122771285.308 7  95665964.798 6  23362602.836                    23362610.723
 124642649.724 6  97124053.79843  23718676.383                    23718686.398
 125117361.847 6  97494175.64743  23809065.617                    23809075.277
 125094757.358 6  97476614.96343  23804774.430                    23804784.766
 114540279.732 8  89252153.98345  21796291.680                    21796297.520
 111131630.238 8  86596105.78146  21147648.625                    21147657.281
 107000260.271 8  83376824.20546  20361472.070                    20361480.121
 110190421.521 8  85862684.11246  20968540.828                    20968549.422
 11  8  9 14 15  0.0000000  0  8G31G06G13G03G23G32G16G20
 122842162.325 7  95721193.647 6  23376089.961                    23376098.637
 124569564.651 6  97067104.42643  23704768.781                    23704778.676
 125031493.274 6  97427265.09043  23792725.117                    23792734.168
 125003119.427 6  97405208.83444  23787336.125                    23787347.238
 114467832.155 8  89195701.34345  21782505.063                    21782511.582
 111176737.292 8  86631254.13446  21156231.992                    21156240.910
 106968379.419 8  83351981.98746  20355405.195                    20355413.105
 110201836.100 8  85871578.56446  20970713.313                    20970721.219
 11  8  9 14 15 30.0000000  0  8G31G06G13G03G23G32G16G20
 122913008.226 7  95776398.218 6  23389571.648                    23389580.711
 124496571.319 6  97010226.54343  23690879.023                    23690888.879
 124945587.422 6  97360325.46043  23776378.852                    23776387.086
 124911453.331 7  97333780.76444  23769892.852                    23769903.664
 114395492.966 8  89139333.15645  21768739.156                    21768745.285
 111222311.167 8  86666766.20846  21164903.969                    21164913.363
 106937098.523 8  83327607.27246  20349453.570                    20349461.055
 110213823.857 8  85880919.65646  20972994.297                    20973002.125
 11  8  9 14 16  0.0000000  0  8G31G06G13G03G23G32G16G20
 122983822.759 7  95831578.328 6  23403047.859                    23403056.238
 124423673.001 6  96953422.71843  23677006.500                    23677016.805
 124859644.982 6  97293357.36843  23760024.031                    23760033.445
 124819762.211 7  97262333.16944  23752445.055                    23752455.727
 114323264.399 8  89083051.19345  21754994.836                    21755001.055
 111268350.504 8  86702640.99246  21173665.102                    21173674.547
 106906418.572 8  83303700.81846  20343614.602                    20343622.383
 110226384.336 8  85890707.03746  20975384.430                    20975392.457
 11  8  9 14 16 30.0000000  0  8G31G06G13G03G23G32G16G20
 123054605.221 7  95886733.428 6  23416517.063                    23416525.289
 124350872.449 7  96896695.03044  23663153.352                    23663163.465
 124773667.215 7  97226361.75143  23743663.164                    23743672.484
 124728049.150 7  97190868.45144  23734992.445                    23735002.363
 114251147.773 8  89026856.43645  21741271.430                    21741277.637
 111314853.829 8  86738877.33546  21182514.602                    21182523.395
 106876340.274 8  83280263.19046  20337891.203                    20337898.727
 110239516.844 8  85900940.13846  20977883.273                    20977890.809
 11  8  9 14 17  0.0000000  0  8G31G06G13G03G23G32G16G20
 123125354.940 7  95941863.031 6  23429980.469                    23429989.055
 124278172.496 7  96840045.76944  23649319.055                    23649328.926
 124687655.043 6  97159339.28343  23727294.922                    23727304.660
 124636316.517 6  97119388.54243  23717536.273                    23717545.391
 114179144.875 8  88970750.30145  21727569.695                    21727576.441
 111361819.681 8  86775474.08046  21191452.313                    21191460.703
 106846863.991 8  83257294.68246  20332281.789                    20332289.480
 110253220.558 8  85911618.35546  20980490.977                    20980498.887
 11  8  9 14 17 30.0000000  0  8G31G06G13G03G23G32G16G20
 123196071.451 7  95996966.790 6  23443437.195                    23443444.707
 124205576.546 6  96783477.51843  23635504.672                    23635514.648
 124601609.813 6  97092291.07143  23710919.977                    23710930.004
 124544567.665 6  97047895.99343  23700076.844                    23700085.148
 114107257.629 8  88914734.27345  21713890.234                    21713896.047
 111409246.786 8  86812430.23046  21200477.164                    21200486.270
 106817990.913 8  83234796.18646  20326787.555                    20326795.070
 110267494.777 8  85922741.10246  20983207.219                    20983215.000
 11  8  9 14 18  0.0000000  0  8G31G06G13G03G23G32G16G20
 123266754.111 7  96052044.159 6  23456888.539                    23456896.094
 124133087.304 6  96726992.38043  23621710.055                    23621720.504
 124515532.262 5  97025217.69043  23694540.375                    23694550.703
 124452805.685 7  96976393.20343  23682615.766                    23682624.379
 114035488.389 8  88858810.21345  21700232.922                    21700238.777
 111457133.461 8  86849744.47246  21209589.969                    21209599.176
 106789721.513 8  83212768.07546  20321408.148                    20321415.238
 110282339.011 7  85934308.00746  20986032.453                    20986040.125
 11  8  9 14 18 30.0000000  0  8G31G06G13G03G23G32G16G20
 123337402.471 7  96107094.793 7  23470331.500                    23470340.422
 124060707.841 7  96670592.81043  23607937.008                    23607947.031
 124429423.548 6  96958120.06643  23678154.617                    23678165.055
 124361033.172 7  96904882.18843  23665151.531                    23665161.191
 113963838.253 8  88802978.94745  21686598.398                    21686604.398
 111505478.294 8  86887415.73446  21218789.563                    21218798.520
 106762056.214 8  83191210.73346  20316143.313                    20316150.742
 110297752.066 7  85946318.15846  20988965.242                    20988973.266
 11  8  9 14 19  0.0000000  0  8G31G06G13G03G23G32G16G20
 123408015.641 7  96162118.009 6  23483768.625                    23483777.500
 123988441.013 7  96614281.01344  23594184.906                    23594194.578
 124343284.510 7  96890998.75343  23661764.070                    23661773.027
 124269253.134 7  96833365.26944  23647685.984                    23647696.422
 113892308.961 8  88747241.88345  21672986.789                    21672992.922
 111554279.611 8  86925442.70546  21228076.188                    21228084.781
 106734995.495 8  83170124.46646  20310994.164                    20311001.910
 110313733.038 7  85958770.84246  20992006.430                    20992013.875
 11  8  9 14 19 30.0000000  0  8G31G06G13G03G23G32G16G20
 123478593.451 7  96217113.667 6  23497198.953                    23497208.313
 123916290.077 6  96558059.48244  23580454.719                    23580464.531
 124257116.590 7  96823854.92743  23645366.438                    23645375.492
 124177468.762 7  96761845.01944  23630219.969                    23630230.480
 113820902.993 8  88691600.89445  21659398.242                    21659404.598
 111603536.181 8  86963824.41946  21237449.164                    21237458.359
 106708540.620 8  83149510.28846  20305960.039                    20305967.785
 110330281.735 7  85971665.90846  20995155.781                    20995163.648
 11  8  9 14 20  0.0000000  0  8G31G06G13G03G23G32G16G20
 123549135.614 7  96272081.543 6  23510622.906                    23510631.438
 123844258.140 6  96501930.68843  23566747.586                    23566757.621
 124170920.561 7  96756689.23043  23628963.727                    23628973.285
 124085683.318 6  96690323.90844  23612753.164                    23612763.832
 113749622.375 8  88636057.59345  21645834.500                    21645840.504
 111653246.731 7  87002559.88146  21246908.625                    21246918.199
 106682692.070 8  83129368.57246  20301041.289                    20301048.371
 110347397.321 7  85985002.71646  20998412.594                    20998420.566
 11  8  9 14 20 30.0000000  0  8G31G06G13G03G23G32G16G20
 123619641.318 7  96327021.037 7  23524039.164                    23524047.930
 123772347.691 6  96445896.57444  23553063.344                    23553073.758
 124084697.949 7  96689502.80743  23612556.305                    23612565.223
 123993899.071 6  96618803.74043  23595287.461                    23595297.738
 113678468.174 8  88580612.77145  21632293.852                    21632299.527
 111703409.029 8  87041647.36046  21256454.375                    21256463.875
 106657449.868 8  83109699.32346  20296237.727                    20296244.941
 110365078.432 8  85998780.18646  21001776.789                    21001785.281
 11  8  9 14 21  0.0000000  0  8G31G06G13G03G23G32G16G20
 123690109.743 7  96381931.445 7  23537449.625                    23537458.547
 123700561.817 6  96389959.53144  23539403.781                    23539413.508
 123998449.698 7  96622296.40143  23596143.430                    23596152.336
 123902119.167 6  96547286.98743  23577822.328                    23577832.125
 113607442.426 8  88525268.05045  21618778.336                    21618784.465
 111754021.667 7  87081085.74946  21266085.727                    21266095.270
 106632814.571 8  83090502.98446  20291549.625                    20291557.148
 110383324.218 7  86012997.66146  21005249.305                    21005257.555
 11  8  9 14 21 30.0000000  0  8G31G06G13G03G23G32G16G20
 123760540.800 7  96436812.726 7  23550852.320                    23550861.250
 123628903.892 7  96334122.19644  23525768.148                    23525777.914
 123912176.955 7  96555070.92043  23579725.852                    23579734.711
 123810346.979 6  96475776.22843  23560358.313                    23560368.895
 113536547.695 8  88470025.43745  21605287.539                    21605292.922
 111805083.380 7  87120874.06746  21275802.594                    21275811.578
 106608787.257 8  83071780.41546  20286977.453                    20286984.457
 110402134.364 8  86027654.89746  21008828.898                    21008836.500
 11  8  9 14 22  0.0000000  0  8G31G06G13G03G23G32G16G20
 123830933.932 7  96491664.484 7  23564247.664                    23564257.156
 123557376.984 7  96278386.96944  23512157.055                    23512167.145
 123825880.753 7  96487827.17743  23563305.273                    23563313.262
 123718585.119 6  96404273.50143  23542897.477                    23542907.344
 113465785.487 8  88414886.06145  21591821.680                    21591828.355
 111856592.520 7  87161011.04246  21285604.313                    21285613.398
 106585367.989 8  83053531.63846  20282520.367                    20282528.215
 110421507.480 7  86042750.83046  21012514.984                    21012523.391
 11  8  9 14 22 30.0000000  0  8G31G06G13G03G23G32G16G20
 123901288.898 7  96546486.501 7  23577635.398                    23577644.012
 123485983.977 6  96222756.03844  23498571.398                    23498580.844
 123739562.261 7  96420566.01043  23546878.898                    23546886.734
 123626836.963 6  96332781.46643  23525438.883                    23525448.223
 113395157.834 8  88359851.54245  21578381.477                    21578387.406
 111908547.528 7  87201495.43546  21295491.172                    21295499.898
 106562557.476 8  83035757.19246  20278180.102                    20278187.258
 110441442.641 8  86058284.69846  21016308.445                    21016316.883
 11  8  9 14 23  0.0000000  0  8G31G06G13G03G23G32G16G20
 123971605.110 6  96601278.310 7  23591017.445                    23591024.664
 123414727.884 6  96167231.80043  23485010.516                    23485021.410
 123653222.717 7  96353288.48543  23530448.070                    23530458.051
 123535105.500 6  96261302.42343  23507981.961                    23507992.988
 113324666.427 8  88304923.18646  21564967.820                    21564974.504
 111960946.666 7  87242325.90846  21305462.602                    21305471.031
 106540355.863 8  83018457.25246  20273955.438                    20273962.320
 110461939.168 7  86074255.99846  21020209.141                    21020217.102
 11  8  9 14 23 30.0000000  0  8G31G06G13G03G23G32G16G20
 124041881.681 7  96656039.226 7  23604389.695                    23604398.766
 123343611.190 6  96111816.21243  23471476.859                    23471487.730
 123566863.324 6  96285995.49343  23514015.000                    23514024.574
 123443393.403 6  96189838.45443  23490530.531                    23490541.203
 113254312.928 8  88250102.28745  21551579.906                    21551586.637
 112013787.885 8  87283500.86146  21315517.820                    21315526.328
 106518763.187 8  83001631.79946  20269846.914                    20269853.547
 110482995.263 7  86090663.33946  21024215.516                    21024223.977
 11  8  9 14 24  0.0000000  0  8G31G06G13G03G23G32G16G20
 124112118.501 7  96710769.184 7  23617755.555                    23617764.793
 123272637.604 6  96056512.06643  23457971.781                    23457982.078
 123480485.078 6  96218687.76343  23497577.898                    23497587.031
 123351704.055 6  96118392.26443  23473081.484                    23473092.313
 113184100.011 8  88195390.91445  21538218.781                    21538225.512
 112067069.931 8  87325019.30446  21325657.211                    21325665.676
 106497780.326 8  82985281.53146  20265853.430                    20265860.719
 110504610.456 8  86107506.31846  21028328.953                    21028337.676
 11  8  9 14 24 30.0000000  0  8G31G06G13G03G23G32G16G20
 124182314.964 7  96765467.638 6  23631113.938                    23631122.258
 123201809.500 6  96001321.34643  23444493.883                    23444503.102
 123394089.393 6  96151366.45943  23481136.250                    23481146.266
 123260040.600 6  96046966.22143  23455638.906                    23455648.074
 113114028.933 7  88140790.10845  21524884.180                    21524890.578
 112120790.871 8  87366879.74446  21335880.273                    21335888.594
 106477407.252 8  82969406.43346  20261976.727                    20261984.039
 110526783.529 7  86124784.03146  21032548.492                    21032557.117
 11  8  9 14 25  0.0000000  0  8G31G06G13G03G23G32G16G20
 124252470.745 7  96820134.445 7  23644464.336                    23644472.219
 123131130.487 6  95946246.85943  23431043.984                    23431053.199
 123307677.422 6  96084032.49043  23464692.898                    23464702.223
 123168405.924 6  95975562.61743  23438201.258                    23438210.324
 113044101.938 8  88086301.54445  21511577.891                    21511584.512
 112174949.219 8  87409081.01546  21346185.961                    21346194.273
 106457644.495 8  82954006.89546  20258216.289                    20258223.543
 110549513.534 7  86142495.69546  21036874.273                    21036882.008
 11  8  9 14 25 30.0000000  0  8G31G06G13G03G23G32G16G20
 124322585.134 7  96874769.002 6  23657805.883                    23657814.891
 123060603.028 7  95891290.39543  23417623.734                    23417631.941
 123221250.198 7  96016686.65843  23448247.258                    23448256.445
 123076802.906 6  95904183.65143  23420770.094                    23420779.535
 112974320.643 8  88031926.52746  21498299.188                    21498305.504
 112229542.847 8  87451621.47646  21356574.813                    21356583.695
 106438491.864 8  82939082.77446  20254571.008                    20254578.871
 110572799.038 8  86160640.23046  21041305.039                    21041313.633
 11  8  9 14 26  0.0000000  0  8G31G06G13G03G23G32G16G20
 124392658.498 7  96929371.519 6  23671140.258                    23671149.375
 122990230.666 7  95836454.80343  23404232.156                    23404241.813
 123134809.111 7  95949330.04643  23431798.172                    23431807.441
 122985235.002 6  95832832.05944  23403345.219                    23403354.559
 112904687.899 8  87977667.24745  21485048.461                    21485054.793
 112284570.652 8  87494500.25746  21367046.539                    21367055.645
 106419950.351 8  82924634.83246  20251043.141                    20251050.430
 110596639.533 8  86179217.22346  21045841.742                    21045850.113
 11  8  9 14 26 30.0000000  0  8G31G06G13G03G23G32G16G20
 124462690.222 7  96983941.630 6  23684467.805                    23684475.555
 122920016.326 7  95781742.33244  23390871.516                    23390881.074
 123048355.397 7  95881963.58444  23415346.391                    23415355.738
 122893705.312 6  95761510.23243  23385928.555                    23385938.121
 112835205.324 8  87923524.99945  21471826.125                    21471832.348
 112340030.648 8  87537715.81846  21377599.977                    21377609.078
 106402019.923 8  82910663.05646  20247630.820                    20247638.398
 110621033.469 8  86198225.49246  21050483.922                    21050491.719
 11  8  9 14 27  0.0000000  0  8G31G06G13G03G23G32G16G20
 124532679.541 7  97038478.772 6  23697786.719                    23697794.359
 122849962.690 7  95727155.11144  23377539.742                    23377550.785
 122961890.303 7  95814588.24144  23398893.047                    23398902.105
 122802216.505 6  95690220.25643  23368518.383                    23368528.195
 112765874.269 8  87869500.82446  21458632.945                    21458639.156
 112395920.844 8  87581266.58246  21388235.875                    21388244.543
 106384700.413 8  82897167.33846  20244334.648                    20244342.344
 110645979.534 8  86217663.93946  21055231.031                    21055239.508
 11  8  9 14 27 30.0000000  0  8G31G06G13G03G23G32G16G20
 124602625.882 7  97092982.360 6  23711097.125                    23711105.332
 122780072.931 7  95672695.57544  23364239.852                    23364250.961
 122875415.176 7  95747205.03844  23382437.047                    23382446.367
 122710771.948 6  95618964.74543  23351116.891                    23351126.922
 112696697.175 8  87815596.59345  21445469.352                    21445475.063
 112452239.487 7  87625151.21445  21398953.023                    21398961.840
 106367992.113 8  82884147.86846  20241155.547                    20241163.199
 110671476.589 8  86237531.76346  21060083.125                    21060091.133
 11  8  9 14 28  0.0000000  0  8G31G06G13G03G23G32G16G20
 124672529.370 7  97147452.522 6  23724398.328                    23724407.301
 122710350.426 6  95618366.36844  23350972.305                    23350983.078
 122788931.368 6  95679815.08544  23365979.242                    23365988.832
 122619375.184 6  95547746.50644  23333724.414                    23333734.879
 112627676.364 8  87761814.14645  21432335.281                    21432341.426
 112508985.221 8  87669368.65146  21409750.672                    21409760.063
 106351895.460 8  82871605.02246  20238092.398                    20238099.922
 110697523.851 8  86257828.33046  21065039.781                    21065047.199
 11  8  9 14 28 30.0000000  0  8G31G06G13G03G23G32G16G20
 124742389.965 7  97201889.338 6  23737692.906                    23737700.969
 122640798.257 6  95564169.92444  23337736.570                    23337747.344
 122702440.699 7  95612419.80143  23349521.070                    23349529.754
 122528029.150 6  95476567.76143  23316341.813                    23316351.320
 112558813.960 8  87708155.14646  21419230.508                    21419236.785
 112566156.343 8  87713917.55546  21420630.063                    21420639.129
 106336410.791 8  82859539.05546  20235145.844                    20235153.504
 110724120.242 8  86278552.76946  21070100.742                    21070108.855
 11  8  9 14 29  0.0000000  0  8G31G06G13G03G23G32G16G20
 124812206.815 7  97256292.030 6  23750979.063                    23750986.832
 122571418.984 6  95510108.20744  23324533.883                    23324545.570
 122615943.396 7  95545019.31943  23333060.844                    23333069.898
 122436736.509 7  95405430.65743  23298969.336                    23298978.824
 112490111.263 8  87654620.59546  21406156.938                    21406163.152
 112623750.485 7  87758796.06046  21431590.305                    21431599.355
 106321537.320 8  82847949.35646  20232315.547                    20232323.172
 110751263.572 7  86299703.39146  21075265.727                    21075274.059
 11  8  9 14 29 30.0000000  0  8G31G06G13G03G23G32G16G20
 124881979.253 7  97310660.121 6  23764255.719                    23764263.555
 122502215.458 6  95456183.40243  23311365.063                    23311375.613
 122529441.090 7  95477614.97744  23316600.016                    23316608.895
 122345500.537 6  95334337.71743  23281607.648                    23281617.484
 112421570.405 8  87601212.15246  21393114.242                    21393120.211
 112681765.573 8  87804002.59746  21442629.820                    21442638.641
 106307275.412 8  82836836.18846  20229601.484                    20229609.254
 110778952.972 7  86321279.55146  21080535.063                    21080543.598
 11  8  9 14 30  0.0000000  0  8G31G06G13G03G23G32G16G20
 124951707.183 7  97364993.509 6  23777524.773                    23777532.875
 122433190.834 7  95402398.00644  23298230.742                    23298239.801
 122442934.972 6  95410207.63444  23300138.266                    23300147.371
 122254324.137 7  95263291.16244  23264256.867                    23264267.309
 112353193.686 8  87547931.59046  21380102.484                    21380108.945
 112740200.049 8  87849535.92446  21453750.055                    21453758.605
 106293624.819 8  82826199.37046  20227003.539                    20227011.262
 110807186.930 8  86343280.00546  21085908.188                    21085916.297
 11  8  9 14 30 30.0000000  0  8G31G06G13G03G23G32G16G20
 125021390.280 7  97419291.953 6  23790785.078                    23790793.969
 122364347.995 7  95348754.27844  23285129.953                    23285140.117
 122356426.608 7  95342798.52843  23283676.508                    23283685.461
 122163210.644 6  95192293.66244  23246918.078                    23246929.453
 112284982.946 8  87494780.37546  21367122.727                    21367128.523
 112799051.894 8  87895394.47146  21464948.578                    21464957.637
 106280585.825 8  82816039.12046  20224522.625                    20224530.570
 110835964.150 8  86365703.79246  21091384.305                    21091392.605
 11  8  9 14 31  0.0000000  0  8G31G06G13G03G23G32G16G20
 125091028.392 7  97473555.341 6  23804036.930                    23804045.727
 122295690.228 7  95295254.75244  23272065.430                    23272074.754
 122269917.357 6  95275388.74943  23267214.313                    23267223.488
 122072163.147 7  95121347.56844  23229593.016                    23229603.352
 112216940.480 8  87441760.27946  21354174.375                    21354180.742
 112858319.469 8  87941576.96846  21476227.227                    21476236.375
 106268158.429 8  82806355.42146  20222157.180                    20222165.277
 110865283.260 8  86388549.83546  21096963.547                    21096971.746
 11  8  9 14 31 30.0000000  0  8G31G06G13G03G23G32G16G20
 125160621.292 7  97527783.582 6  23817280.297                    23817287.945
 122227220.667 7  95241901.91344  23259035.203                    23259045.301
 122183408.520 7  95207979.28344  23250752.539                    23250761.523
 121981185.171 7  95050455.65744  23212281.438                    23212291.082
 112149068.135 8  87388872.75546  21341258.617                    21341264.656
 112918000.869 8  87988081.91245  21487584.086                    21487593.023
 106256342.840 7  82797148.45746  20219908.883                    20219916.879
 110895142.985 8  86411817.12546  21102645.531                    21102653.520
 11  8  9 14 32  0.0000000  0  8G31G06G13G03G23G32G16G20
 125230168.130 7  97581975.838 6  23830513.641                    23830522.953
 122158941.635 7  95188697.50344  23246042.688                    23246052.117
 122096901.203 7  95140571.03844  23234289.969                    23234300.242
 121890279.131 7  94979619.83344  23194982.391                    23194992.344
 112081367.687 8  87336119.18446  21328375.750                    21328381.555
 112978093.727 8  88034907.47745  21499019.313                    21499028.680
 106245138.002 7  82788417.40046  20217777.109                    20217784.430
 110925541.496 8  86435504.25846  21108430.125                    21108438.672
 11  8  9 14 32 30.0000000  0  8G31G06G13G03G23G32G16G20
 125299669.050 7  97636132.374 6  23843739.477                    23843748.441
 122090856.575 7  95135644.26744  23233085.844                    23233095.637
 122010397.165 6  95073165.33744  23217829.227                    23217838.648
 121799448.398 7  94908842.66744  23177697.320                    23177706.609
 112013841.540 8  87283501.41845  21315525.672                    21315532.047
 113038596.623 7  88082052.55545  21510532.602                    21510542.320
 106234544.449 8  82780162.68246  20215761.172                    20215768.754
 110956477.666 8  86459610.34346  21114317.258                    21114325.297
 11  8  9 14 33  0.0000000  0  8G31G06G13G03G23G32G16G20
 125369123.341 7  97690252.519 6  23856957.055                    23856965.281
 122022968.868 6  95082744.80544  23220167.234                    23220177.934
 121923897.839 7  95005763.28244  23201369.164                    23201377.965
 121708696.170 7  94838126.72144  23160427.820                    23160436.609
 111946491.807 8  87231021.12545  21302709.523                    21302715.496
 113099507.174 7  88129515.29945  21522123.680                    21522132.824
 106224562.007 8  82772384.15846  20213861.883                    20213869.023
 110987950.349 8  86484134.48846  21120306.273                    21120314.641
 11  8  9 14 33 30.0000000  0  8G31G06G13G03G23G32G16G20
 125438531.059 7  97744336.403 6  23870164.500                    23870173.195
 121955280.814 7  95030000.88444  23207287.492                    23207297.441
 121837404.249 7  94938365.67844  23184910.453                    23184919.074
 121618025.875 7  94767474.60944  23143174.117                    23143183.414
 111879320.402 8  87178679.77946  21289927.336                    21289933.484
 113160823.677 7  88177294.36446  21533791.570                    21533801.035
 106215190.288 8  82765081.51646  20212078.578                    20212085.754
 111019957.632 7  86509075.20346  21126397.039                    21126405.316
 11  8  9 14 34  0.0000000  0  8G31G06G13G03G23G32G16G20
 125507891.825 7  97798383.677 6  23883363.484                    23883372.434
 121887795.634 7  94977415.06944  23194445.031                    23194455.402
 121750917.668 7  94870973.58744  23168452.359                    23168462.031
 121527440.377 6  94696888.53344  23125935.859                    23125945.641
 111812329.291 8  87126478.93046  21277179.422                    21277185.625
 113222543.819 7  88225387.94246  21545537.352                    21545545.848
 106206428.999 8  82758254.55946  20210411.281                    20210418.730
 111052497.875 8  86534431.21446  21132589.164                    21132597.449
 11  8  9 14 34 30.0000000  0  8G31G06G13G03G23G32G16G20
 125577205.531 7  97852394.309 6  23896553.016                    23896562.102
 121820516.258 7  94924989.61844  23181642.492                    23181651.895
 121664439.901 7  94803588.34044  23151995.836                    23152004.918
 121436942.923 7  94626371.08644  23108714.852                    23108724.441
 111745520.852 8  87074420.44445  21264466.133                    21264472.195
 113284666.006 8  88273794.82046  21557359.117                    21557367.176
 106198278.180 8  82751903.28946  20208860.344                    20208867.227
 111085570.027 8  86560201.69846  21138882.594                    21138890.813
 11  8  9 14 35  0.0000000  0  8G31G06G13G03G23G32G16G20
 125646471.966 7  97906368.120 6  23909733.828                    23909741.973
 121753446.064 7  94872727.14144  23168879.313                    23168889.039
 121577972.151 7  94736210.91144  23135542.094                    23135550.359
 121346536.852 7  94555924.84344  23091511.070                    23091520.836
 111678897.288 8  87022505.99145  21251787.906                    21251793.453
 113347188.240 8  88322513.39246  21569256.414                    21569265.391
 106190737.476 8  82746027.42446  20207425.070                    20207432.039
 111119172.454 8  86586385.39846  21145276.945                    21145285.172
 11  8  9 14 35 30.0000000  0  8G31G06G13G03G23G32G16G20
 125715690.953 7  97960304.929 6  23922906.617                    23922914.387
 121686587.988 7  94820629.96744  23156156.672                    23156166.348
 121491516.222 6  94668842.66544  23119089.656                    23119098.301
 121256225.625 6  94485552.50544  23074325.117                    23074335.367
 111612460.675 8  86970737.21145  21239145.531                    21239151.344
 113410108.620 8  88371542.22845  21581229.883                    21581238.531
 106183806.983 8  82740627.05346  20206106.227                    20206113.508
 111153303.435 8  86612980.94946  21151771.914                    21151779.762
 11  8  9 14 36  0.0000000  0  8G31G06G13G03G23G32G16G20
 125784861.973 7  98014204.368 6  23936069.617                    23936076.973
 121619944.876 7  94768700.35344  23143474.328                    23143483.883
 121405073.160 6  94601484.46443  23102639.344                    23102648.129
 121166012.165 6  94415256.34544  23057158.195                    23057167.887
 111546212.632 8  86919115.36546  21226539.445                    21226545.637
 113473424.747 7  88420879.44345  21593278.219                    21593287.047
 106177485.825 7  82735701.47246  20204903.336                    20204910.871
 111187961.360 8  86639987.10946  21158367.063                    21158375.055
 11  8  9 14 36 30.0000000  0  8G31G06G13G03G23G32G16G20
 125853984.730 7  98068066.216 6  23949223.523                    23949230.453
 121553519.567 6  94716940.42244  23130834.516                    23130843.801
 121318644.688 6  94534137.63543  23086192.805                    23086201.656
 121075899.610 7  94345038.80844  23040010.734                    23040020.023
 111480155.786 8  86867642.52546  21213968.742                    21213974.184
 113537134.517 8  88470523.37745  21605401.859                    21605410.777
 106171773.596 7  82731250.39746  20203816.258                    20203823.410
 111223144.648 8  86667402.64346  21165062.117                    21165070.207
 11  8  9 14 37  0.0000000  0  8G31G06G13G03G23G32G16G20
 125923059.431 7  98121890.571 6  23962367.344                    23962376.652
 121487315.142 6  94665352.57544  23118235.680                    23118245.555
 121232232.144 6  94466803.22643  23069748.922                    23069757.781
 120985891.520 7  94274902.68344  23022882.375                    23022892.195
 111414292.098 8  86816320.17446  21201435.547                    21201442.070
 113601236.058 8  88520472.61145  21617599.484                    21617609.207
 106166670.193 7  82727273.70646  20202844.805                    20202852.613
 111258851.766 8  86695226.36046  21171857.492                    21171864.711
 11  8  9 14 37 30.0000000  0  8G31G06G13G03G23G32G16G20
 125992085.756 7  98175677.261 6  23975502.492                    23975511.695
 121421335.075 6  94613939.61544  23105680.297                    23105690.645
 121145837.356 6  94399482.64644  23053308.914                    23053318.102
 120895990.833 7  94204850.28644  23005774.180                    23005785.246
 111348624.084 8  86765150.30046  21188939.289                    21188945.480
 113665727.506 7  88570725.64745  21629871.773                    21629881.168
 106162175.509 7  82723771.34646  20201989.531                    20201997.328
 111295081.159 8  86723457.02746  21178751.500                    21178758.750
 11  8  9 14 38  0.0000000  0  8G31G06G13G03G23G32G16G20
 126061063.087 6  98229425.858 6  23988628.438                    23988637.848
 121355581.748 6  94562703.30444  23093167.375                    23093178.074
 121059461.456 7  94332176.77744  23036872.547                    23036881.293
 120806200.782 7  94134884.04644  22988688.555                    22988697.773
 111283153.636 8  86714134.37246  21176480.391                    21176487.105
 113730606.620 7  88621280.75545  21642218.172                    21642227.156
 106158288.715 7  82720742.68246  20201250.305                    20201257.922
 111331831.168 8  86752093.36546  21185744.547                    21185751.891
 11  8  9 14 38 30.0000000  0  8G31G06G13G03G23G32G16G20
 126129991.537 7  98283136.306 6  24001745.813                    24001754.699
 121290058.310 7  94511646.09644  23080699.891                    23080709.035
 120973106.152 7  94264886.93744  23020439.500                    23020448.336
 120716524.258 7  94065006.31744  22971622.625                    22971633.391
 111217882.563 8  86663273.81545  21164059.609                    21164066.027
 113795871.233 7  88672136.26745  21654637.641                    21654646.867
 106155009.380 8  82718187.35046  20200626.211                    20200633.512
 111369099.964 8  86781133.96046  21192837.047                    21192844.172
 11  8  9 14 39  0.0000000  0  8G31G06G13G03G23G32G16G20
 126198871.013 7  98336808.569 6  24014852.656                    24014861.563
 121224767.608 7  94460770.25244  23068274.711                    23068283.945
 120886772.550 7  94197614.02744  23004010.594                    23004019.207
 120626965.073 7  93995219.98144  22954580.453                    22954590.523
 111152813.091 8  86612570.33545  21151677.102                    21151683.973
 113861519.032 7  88723290.36346  21667130.297                    21667139.910
 106152336.866 8  82716104.88646  20200117.953                    20200124.883
 111406885.604 7  86810577.30045  21200027.188                    21200034.188
 11  8  9 14 39 30.0000000  0  8G31G06G13G03G23G32G16G20
 126267701.344 6  98390442.579 6  24027949.438                    24027959.617
 121159712.972 7  94410078.33044  23055895.633                    23055904.949
 120800462.577 6  94130359.54844  22987585.570                    22987594.805
 120537526.052 7  93925527.25744  22937561.148                    22937571.129
 111087947.800 8  86562025.96446  21139333.672                    21139340.090
 113927548.223 7  88774741.64245  21679694.820                    21679704.430
 106150270.934 8  82714495.06747  20199724.469                    20199732.105
 111445186.470 8  86840422.09946  21207315.586                    21207323.223
 11  8  9 14 40  0.0000000  0  8G31G06G13G03G23G32G16G20
 126336482.702 6  98444038.385 6  24041038.641                    24041047.867
 121094897.368 7  94359572.70444  23043561.492                    23043571.480
 120714177.989 6  94063124.86144  22971166.141                    22971175.375
 120448210.855 7  93855931.00444  22920564.820                    22920574.629
 111023288.878 7  86511642.38245  21127029.984                    21127035.598
 113993957.031 7  88826488.72946  21692332.781                    21692342.059
 106148811.540 8  82713357.88146  20199447.359                    20199454.660
 111484001.230 8  86870667.34445  21214702.133                    21214709.281
 11  8  9 14 40 30.0000000  0  8G31G06G13G03G23G32G16G20
 126405214.548 6  98497595.588 6  24054119.227                    24054128.074
 121030323.792 7  94309255.66844  23031273.227                    23031282.512
 120627919.924 7  93995910.83044  22954752.305                    22954761.383
 120359022.644 7  93786433.74344  22903593.367                    22903601.590
 110958838.496 8  86461421.33446  21114765.461                    21114771.586
 114060742.853 8  88878529.59946  21705041.563                    21705050.434
 106147957.639 8  82712692.51146  20199284.328                    20199291.652
 111523327.892 8  86901311.48446  21222185.367                    21222193.059
 11  8  9 14 41  0.0000000  0  8G31G06G13G03G23G32G16G20
 126473896.446 7  98551113.905 6  24067188.391                    24067197.410
 120965994.777 7  94259129.18444  23019031.906                    23019041.688
 120541690.153 7  93928718.80544  22938342.523                    22938351.340
 120269964.550 7  93717037.89544  22886645.641                    22886654.855
 110894598.552 8  86411364.25146  21102541.070                    21102546.906
 114127903.476 8  88930862.50146  21717821.781                    21717830.996
 106147708.555 8  82712498.41846  20199237.453                    20199244.297
 111563164.340 8  86932352.85246  21229766.188                    21229773.926
 11  8  9 14 41 30.0000000  0  8G31G06G13G03G23G32G16G20
 126542528.216 6  98604593.118 6  24080247.930                    24080257.074
 120901913.180 7  94209195.50844  23006836.578                    23006847.371
 120455490.187 6  93861550.04944  22921939.828                    22921948.285
 120181039.539 7  93647745.68144  22869723.664                    22869732.422
 110830570.816 8  86361472.53546  21090356.453                    21090363.082
 114195436.451 8  88983485.56146  21730673.227                    21730682.000
 106148063.365 8  82712774.89246  20199304.891                    20199312.273
 111603508.763 8  86963790.04146  21237443.578                    21237451.449
 11  8  9 14 42  0.0000000  0  8G31G06G13G03G23G32G16G20
 126611110.310 6  98658033.590 6  24093299.211                    24093307.891
 120838082.357 7  94159457.21244  22994691.680                    22994700.445
 120369321.423 7  93794405.61544  22905541.969                    22905551.832
 120092250.986 7  93578559.82044  22852827.641                    22852836.953
 110766757.874 8  86311748.18446  21078213.164                    21078219.609
 114263339.870 8  89036397.26746  21743594.430                    21743604.066
 106149021.657 8  82713521.62546  20199486.813                    20199494.039
 111644359.408 8  86995621.70246  21245217.445                    21245225.367
 11  8  9 14 42 30.0000000  0  8G31G06G13G03G23G32G16G20
 126679642.280 6  98711435.071 6  24106340.563                    24106348.371
 120774505.167 7  94109916.56444  22982592.094                    22982602.184
 120283185.652 7  93727286.84444  22889151.094                    22889160.223
 120003602.041 7  93509482.72444  22835958.156                    22835968.012
 110703162.126 8  86262193.07646  21066111.602                    21066118.055
 114331611.751 8  89089596.11845  21756585.617                    21756595.191
 106150583.009 8  82714738.26246  20199783.898                    20199791.094
 111685714.629 8  87027846.53346  21253086.609                    21253094.488
 11  8  9 14 43  0.0000000  0  8G31G06G13G03G23G32G16G20
 126748124.142 7  98764797.539 6  24119372.602                    24119380.563
 120711184.637 7  94060575.85344  22970542.719                    22970552.457
 120197084.238 7  93660194.90044  22872766.922                    22872775.109
 119915096.159 6  93440517.13644  22819115.953                    22819126.109
 110639785.800 8  86212808.94546  21054051.406                    21054057.652
 114400249.718 7  89143080.21645  21769647.477                    21769656.832
 106152746.534 7  82716424.10746  20200195.820                    20200203.098
 111727572.463 8  87060462.99646  21261052.289                    21261060.273
 11  8  9 14 43 30.0000000  0  8G31G06G13G03G23G32G16G20
 126816555.456 7  98818120.579 6  24132394.594                    24132403.051
 120648123.352 7  94011437.19644  22958542.688                    22958552.801
 120111018.914 7  93593131.03144  22856389.531                    22856397.355
 119826736.491 7  93371665.41944  22802302.188                    22802312.234
 110576630.642 8  86163597.14446  21042033.547                    21042039.906
 114469251.375 8  89196847.71145  21782777.758                    21782787.629
 106155511.317 7  82718578.49646  20200721.711                    20200729.336
 111769930.800 8  87093469.48246  21269112.039                    21269120.465
 11  8  9 14 44  0.0000000  0  8G31G06G13G03G23G32G16G20
 126884936.360 7  98871404.371 6  24145406.547                    24145415.523
 120585324.690 7  93962503.18444  22946592.969                    22946602.488
 120024991.593 7  93526096.75644  22840018.703                    22840026.508
 119738526.429 7  93302930.32044  22785516.523                    22785526.289
 110513699.355 8  86114559.80446  21030057.789                    21030064.059
 114538614.866 8  89250897.14045  21795977.656                    21795986.539
 106158877.052 8  82721201.15746  20201362.328                    20201369.285
 111812788.074 8  87126864.74046  21277268.219                    21277275.262
 11  8  9 14 44 30.0000000  0  8G31G06G13G03G23G32G16G20
 126953266.689 6  98924648.698 6  24158408.672                    24158418.695
 120522791.539 7  93913776.06244  22934693.195                    22934702.543
 119939003.738 7  93459093.24744  22823655.742                    22823663.730
 119650469.349 7  93234314.46244  22768759.469                    22768769.621
 110450994.095 8  86065698.56446  21018125.727                    21018131.539
 114608337.962 8  89305226.80545  21809245.563                    21809254.402
 106162842.751 8  82724291.30346  20202117.094                    20202124.082
 111856142.197 8  87160647.14746  21285517.906                    21285525.633
 11  8  9 14 45  0.0000000  0  8G31G06G13G03G23G32G16G20
 127021546.616 6  98977853.762 6  24171404.383                    24171411.648
 120460526.784 7  93865258.06644  22922844.445                    22922853.688
 119853056.773 7  93392121.57744  22807300.953                    22807308.820
 119562568.540 7  93165820.37744  22752032.414                    22752042.383
 110388517.034 8  86017015.14846  21006236.719                    21006242.859
 114678418.072 7  89359834.64645  21822581.414                    21822590.211
 106167407.703 8  82727848.40246  20202985.891                    20202993.266
 111899991.316 8  87194815.26046  21293862.094                    21293869.918
 11  8  9 14 45 30.0000000  0  8G31G06G13G03G23G32G16G20
 127089775.690 6  99031019.244 6  24184387.273                    24184395.484
 120398532.864 7  93816951.13044  22911047.586                    22911057.043
 119767152.560 7  93325183.30344  22790952.672                    22790962.633
 119474827.014 7  93097450.41344  22735335.875                    22735346.133
 110326269.994 8  85968510.98046  20994391.617                    20994397.754
 114748852.875 8  89414718.87845  21835984.523                    21835993.273
 106172570.883 8  82731871.66946  20203967.984                    20203975.359
 111944332.979 8  87229367.18046  21302300.008                    21302308.488
 11  8  9 14 46  0.0000000  0  8G31G06G13G03G23G32G16G20
 127157954.211 6  99084145.266 6  24197360.945                    24197369.914
 120336813.303 7  93768857.99744  22899302.258                    22899312.219
 119681292.936 7  93258279.74444  22774614.844                    22774624.008
 119387248.288 7  93029207.29144  22718669.422                    22718680.023
 110264255.509 8  85920188.02746  20982590.375                    20982596.758
 114819640.450 8  89469877.98845  21849455.273                    21849463.965
 106178331.918 8  82736360.79846  20205064.617                    20205071.773
 111989165.573 8  87264301.64346  21310830.891                    21310838.840
 11  8  9 14 46 30.0000000  0  8G31G06G13G03G23G32G16G20
 127226081.788 6  99137231.601 6  24210325.789                    24210332.953
 120275370.547 6  93720980.57144  22887609.992                    22887620.016
 119595479.218 7  93191411.94644  22758284.727                    22758294.324
 119299835.388 7  92961093.37145  22702035.680                    22702046.777
 110202475.635 8  85872047.87446  20970834.445                    20970840.828
 114890777.936 8  89525309.74045  21862992.641                    21863001.617
 106184689.082 8  82741314.43547  20206274.336                    20206281.496
 112034486.736 8  87299616.81346  21319455.602                    21319464.406
 11  8  9 14 47  0.0000000  0  8G31G06G13G03G23G32G16G20
 127294158.473 7  99190278.284 6  24223280.297                    24223288.273
 120214207.606 6  93673321.15044  22875970.766                    22875980.637
 119509713.202 7  93124581.30744  22741964.258                    22741973.219
 119212591.446 7  92893111.10444  22685433.820                    22685444.211
 110140932.742 8  85824092.39146  20959123.016                    20959128.781
 114962263.371 8  89581012.63845  21876595.664                    21876604.387
 106191641.756 8  82746732.10246  20207597.375                    20207604.445
 112080294.729 8  87335311.33845  21328172.234                    21328181.008
 11  8  9 14 47 30.0000000  0  8G31G06G13G03G23G32G16G20
 127362184.224 6  99243285.315 6  24236224.125                    24236233.773
 120153327.712 7  93625882.31844  22864386.258                    22864395.992
 119423996.878 7  93057789.37844  22725652.383                    22725661.410
 119125520.144 6  92825263.38044  22668864.648                    22668874.297
 110079629.285 8  85776323.47246  20947457.367                    20947463.359
 115034094.657 8  89636985.02745  21890264.914                    21890273.301
 106199189.519 8  82752613.48746  20209033.781                    20209040.992
 112126587.683 8  87371383.74245  21336981.523                    21336989.887
 11  8  9 14 48  0.0000000  0  8G31G06G13G03G23G32G16G20
 127430158.808 5  99296252.496 6  24249156.242                    24249169.938
 120092733.757 7  93578666.30644  22852855.500                    22852864.781
 119338331.895 7  92991037.49144  22709351.102                    22709360.207
 119038624.700 6  92757552.71544  22652329.070                    22652338.598
 110018567.404 8  85728742.79546  20935837.328                    20935843.180
 115106269.430 8  89693225.07345  21903999.055                    21904008.156
 106207331.129 8  82758957.59246  20210582.742                    20210590.270
 112173363.404 8  87407832.32346  21345882.813                    21345891.828
 11  8  9 14 48 30.0000000  0  8G31G06G13G03G23G32G16G20
 127498082.691 6  99349180.191 6  24262083.742                    24262094.645
 120032428.572 7  93531675.33144  22841380.281                    22841388.867
 119252719.795 7  92924326.82144  22693059.398                    22693069.359
 118951908.635 7  92689981.80644  22635827.766                    22635837.613
 109957749.401 8  85681352.17346  20924263.969                    20924270.766
 115178785.281 8  89749730.90745  21917798.055                    21917807.672
 106216065.541 8  82765763.61446  20212244.961                    20212252.059
 112220619.686 8  87444655.40146  21354875.375                    21354884.418
 11  8  9 14 49  0.0000000  0  8G31G06G13G03G23G32G16G20
 127565955.41416  99402068.01216  24274999.813                    24275009.461
 119972414.857 7  93484911.45244  22829959.367                    22829968.965
 119167162.460 7  92857658.81444  22676778.867                    22676788.461
 118865374.989 7  92622553.04244  22619361.031                    22619370.910
 109897177.524 8  85634153.32046  20912737.563                    20912743.926
 115251640.013 8  89806500.80445  21931661.742                    21931671.410
 106225391.809 8  82773030.83646  20214019.672                    20214026.875
 112268354.780 8  87481851.53146  21363959.563                    21363968.438
 11  8  9 14 49 30.0000000  0  8G31G06G13G03G23G32G16G20
 127633777.252 6  99454916.205 6  24287906.695                    24287915.781
 119912695.527 7  93438376.99144  22818594.648                    22818605.449
 119081661.594 7  92791034.82545  22660508.313                    22660517.848
 118779027.225 7  92555269.09444  22602929.820                    22602938.855
 109836854.015 8  85587148.00246  20901258.617                    20901264.922
 115324831.182 8  89863532.84845  21945589.992                    21945599.570
 106235308.944 8  82780758.48346  20215906.773                    20215914.031
 112316566.258 8  87519418.89746  21373133.875                    21373142.238
 11  8  9 14 50  0.0000000  0  8G31G06G13G03G23G32G16G20
 127701548.078 6  99507724.565 6  24300803.047                    24300811.684
 119853273.314 7  93392074.01144  22807287.945                    22807297.598
 118996218.670 7  92724455.92844  22644249.367                    22644258.270
 118692868.224 7  92488132.23644  22586534.227                    22586543.254
 109776780.848 8  85540337.74846  20889827.109                    20889833.016
 115398356.208 8  89920825.03146  21959581.773                    21959590.984
 106245815.618 8  82788945.49246  20217906.469                    20217913.488
 112365251.628 8  87557355.51745  21382398.586                    21382405.883
 11  8  9 14 50 30.0000000  0  8G31G06G13G03G23G32G16G20
 127769267.881 6  99560493.143 6  24313690.234                    24313699.398
 119794151.241 7  93346004.90744  22796036.586                    22796046.797
 118910835.696 7  92657923.81145  22628001.500                    22628010.055
 118606901.420 7  92421145.15144  22570174.703                    22570184.898
 109716960.438 8  85493724.45346  20878443.586                    20878449.992
 115472212.887 7  89978375.63745  21973635.688                    21973645.426
 106256911.123 8  82797591.33946  20220017.281                    20220024.445
 112414409.215 8  87595660.11945  21391752.477                    21391760.969
 11  8  9 14 51  0.0000000  0  8G31G06G13G03G23G32G16G20
 127836936.327 6  99613221.751 6  24326567.742                    24326576.848
 119735332.018 7  93300171.78944  22784843.297                    22784853.395
 118825514.205 7  92591439.57644  22611765.180                    22611773.863
 118521130.326 7  92354310.56244  22553853.195                    22553862.703
 109657394.904 8  85447309.76946  20867108.156                    20867114.578
 115546398.644 7  90036182.68745  21987753.156                    21987762.230
 106268594.079 8  82806694.95746  20222240.844                    20222248.070
 112464036.479 8  87634330.68246  21401196.914                    21401204.180
 11  8  9 14 51 30.0000000  0  8G31G06G13G03G23G32G16G20
 127904553.553 7  99665910.432 6  24339434.641                    24339444.367
 119676818.183 7  93254576.61844  22773708.461                    22773718.730
 118740256.167 7  92525004.74044  22595541.328                    22595548.805
 118435558.048 7  92287630.88844  22537569.047                    22537578.797
 109598086.623 8  85401095.51446  20855822.609                    20855828.734
 115620910.997 8  90094244.21945  22001932.297                    22001940.719
 106280863.405 8  82816255.47546  20224575.734                    20224582.813
 112514131.147 8  87673365.46745  21410729.016                    21410737.055
 11  8  9 14 52  0.0000000  0  8G31G06G13G03G23G32G16G20
 127972119.907 6  99718559.496 6  24352292.063                    24352300.523
 119618613.192 7  93209222.12044  22762633.242                    22762642.590
 118655063.410 7  92458620.76544  22579329.617                    22579337.309
 118350188.010 7  92221108.85044  22521323.383                    22521333.238
 109539038.235 8  85355083.81446  20844586.047                    20844592.375
 115695748.129 8  90152558.82745  22016173.531                    22016182.176
 106293718.154 8  82826272.15846  20227021.555                    20227028.613
 112564691.609 8  87712763.19246  21420350.688                    21420358.473
 11  8  9 14 52 30.0000000  0  8G31G06G13G03G23G32G16G20
 128039635.248 6  99771168.773 6  24365140.102                    24365147.793
 119560719.786 7  93164110.41344  22751616.406                    22751626.332
 118569937.765 7  92392289.14144  22563130.578                    22563138.867
 118265023.628 7  92154747.04044  22505117.844                    22505127.301
 109480251.721 8  85309276.14346  20833399.109                    20833405.035
 115770907.341 7  90211124.41645  22030475.523                    22030484.398
 106307157.014 8  82836744.00646  20229579.133                    20229586.352
 112615715.434 8  87752521.97746  21430060.250                    21430068.582
 11  8  9 14 53  0.0000000  0  8G31G06G13G03G23G32G16G20
 128107100.002 7  99823738.675 6  24377977.992                    24377987.555
 119503140.734 7  93119243.71344  22740659.664                    22740668.301
 118484880.988 7  92326011.14244  22546944.258                    22546952.953
 118180068.023 7  92088547.95244  22488950.680                    22488960.098
 109421729.731 8  85263674.59746  20822263.070                    20822268.867
 115846386.341 7  90269939.18245  22044838.875                    22044847.176
 106321178.908 8  82847670.16546  20232247.109                    20232254.871
 112667200.356 8  87792640.06245  21439857.781                    21439865.961
 11  8  9 14 53 30.0000000  0  8G31G06G13G03G23G32G16G20
 128174513.774 6  99876268.824 6  24390805.328                    24390815.441
 119445879.086 7  93074624.32544  22729762.578                    22729771.633
 118399895.095 7  92259788.43244  22530771.844                    22530780.805
 118095324.359 7  92022513.96644  22472824.820                    22472834.180
 109363474.181 7  85218280.67346  20811177.148                    20811182.879
 115922182.587 8  90329001.16545  22059262.336                    22059270.859
 106335782.409 8  82859049.50946  20235026.156                    20235033.121
 112719144.092 8  87833115.67445  21449742.406                    21449750.109
 11  8  9 14 54  0.0000000  0  8G31G06G13G03G23G32G16G20
 128241876.391 6  99928759.092 5  24403624.484                    24403633.258
 119388936.887 7  93030253.81244  22718926.875                    22718935.730
 118314981.943 7  92193622.34744  22514613.898                    22514622.516
 118010795.808 7  91956647.59644  22456740.289                    22456747.859
 109305486.825 7  85173095.72845  20800142.305                    20800148.383
 115998293.450 8  90388308.30545  22073745.688                    22073754.316
 106350966.136 8  82870880.99046  20237915.633                    20237922.820
 112771544.029 8  87873946.76545  21459713.766                    21459721.938
 11  8  9 14 54 30.0000000  0  9G31G06G13G03G07G23G32G16G20
 128309188.355 6  99981209.911 6  24416433.297                    24416442.508
 119332317.598 7  92986134.91244  22708152.133                    22708162.313
 118230143.151 7  92127514.24044  22498469.625                    22498479.145
 117926486.469 7  91890952.06944  22440695.883                    22440704.848
 130398868.56416 101609544.06316  24814083.039                    24814095.910
 109247771.067 8  85128122.41946  20789159.523                    20789165.824
 116074716.923 8  90447859.03845  22088288.602                    22088298.301
 106366729.324 8  82883163.99046  20240915.195                    20240922.438
 112824398.505 8  87915132.05146  21469771.594                    21469779.512
 11  8  9 14 55  0.0000000  0  9G31G06G13G03G07G23G32G16G20
 128376449.305 6 100033620.976 6  24429232.703                    24429242.387
 119276023.133 7  92942269.15144  22697439.656                    22697450.023
 118145380.193 7  92061465.20544  22482340.047                    22482348.492
 117842398.835 7  91825429.30945  22424694.711                    22424704.254
 130333298.184 6 101558450.322 6  24801607.180                    24801617.891
 109190328.387 8  85083361.91846  20778228.672                    20778234.707
 116151449.879 8  90507650.90245  22102890.648                    22102899.879
 106383070.000 8  82895896.99046  20244024.883                    20244031.754
 112877704.433 8  87956669.11246  21479915.367                    21479923.359
 11  8  9 14 55 30.0000000  0  9G31G06G13G03G07G23G32G16G20
 128443659.153 6 100085992.207 6  24442022.352                    24442032.613
 119220056.642 7  92898658.92545  22686790.430                    22686800.242
 118060695.091 7  91995476.84044  22466224.828                    22466233.797
 117758536.760 7  91760082.28944  22408735.813                    22408745.359
 130267796.938 6 101507410.467 6  24789142.398                    24789153.863
 109133160.990 8  85038815.90146  20767349.773                    20767355.875
 116228490.086 8  90567682.17945  22117551.148                    22117561.273
 106399987.085 8  82909079.13546  20247243.438                    20247250.453
 112931459.926 8  87998556.48246  21490144.359                    21490152.977
 11  8  9 14 56  0.0000000  0  9G31G06G13G03G07G23G32G16G20
 128510818.388 6 100138324.014 6  24454803.180                    24454812.957
 119164421.370 7  92855306.80244  22676202.727                    22676212.598
 117976090.059 7  91929550.89444  22450124.984                    22450133.621
 117674902.889 7  91694913.07544  22392820.750                    22392830.305
 130202364.43014 101456424.12216  24776688.570                    24776702.254
 109076271.477 8  84994486.41646  20756524.719                    20756530.523
 116305835.208 8  90627951.07745  22132269.211                    22132279.184
 106417479.206 8  82922709.33846  20250572.469                    20250579.738
 112985662.625 8  88040792.31646  21500458.445                    21500467.973
 11  8  9 14 56 30.0000000  0  9G31G06G13G03G07G23G32G16G20
 128577927.276 6 100190616.602 6  24467574.164                    24467582.375
 119109120.094 7  92812214.89045  22665679.594                    22665689.113
 117891567.168 7  91863688.92845  22434040.602                    22434049.922
 117591501.408 7  91629924.95645  22376949.789                    22376959.816
 130137000.58815 101405492.38816  24764251.422
 109019662.401 8  84950375.45346  20745752.391                    20745758.059
 116383483.056 8  90688455.85245  22147045.195                    22147055.020
 106435545.577 8  82936787.03646  20254010.281                    20254017.434
 113040310.320 8  88083374.92146  21510858.492                    21510866.660
 11  8  9 14 57  0.0000000  0  9G31G06G13G03G07G23G32G16G20
 128644985.625 6 100242869.780 6  24480334.656                    24480344.023
 119054154.959 7  92769384.94545  22655220.461                    22655229.840
 117807128.247 7  91797892.39444  22417972.930                    22417981.367
 117508334.872 7  91565119.91045  22361124.133                    22361133.320
 130071704.71315 101354612.44016  24751826.148                    24751836.535
 108963335.659 8  84906484.47846  20735033.508                    20735038.902
 116461430.743 8  90749194.27345  22161878.234                    22161887.754
 106454184.005 8  82951310.48846  20257557.477                    20257564.223
 113095400.301 8  88126302.14046  21521341.680                    21521349.359
 11  8  9 14 57 30.0000000  0  9G31G06G13G03G07G23G32G16G20
 128711993.392 6 100295083.583 6  24493085.906                    24493094.676
 118999529.138 7  92726819.39745  22644825.188                    22644833.980
 117722775.066 7  91732162.66344  22401920.836                    22401929.512
 117425406.785 7  91500500.65144  22345343.180                    22345352.117
 130006476.24716 101303785.10215  24739415.289                    24739423.953
 108907293.706 8  84862815.43646  20724369.023                    20724374.719
 116539675.942 8  90810164.50845  22176767.742                    22176777.348
 106473393.360 8  82966278.82146  20261212.813                    20261219.770
 113150929.853 8  88169571.88546  21531908.648                    21531916.781
 11  8  9 14 58  0.0000000  0  9G31G06G13G03G07G23G32G16G20
 128778950.922 6 100347258.241 6  24505827.344                    24505836.898
 118945245.136 7  92684520.17345  22634495.109                    22634504.496
 117638509.176 7  91666500.95844  22385885.266                    22385894.273
 117342720.996 6  91436070.20244  22329608.664                    22329617.129
 129941315.140 6 101253010.225 5  24727015.477                    24727024.906
 108851538.839 8  84819370.08846  20713759.211                    20713765.289
 116618216.169 7  90871364.65145  22191713.539                    22191723.145
 106493172.424 8  82981691.06846  20264976.344                    20264983.496
 113206897.387 8  88213182.92346  21542558.836                    21542567.195
 11  8  9 14 58 30.0000000  0 10G31G06G19G13G03G07G23G32G16G20
 128845858.475 6 100399393.960 6  24518558.922                    24518569.199
 118891306.209 7  92642489.90245  22624231.172                    22624240.414
 129112147.61415 100606950.23152  24569237.102                    24569245.406
 117554333.145 7  91600909.30444  22369866.695                    22369875.363
 117260280.524 7  91371830.90044  22313921.109                    22313929.414
 129876221.187 6 101202287.718 6  24714628.234                    24714638.578
 108796073.560 8  84776150.40346  20703204.273                    20703210.500
 116697049.280 8  90932793.00845  22206714.266                    22206724.660
 106513520.465 8  82997546.68846  20268848.117                    20268855.914
 113263300.602 8  88257133.45246  21553292.227                    21553300.281
 11  8  9 14 59  0.0000000  0 10G31G06G19G13G03G07G23G32G16G20
 128912716.189 6 100451490.816 6  24531282.086                    24531289.941
 118837714.790 7  92600730.38644  22614032.695                    22614041.473
 129020661.631 5 100535662.53342  24551828.078                    24551836.656
 117470248.844 7  91535389.09344  22353866.227                    22353874.031
 117178088.598 7  91307785.29344  22298280.531                    22298289.004
 129811193.854 6 101151617.110 6  24702253.484                    24702263.398
 108740900.585 8  84733158.48446  20692705.211                    20692711.078
 116776172.609 7  90994447.48545  22221771.953                    22221780.617
 106534435.174 7  83013843.86046  20272828.422                    20272835.996
 113320137.003 7  88301421.52145  21564107.594                    21564115.715
 11  8  9 14 59 30.0000000  0 10G31G06G19G13G03G07G23G32G16G20
 128979524.262 6 100503549.016 6  24543994.383                    24544003.277
 118784473.671 7  92559243.82444  22603900.250                    22603909.758
 128929064.028 6 100464287.83343  24534397.523                    24534407.309
 117386258.339 7  91469942.01744  22337883.320                    22337891.676
 117096148.418 7  91243935.83744  22282688.164                    22282695.977
 129746232.867 6 101100998.205 6  24689891.102                    24689902.930
 108686021.940 8  84690395.90246  20682262.375                    20682268.641
 116855583.690 7  91056326.23945  22236882.641                    22236892.063
 106555915.207 8  83030581.53446  20276916.117                    20276923.781
 113377403.877 7  88346045.02845  21575004.938                    21575013.746
 11  8  9 15  0  0.0000000  0 10G31G06G19G13G03G07G23G32G16G20
 129046282.516 6 100555568.430 6  24556697.852                    24556707.609
 118731585.451 7  92518032.27844  22593836.797                    22593846.086
 128837357.195 6 100392828.07743  24516945.797                    24516956.020
 117302363.462 7  91404569.39344  22321918.313                    22321927.262
 117014463.268 7  91180285.12644  22267143.609                    22267152.148
 129681337.667 5 101050430.498 6  24677542.219                    24677554.441
 108631439.764 8  84647864.34146  20671875.578                    20671881.707
 116935279.997 8  91118427.22945  22252048.844                    22252057.637
 106577958.923 8  83047758.46546  20281110.898                    20281118.578
 113435098.717 7  88391002.02245  21585983.594                    21585991.859
 11  8  9 15  0 30.0000000  0 10G31G06G19G13G03G07G23G32G16G20
 129112991.454 6 100607549.297 6  24569393.375                    24569402.918
 118679052.906 7  92477097.84744  22583839.875                    22583849.102
 128745544.111 6 100321285.49543  24499475.852                    24499483.148
 117218566.255 7  91339272.88344  22305972.688                    22305980.125
 116933036.844 7  91116836.01945  22251648.570                    22251657.277
 129616507.964 5 100999913.915 5  24665206.375                    24665217.668
 108577156.397 8  84605565.61446  20661545.969                    20661551.770
 117015258.958 8  91180748.46745  22267268.617                    22267277.266
 106600565.339 8  83065373.85846  20285412.680                    20285420.523
 113493219.373 7  88436290.79745  21597044.148                    21597052.043
 11  8  9 15  1  0.0000000  0 10G31G06G19G13G03G07G23G32G16G20
 129179650.924 6 100659491.662 6  24582077.703                    24582087.516
 118626878.616 6  92436442.57344  22573911.547                    22573920.805
 128653626.999 6 100249661.84442  24481983.008                    24481991.164
 117134868.403 7  91274053.78144  22290046.031                    22290053.977
 116851872.564 7  91053591.15545  22236203.672                    22236212.953
 129551743.037 6 100949447.764 5  24652881.844                    24652891.871
 108523174.191 8  84563501.56046  20651273.555                    20651279.168
 117095517.845 7  91243287.81245  22282540.727                    22282550.242
 106623732.418 8  83083426.10946  20289821.383                    20289828.605
 113551763.305 8  88481909.41446  21608184.703                    21608193.238
 11  8  9 15  1 30.0000000  0 10G31G06G19G13G03G07G23G32G16G20
 129246260.959 6 100711395.581 5  24594754.625                    24594761.043
 118575065.000 7  92396068.34245  22564052.227                    22564061.734
 128561608.699 6 100177959.32443  24464472.375                    24464480.793
 117051271.515 7  91208913.40144  22274136.836                    22274146.277
 116770973.172 7  90990552.71045  22220808.680                    22220818.133
 129487042.461 6 100899031.735 5  24640570.352                    24640580.164
 108469495.039 8  84521673.65246  20641059.070                    20641064.793
 117176054.070 8  91306043.27145  22297866.539                    22297876.184
 106647457.965 8  83101913.54746  20294335.969                    20294343.520
 113610727.502 8  88527855.51445  21619405.461                    21619414.008
 11  8  9 15  2  0.0000000  0 10G31G06G19G13G03G07G23G32G16G20
 129312821.490 6 100763260.854 5  24607420.109                    24607428.316
 118523614.731 7  92355977.27145  22554261.164                    22554271.117
 128469492.087 5 100106180.18442  24446942.945                    24446951.637
 116967777.957 7  91143853.50844  22258249.461                    22258257.773
 116690341.774 7  90927723.07645  22205464.250                    22205474.074
 129422405.737 6 100848665.473 5  24628270.328                    24628280.645
 108416121.544 8  84480083.92346  20630901.719                    20630907.832
 117256865.148 8  91369012.90845  22313244.836                    22313253.387
 106671740.907 8  83120835.32446  20298956.922                    20298964.836
 113670109.486 8  88574127.16645  21630705.281                    21630713.914
 11  8  9 15  2 30.0000000  0 10G31G06G19G13G03G07G23G32G16G20
 129379332.844 6 100815087.819 6  24620077.094                    24620085.484
 118472530.443 7  92316171.34445  22544540.734                    22544549.797
 128377279.175 5 100034325.98842  24429395.430                    24429404.109
 116884389.786 7  91078875.75645  22242381.203                    22242389.168
 116609981.580 7  90865104.75145  22190172.781                    22190181.906
 129357832.600 7 100798348.725 5  24615983.289                    24615992.188
 108363055.455 8  84438733.74046  20620803.789                    20620809.887
 117337948.210 8  91432194.46045  22328674.070                    22328683.402
 106696579.361 8  83140189.96546  20303682.992                    20303690.887
 113729906.635 8  88620722.31545  21642083.852                    21642092.871
 11  8  9 15  3  0.0000000  0 10G31G06G19G13G03G07G23G32G16G20
 129445795.325 6 100866876.827 6  24632723.211                    24632733.238
 118421814.807 7  92276652.68845  22534889.742                    22534899.496
 128284973.545 5  99962399.52752  24411830.117                    24411839.211
 116801109.246 7  91013981.82145  22226533.422                    22226541.070
 116529896.329 7  90802700.66845  22174932.875                    22174942.301
 129293322.742 7 100748081.367 5  24603706.398                    24603716.117
 108310299.872 8  84397625.49046  20610764.875                    20610771.238
 117419301.060 7  91495586.24045  22344155.148                    22344164.793
 106721972.459 8  83159976.78246  20308516.148                    20308523.160
 113790117.160 7  88667639.56945  21653542.289                    21653550.328
 11  8  9 15  3 30.0000000  0 10G31G06G19G13G03G07G23G32G16G20
 129512209.315 6 100918627.925 6  24645361.297                    24645372.125
 118371470.698 7  92237423.54545  22525309.508                    22525319.039
 128192577.79515  99890402.82852  24394245.594                    24394258.090
 116717938.302 7  90949173.33445  22210706.680                    22210714.961
 116450089.293 7  90740513.43045  22159746.008                    22159755.332
 129228875.688 6 100697862.965 6  24591441.367                    24591452.848
 108257856.891 8  84356760.83846  20600785.148                    20600791.320
 117500921.257 7  91559186.35645  22359686.844                    22359696.234
 106747917.993 8  83180194.08046  20313453.344                    20313460.414
 113850738.208 8  88714876.71845  21665078.461                    21665085.930
 11  8  9 15  4  0.0000000  0 10G31G06G19G13G03G07G23G32G16G20
 129578575.116 5 100970341.494 6  24657989.883                    24658000.410
 118321500.922 7  92198486.09245  22515799.695                    22515810.227
 128100094.750 5  99818338.19643  24376650.953                    24376659.324
 116634879.049 7  90884451.87745  22194900.883                    22194909.203
 116370564.171 7  90678545.84045  22144613.828                    22144622.301
 129164491.550 6 100647693.487 6  24579189.703                    24579201.527
 108205729.225 8  84316141.88946  20590865.977                    20590871.461
 117582806.472 7  91622992.96345  22375269.102                    22375278.676
 106774414.926 7  83200841.03446  20318495.188                    20318502.758
 113911767.583 7  88762432.04945  21676691.609                    21676699.215
 11  8  9 15  4 30.0000000  0 10G31G06G19G13G03G07G23G32G16G20
 129644892.759 5 101022017.472 6  24670610.328                    24670620.023
 118271907.780 7  92159842.09245  22506362.672                    22506372.711
 128007527.09715  99746207.52452  24359034.359                    24359043.324
 116551933.503 7  90819819.00145  22179116.789                    22179125.355
 116291323.785 7  90616800.14545  22129534.133                    22129543.402
 129100169.703 6 100597572.697 6  24566948.758                    24566961.668
 108153919.312 8  84275770.54246  20581006.719                    20581012.129
 117664953.989 7  91687003.98945  22390901.133                    22390910.422
 106801461.259 8  83221916.08946  20323641.828                    20323649.055
 113973202.457 8  88810303.34345  21688382.023                    21688389.844
 11  8  9 15  5  0.0000000  0 10G31G06G19G13G03G07G23G32G16G20
 129711162.204 5 101073655.883 6  24683219.930                    24683231.559
 118222693.972 7  92121493.67644  22496997.547                    22497007.340
 127914877.934 6  99674013.43343  24341403.734                    24341412.938
 116469103.776 7  90755276.38645  22163355.125                    22163363.375
 116212371.770 7  90555279.15345  22114510.086                    22114519.473
 129035909.165 6 100547499.629 6  24554719.969                    24554732.910
 108102428.766 8  84235648.03246  20571208.320                    20571213.887
 117747360.828 7  91751217.09745  22406582.461                    22406592.695
 106829054.848 7  83243417.57746  20328892.969                    20328900.445
 114035040.145 7  88858488.52545  21700149.547                    21700156.941
 11  8  9 15  5 30.0000000  0 10G31G06G19G13G03G07G23G32G16G20
 129777383.757 6 101125257.022 6  24695822.352                    24695832.578
 118173862.346 6  92083443.05544  22487704.984                    22487714.453
 127822149.528 6  99601757.64043  24323758.891                    24323767.348
 116386391.905 7  90690825.61645  22147615.211                    22147623.641
 116133711.204 7  90493985.25945  22099541.516                    22099550.094
 128971710.040 6 100497474.414 6  24542504.102                    24542515.980
 108051260.261 8  84195776.48446  20561471.023                    20561476.957
 117830024.860 7  91815630.58245  22422313.297                    22422323.582
 106857194.323 8  83265344.42446  20334247.641                    20334255.184
 114097278.112 7  88906985.60745  21711992.789                    21712000.637
 11  8  9 15  6  0.0000000  0 10G31G06G19G13G03G07G23G32G16G20
 129843557.943 6 101176821.190 6  24708415.188                    24708425.379
 118125414.591 7  92045691.61344  22478485.859                    22478495.234
 127729345.015 6  99529442.51043  24306097.742                    24306107.434
 116303799.740 7  90626468.10145  22131898.461                    22131906.844
 116055345.188 7  90432920.86444  22084628.523                    22084637.859
 128907571.736 6 100447496.573 6  24530300.438                    24530310.883
 108000416.062 8  84156157.64246  20551796.000                    20551801.621
 117912943.037 8  91880242.08645  22438092.016                    22438102.094
 106885877.642 8  83287695.05746  20339705.969                    20339713.512
 114159913.440 7  88955792.34145  21723911.656                    21723919.715
 11  8  9 15  6 30.0000000  0 10G31G06G19G13G03G07G23G32G16G20
 129909684.114 6 101228348.032 6  24721000.180                    24721008.789
 118077353.730 7  92008241.62144  22469340.328                    22469349.133
 127636466.867 6  99457069.96043  24288423.078                    24288432.965
 116221329.188 7  90562205.35345  22116204.953                    22116213.004
 115977276.851 7  90372088.42745  22069772.688                    22069782.215
 128843493.721 6 100397565.720 6  24518105.195                    24518116.176
 107949897.947 8  84116792.87146  20542182.703                    20542188.348
 117996112.772 7  91945049.62445  22453918.914                    22453928.594
 106915102.984 8  83310468.05346  20345267.484                    20345274.895
 114222943.334 7  89004906.54345  21735905.508                    21735913.984
 11  8  9 15  7  0.0000000  0 10G31G06G19G13G03G07G23G32G16G20
 129975762.943 7 101279837.956 5  24733573.867                    24733582.953
 118029682.164 7  91971094.98945  22460269.125                    22460278.258
 127543517.864 6  99384642.16643  24270736.797                    24270745.332
 116138982.462 7  90498039.06745  22100534.594                    22100543.078
 115899509.405 7  90311490.43645  22054973.648                    22054982.980
 128779475.362 6 100347681.308 6  24505923.563                    24505934.176
 107899708.339 8  84077684.08746  20532631.734                    20532637.484
 118079531.394 7  92010051.09745  22469793.055                    22469802.152
 106944868.467 8  83333661.91846  20350931.445                    20350938.828
 114286365.354 7  89054326.26745  21747974.336                    21747983.797
 11  8  9 15  7 30.0000000  0 10G31G06G19G13G03G07G23G32G16G20
 130041794.416 6 101331290.994 6  24746139.391                    24746149.395
 117982401.639 7  91934253.04845  22451271.852                    22451281.156
 127450500.835 6  99312161.43843  24253035.914                    24253044.684
 116056761.648 7  90433970.92444  22084888.125                    22084897.000
 115822046.233 7  90251129.56245  22040232.766                    22040242.570
 128715516.550 6 100297843.333 6  24493751.766                    24493762.477
 107849849.679 8  84038833.19346  20523144.008                    20523150.313
 118163196.269 7  92075244.46445  22485713.945                    22485723.535
 106975172.200 8  83357275.21346  20356698.242                    20356705.336
 114350176.775 7  89104049.41545  21760118.000                    21760126.988
 11  8  9 15  8  0.0000000  0 10G31G06G19G13G03G07G23G32G16G20
 130107779.037 7 101382707.494 6  24758696.109                    24758705.828
 117935515.816 7  91897718.67245  22442349.508                    22442358.957
 127357418.736 6  99239630.00743  24235322.211                    24235330.914
 115974668.661 7  90370002.38945  22069266.172                    22069275.438
 115744890.516 7  90191008.24645  22025550.766                    22025560.949
 128651616.975 6 100248051.483 6  24481592.422                    24481603.480
 107800324.326 8  84000242.00746  20513719.219                    20513725.910
 118247105.045 7  92140627.88145  22501681.453                    22501690.645
 107006012.431 8  83381306.55846  20362566.852                    20362573.934
 114414375.131 8  89154074.07745  21772334.586                    21772342.398
 11  8  9 15  8 30.0000000  0 10G31G06G19G13G03G07G23G32G16G20
 130173716.787 7 101434087.516 6  24771244.289                    24771253.359
 117889026.668 7  91861493.40045  22433503.453                    22433512.777
 127264274.503 6  99167050.12543  24217596.852                    24217606.020
 115892706.174 7  90306135.55445  22053669.531                    22053678.379
 115668045.570 7  90131129.09245  22010928.289                    22010938.164
 128587776.012 6 100198305.327 6  24469444.578                    24469455.039
 107751134.668 8  83961912.40246  20504359.148                    20504365.637
 118331254.889 7  92206199.15045  22517695.031                    22517703.852
 107037387.439 8  83405754.60246  20368537.492                    20368544.988
 114478957.727 8  89204398.11345  21784624.727                    21784632.215
 11  8  9 15  9  0.0000000  0 10G31G06G19G13G03G07G23G32G16G20
 130239608.498 6 101485431.628 6  24783782.305                    24783792.543
 117842937.201 7  91825579.55945  22424732.391                    22424741.762
 127171071.002 6  99094424.08643  24199860.625                    24199869.492
 115810876.200 7  90242371.92845  22038098.273                    22038106.012
 115591515.104 7  90071495.03445  21996365.359                    21996374.402
 128523993.570 7 100148604.797 6  24457307.336                    24457317.137
 107702283.471 8  83923846.53946  20495063.055                    20495069.027
 118415643.760 7  92271956.68745  22533753.445                    22533762.781
 107069295.955 8  83430618.38846  20374609.508                    20374616.516
 114543922.394 7  89255019.89545  21796986.898                    21796994.695
 11  8  9 15  9 30.0000000  0 10G31G06G19G13G03G07G23G32G16G20
 130305454.019 6 101536739.790 5  24796311.406                    24796322.020
 117797249.792 7  91789979.00845  22416037.953                    22416047.684
 127077811.224 6  99021754.16142  24182114.766                    24182123.527
 115729180.936 7  90178713.32645  22022552.094                    22022560.637
 115515302.231 7  90012108.42245  21981862.266                    21981871.195
 128460268.779 7 100098949.232 6  24445180.586                    24445190.973
 107653772.674 8  83886045.91646  20485831.859                    20485837.426
 118500268.703 7  92337898.16445  22549856.711                    22549866.723
 107101735.677 8  83455896.08246  20380782.516                    20380789.734
 114609266.119 7  89305937.03945  21809421.016                    21809428.984
 11  8  9 15 10  0.0000000  0 10G31G06G19G13G03G07G23G32G16G20
 130371253.676 6 101588012.203 5  24808832.945                    24808843.113
 117751966.493 7  91754693.34744  22407421.047                    22407429.965
 126984498.112 6  98949042.69642  24164358.195                    24164365.629
 115647622.254 7  90115161.12645  22007031.539                    22007040.039
 115439410.178 7  89952971.78545  21967419.789                    21967429.145
 128396601.747 7 100049338.658 6  24433064.563                    24433075.531
 107605604.484 8  83848512.26246  20476665.578                    20476671.820
 118585127.046 7  92404021.50545  22566004.789                    22566014.688
 107134704.688 8  83481586.21646  20387056.305                    20387063.375
 114674986.229 7  89357147.47345  21821927.016                    21821935.617
 11  8  9 15 10 30.0000000  0 10G31G06G19G13G03G07G23G32G16G20
 130437007.559 6 101639248.954 6  24821345.578                    24821355.656
 117707089.831 7  91719724.54044  22398881.211                    22398890.730
 126891134.160 6  98876291.61343  24146590.789                    24146599.781
 115566202.448 7  90051717.16345  21991537.883                    21991546.922
 115363841.809 7  89894087.38045  21953039.344                    21953049.309
 128332991.874 7  99999772.602 6  24420960.336                    24420970.270
 107557780.969 8  83811247.18446  20467565.117                    20467571.297
 118670216.002 7  92470324.53844  22582196.742                    22582206.430
 107168200.674 8  83507686.97246  20393430.070                    20393437.531
 114741079.566 7  89408648.74445  21834504.250                    21834512.750
 11  8  9 15 11  0.0000000  0 10G31G06G19G13G03G07G23G32G16G20
 130502716.337 5 101690450.515 6  24833846.992                    24833860.934
 117662622.385 7  91685074.61045  22390419.289                    22390428.375
 126797722.394 6  98803503.31843  24128815.945                    24128825.090
 115484923.662 7  89988383.06045  21976070.656                    21976079.598
 115288600.589 7  89835457.89345  21938721.148                    21938731.160
 128269438.777 7  99950250.827 6  24408865.805                    24408876.867
 107510304.903 8  83774252.84546  20458530.977                    20458536.922
 118755533.208 7  92536805.45545  22598431.852                    22598441.934
 107202222.118 8  83534197.18946  20399904.313                    20399911.898
 114807544.098 7  89460439.25145  21847152.008                    21847160.305
 11  8  9 15 11 30.0000000  0 10G31G06G19G13G03G07G23G32G16G20
 130568379.77515 101741616.66816  24846344.828                    24846356.027
 117618566.262 7  91650745.21145  22382036.258                    22382044.758
 126704265.769 6  98730679.94943  24111032.523                    24111040.645
 115403788.258 7  89925160.68545  21960631.688                    21960640.660
 115213689.463 7  89777085.60245  21924466.234                    21924476.211
 128205941.625 6  99900772.590 6  24396782.203                    24396793.848
 107463178.109 8  83737530.67846  20449563.156                    20449568.840
 118841075.556 7  92603461.78445  22614711.031                    22614719.465
 107236766.714 8  83561115.05646  20406478.133                    20406485.629
 114874376.456 7  89512516.40545  21859870.031                    21859877.977
 11  8  9 15 12  0.0000000  0 10G31G06G19G13G03G07G23G32G16G20
 130633998.433 6 101792748.057 6  24858832.172                    24858841.863
 117574924.285 7  91616738.48245  22373731.781                    22373740.398
 126610767.354 6  98657824.14643  24093239.656                    24093248.324
 115322798.404 7  89862051.73245  21945219.648                    21945228.238
 115139112.169 7  89718973.47245  21910274.258                    21910284.469
 128142500.511 6  99851337.990 6  24384710.547                    24384721.504
 107416403.385 8  83701082.85546  20440661.898                    20440668.168
 118926841.048 7  92670291.97745  22631031.102                    22631041.246
 107271833.259 8  83588439.62846  20413151.211                    20413158.398
 114941574.507 7  89564878.48345  21872657.547                    21872665.383
 11  8  9 15 12 30.0000000  0 10G31G06G19G13G03G07G23G32G16G20
 130699572.243 6 101843844.541 5  24871311.641                    24871320.492
 117531698.256 7  91583055.90145  22365506.039                    22365514.887
 126517229.555 6  98584937.62643  24075438.695                    24075448.129
 115241955.695 7  89799057.42345  21929835.813                    21929844.434
 115064871.281 7  89661123.45545  21896147.195                    21896156.730
 128079114.499 6  99801946.360 6  24372647.859                    24372659.582
 107369982.469 8  83664910.71346  20431828.156                    20431834.598
 119012826.151 7  92737293.30945  22647393.586                    22647402.754
 107307418.607 8  83616168.46346  20419922.781                    20419929.637
 115009134.667 7  89617522.72945  21885513.469                    21885522.652
 11  8  9 15 13  0.0000000  0  9G06G19G13G03G07G23G32G16G20
 117488890.607 7  91549699.35745  22357359.820                    22357368.637
 126423655.565 6  98512022.93343  24057632.977                    24057640.750
 115161262.679 7  89736179.76445  21914480.930                    21914488.879
 114990970.106 7  89603538.15145  21882084.898                    21882094.090
 128015783.116 5  99752597.267 6  24360596.250                    24360606.883
 107323917.909 8  83629016.26846  20423062.742                    20423068.266
 119099028.785 7  92804464.14245  22663797.781                    22663807.539
 107343521.121 8  83644300.29746  20426792.727                    20426799.773
 115077054.360 7  89670447.14345  21898438.328                    21898447.191
 11  8  9 15 13 30.0000000  0  9G06G19G13G03G07G23G32G16G20
 117446504.478 7  91516671.25045  22349293.484                    22349302.387
 126330048.823 6  98439082.68642  24039818.766                    24039827.465
 115080721.930 7  89673420.78145  21899153.938                    21899161.949
 114917412.500 7  89546220.59345  21868087.055                    21868096.797
 127952506.587 5  99703290.990 6  24348555.273                    24348566.230
 107278212.212 8  83593401.44846  20414364.742                    20414370.727
 119185446.637 7  92871802.69745  22680242.664                    22680252.527
 107380139.512 8  83672834.10946  20433760.758                    20433767.902
 115145331.700 7  89723650.21445  21911431.086                    21911439.113
 11  8  9 15 14  0.0000000  0  9G06G19G13G03G07G23G32G16G20
 117404541.572 7  91483972.92845  22341308.438                    22341317.066
 126236411.334 6  98366118.49543  24022001.180                    24022008.707
 115000335.551 7  89610782.07745  21883856.664                    21883864.457
 114844201.132 7  89489172.80145  21854155.852                    21854164.703
 127889284.205 5  99654026.888 6  24336525.172                    24336535.016
 107232867.337 8  83558067.76846  20405735.867                    20405741.816
 119272076.486 7  92939306.41945  22696727.109                    22696737.129
 107417271.005 8  83701767.72546  20440826.945                    20440833.914
 115213963.174 7  89777129.23745  21924491.602                    21924499.508
 11  8  9 15 14 30.0000000  0  9G06G19G13G03G07G23G32G16G20
 117363003.988 7  91451606.02645  22333403.625                    22333412.762
 126142746.780 6  98293133.17743  24004177.297                    24004186.047
 114920105.345 7  89548265.04445  21868589.547                    21868597.352
 114771339.005 8  89432397.14445  21840290.148                    21840299.234
 127826115.418 6  99604804.471 6  24324504.336                    24324514.363
 107187885.373 8  83523016.90046  20397176.242                    20397182.219
 119358915.740 7  93006973.31944  22713252.133                    22713261.547
 107454913.415 8  83731099.48146  20447989.883                    20447997.324
 115282946.138 7  89830882.18145  21937618.234                    21937626.711
 11  8  9 15 15  0.0000000  0  9G06G19G13G03G07G23G32G16G20
 117321894.803 7  91419572.92645  22325580.719                    22325589.680
 126049057.931 6  98220129.00143  23986348.930                    23986357.355
 114840033.959 7  89485871.77745  21853352.805                    21853360.934
 114698829.754 7  89375896.46445  21826491.906                    21826501.617
 127763000.119 6  99555623.770 6  24312493.547                    24312503.898
 107143269.278 8  83488251.11646  20388686.133                    20388692.066
 119445961.923 7  93074801.47744  22729816.266                    22729825.152
 107493065.191 8  83760828.13146  20455249.969                    20455257.449
 115352278.152 7  89884907.09145  21950811.945                    21950820.059
 11  8  9 15 15 30.0000000  0  9G06G19G13G03G07G23G32G16G20
 117281215.529 7  91387874.82945  22317839.617                    22317848.977
 125955347.378 6  98147107.83143  23968516.461                    23968525.262
 114760123.375 7  89423603.81445  21838146.070                    21838154.535
 114626676.366 7  89319673.09045  21812761.266                    21812771.258
 127699937.681 7  99506484.245 6  24300493.586                    24300502.531
 107099020.818 8  83453771.79546  20380266.344                    20380271.898
 119533212.118 7  93142788.59844  22746419.398                    22746429.582
 107531723.920 8  83790951.82046  20462606.430                    20462613.797
 115421955.733 7  89939201.29245  21964071.063                    21964080.297
 11  8  9 15 16  0.0000000  0  9G06G19G13G03G07G23G32G16G20
 117240968.652 7  91356513.66045  22310181.156                    22310190.398
 125861618.307 6  98074072.29843  23950679.500                    23950688.934
 114680375.721 8  89361462.81645  21822970.578                    21822979.395
 114554881.695 7  89263729.23745  21799099.063                    21799108.527
 127636927.623 7  99457385.619 6  24288503.047                    24288513.480
 107055142.158 8  83419580.63846  20371916.281                    20371922.246
 119620663.727 7  93210932.65845  22763061.578                    22763071.387
 107570887.532 8  83821468.91146  20470059.055                    20470066.293
 115491976.310 7  89993762.72245  21977396.109                    21977404.441
 11  8  9 15 16 30.0000000  0  9G06G19G13G03G07G23G32G16G20
 117201156.989 7  91325491.60945  22302605.594                    22302614.473
 125767874.140 6  98001025.00643  23932840.516                    23932850.297
 114600793.803 8  89299450.95945  21807826.211                    21807834.824
 114483449.828 7  89208068.09445  21785505.797                    21785515.469
 127573969.856 7  99408327.647 6  24276523.469                    24276533.441
 107011636.184 8  83385679.90946  20363637.188                    20363643.395
 119708314.495 7  93279231.93145  22779740.117                    22779750.891
 107610554.753 8  83852378.42946  20477607.688                    20477614.836
 115562337.571 7  90048589.62845  21990785.695                    21990793.582
 11  8  9 15 17  0.0000000  0  9G06G19G13G03G07G23G32G16G20
 117161782.290 7  91294810.06245  22295112.852                    22295121.738
 125674117.544 6  97927968.01143  23915000.570                    23915009.227
 114521379.396 7  89237569.62845  21792714.398                    21792722.984
 114412383.581 7  89152691.80645  21771982.961                    21771991.680
 127511063.619 7  99359309.824 6  24264551.680                    24264562.664
 106968504.808 8  83352071.04646  20355430.008                    20355435.645
 119796161.547 7  93347684.11144  22796456.891                    22796468.262
 107650722.502 7  83883677.98146  20485251.078                    20485258.664
 115633036.377 7  90103679.58745  22004238.414                    22004245.938
 11  8  9 15 17 30.0000000  0  9G06G19G13G03G07G23G32G16G20
 117122846.382 7  91264470.42745  22287702.992                    22287712.133
 125580350.989 6  97854903.28143  23897155.938                    23897164.387
 114442135.254 7  89175820.95845  21777635.078                    21777643.348
 114341685.270 7  89097602.26145  21758529.656                    21758538.832
 127448208.160 6  99310331.522 6  24252591.156                    24252601.066
 106925749.479 8  83318755.21146  20347293.688                    20347299.703
 119884201.495 7  93416286.63744  22813211.047                    22813220.625
 107691388.245 7  83915365.56246  20492989.453                    20492996.840
 115704069.471 7  90159030.03945  22017755.133                    22017763.813
 11  8  9 15 18  0.0000000  0  9G06G19G13G03G07G23G32G16G20
 117084351.906 7  91234474.73945  22280378.570                    22280387.359
 125486578.101 6  97781833.66843  23879312.203                    23879319.734
 114363062.999 8  89114206.26245  21762587.859                    21762596.633
 114271358.668 7  89042802.37645  21745146.906                    21745156.246
 127385403.642 7  99261393.000 6  24240639.391                    24240649.527
 106883373.079 8  83285734.64946  20339229.273                    20339235.258
 119972432.063 7  93485037.67744  22830000.742                    22830010.742
 107732550.326 8  83947439.90946  20500822.797                    20500828.855
 115775434.173 7  90214638.84545  22031335.688                    22031344.121
 11  8  9 15 18 30.0000000  0  9G06G19G13G03G07G23G32G16G20
 117046300.532 7  91204824.37345  22273136.734                    22273146.359
 125392801.766 6  97708761.32043  23861467.484                    23861475.480
 114284165.167 8  89052727.46345  21747574.477                    21747581.926
 114201406.244 7  88988294.05945  21731835.555                    21731844.496
 127322649.355 7  99212493.611 6  24228698.195                    24228708.207
 106841377.587 8  83253010.89446  20331237.867                    20331243.781
 120060850.369 7  93553935.03544  22846826.406                    22846836.137
 107774206.345 7  83979899.14346  20508749.477                    20508755.656
 115847127.520 7  90270503.74245  22044978.609                    22044987.156
 11  8  9 15 19  0.0000000  0  9G06G19G13G03G07G23G32G16G20
 117008695.570 7  91175521.84145  22265980.703                    22265990.230
 125299025.316 6  97635688.81743  23843621.797                    23843630.617
 114205444.563 8  88991386.74645  21732594.195                    21732601.680
 114131832.000 7  88934080.39945  21718595.648                    21718605.418
 127259945.385 7  99163633.457 6  24216765.867                    24216774.773
 106799766.205 8  83220586.43746  20323319.797                    20323325.625
 120149454.685 7  93622977.30144  22863687.063                    22863696.711
 107816355.057 8  84012742.29846  20516769.703                    20516776.426
 115919147.491 7  90326623.19245  22058684.055                    22058691.758
 11  8  9 15 19 30.0000000  0  9G06G19G13G03G07G23G32G16G20
 116971538.161 7  91146568.05145  22258910.406                    22258919.680
 125205251.109 6  97562618.10143  23825777.102                    23825785.852
 114126902.781 8  88930185.38945  21717648.086                    21717656.242
 114062638.643 7  88880163.53445  21705428.703                    21705437.617
 127197290.729 7  99114811.770 6  24204842.898                    24204851.879
 106758540.026 8  83188462.15246  20315474.516                    20315480.230
 120238241.436 7  93692161.70944  22880582.367                    22880592.297
 107858993.020 8  84045966.67846  20524883.406                    20524890.680
 115991490.420 7  90382994.25545  22072450.102                    22072458.578
 11  8  9 15 20  0.0000000  0  9G06G19G13G03G07G23G32G16G20
 116934830.532 7  91117964.74545  22251924.117                    22251933.445
 125111482.771 6  97489551.89443  23807933.766                    23807942.242
 114048542.416 8  88869125.40245  21702736.477                    21702744.250
 113993829.118 7  88826545.75845  21692334.453                    21692343.273
 127134685.260 7  99066028.369 6  24192929.039                    24192938.461
 106717701.775 8  83156640.14246  20307703.219                    20307708.961
 120327207.845 7  93761486.14744  22897512.602                    22897521.273
 107902118.335 7  84079570.82146  20533089.750                    20533097.293
 116064153.613 7  90439614.86245  22086278.086                    22086285.816
 11  8  9 15 20 30.0000000  0  9G06G19G13G03G07G23G32G16G20
 116898575.331 7  91089713.96545  22245025.813                    22245034.664
 125017723.141 6  97416492.57343  23790091.367                    23790099.750
 113970365.754 8  88808208.54745  21687859.992                    21687868.086
 113925406.945 7  88773229.77845  21679314.453                    21679323.598
 127072128.668 6  99017283.060 6  24181024.711                    24181034.773
 106677253.798 8  83125122.24246  20300006.305                    20300012.109
 120416351.653 7  93830948.82044  22914476.016                    22914484.695
 107945729.226 7  84113553.32346  20541388.797                    20541396.555
 116137134.421 7  90496483.02045  22100165.508                    22100173.570
 11  8  9 15 21  0.0000000  0  9G06G19G13G03G07G23G32G16G20
 116862774.577 7  91061817.26045  22238212.875                    22238221.785
 124923975.415 6  97343442.47643  23772251.656                    23772259.617
 113892375.183 8  88747436.70445  21673018.789                    21673027.285
 113857375.195 7  88720218.07345  21666367.695                    21666377.039
 127009620.435 6  98968575.395 7  24169129.563                    24169140.973
 106637198.257 8  83093910.12846  20292384.266                    20292390.242
 120505670.330 7  93900547.72044  22931472.422                    22931482.320
 107989823.509 7  84147912.48146  20549779.969                    20549786.727
 116210430.041 7  90553596.43845  22114113.195                    22114122.613
 11  8  9 15 21 30.0000000  0  9G06G19G13G03G07G23G32G16G20
 116827430.254 7  91034276.23745  22231487.414                    22231496.699
 124830242.644 6  97270404.06643  23754415.281                    23754422.719
 113814573.075 8  88686811.72045  21658213.422                    21658221.836
 113789736.564 7  88667512.66045  21653496.930                    21653505.699
 126947160.156 5  98919905.089 7  24157242.992                    24157255.305
 106597537.300 8  83063005.48046  20284836.742                    20284842.758
 120595160.956 7  93970280.62044  22948502.805                    22948512.031
 108034398.645 7  84182646.36245  20558262.422                    20558269.348
 116284037.361 7  90610952.74645  22128120.164                    22128128.473
 11  8  9 15 22  0.0000000  0  9G06G19G13G03G07G23G32G16G20
 116792544.269 7  91007092.38545  22224848.922                    22224857.922
 124736527.370 6  97197379.29043  23736581.367                    23736590.398
 113736961.712 8  88626335.33045  21643445.133                    21643452.934
 113722494.244 7  88615116.08145  21640700.445                    21640709.926
 126884747.488 6  98871271.866 7  24145367.414                    24145378.207
 106558272.908 8  83032409.85546  20277364.867                    20277371.098
 120684820.698 7  94040145.30644  22965563.781                    22965574.086
 108079452.181 7  84217752.99546  20566836.266                    20566843.438
 116357953.452 7  90668549.63745  22142185.875                    22142194.148
 11  8  9 15 22 30.0000000  0  9G06G19G13G03G07G23G32G16G20
 116758119.080 7  90980267.56845  22218297.289                    22218306.441
 124642833.293 6  97124371.03943  23718752.227                    23718761.438
 113659543.793 8  88566009.70145  21628712.719                    21628720.777
 113655651.578 7  88563030.92445  21627980.953                    21627990.105
 126822381.962 6  98822675.437 6  24133500.234                    24133510.492
 106519407.948 8  83002125.48746  20269969.109                    20269975.512
 120774647.324 7  94110140.01044  22982657.289                    22982667.445
 108124982.301 7  84253230.99946  20575499.922                    20575507.535
 116432175.895 7  90726385.27945  22156309.586                    22156318.191
 11  8  9 15 23  0.0000000  0  9G06G19G13G03G07G23G32G16G20
 116724156.660 7  90953803.35145  22211834.641                    22211843.637
 124549163.439 6  97051381.63044  23700927.453                    23700937.027
 113582321.340 8  88505836.40945  21614017.641                    21614026.047
 113589211.703 7  88511259.63645  21615338.344                    21615346.473
 126760063.342 6  98774115.560 6  24121640.375                    24121650.879
 106480944.101 8  82972153.66246  20262650.094                    20262655.621
 120864638.017 7  94180262.57644  22999782.008                    22999791.270
 108170986.889 7  84289078.73245  20584254.203                    20584261.254
 116506701.417 7  90784457.08945  22170491.664                    22170500.324
 11  8  9 15 23 30.0000000  0  9G06G19G13G03G07G23G32G16G20
 116690658.426 7  90927700.83645  22205460.492                    22205469.418
 124455520.224 6  96978412.96644  23683107.461                    23683116.391
 113505296.402 7  88445817.00045  21599359.992                    21599368.500
 113523176.793 7  88459803.88845  21602772.273                    21602781.191
 126697790.477 6  98725591.299 6  24109791.164                    24109799.789
 106442883.064 8  82942495.70846  20255407.094                    20255413.199
 120954789.225 7  94250510.20844  23016937.992                    23016947.695
 108217462.574 8  84325293.55746  20593098.203                    20593105.461
 116581526.364 7  90842762.20545  22184730.594                    22184739.742
 11  8  9 15 24  0.0000000  0  9G06G19G13G03G07G23G32G16G20
 116657626.689 7  90901961.83145  22199174.453                    22199184.094
 124361907.479 6  96905468.11644  23665293.109                    23665302.887
 113428471.852 8  88385953.73845  21584740.656                    21584748.875
 113457550.411 7  88408666.47445  21590283.539                    21590292.770
 126635563.757 6  98677103.055 5  24097949.141                    24097957.094
 106405227.639 8  82913153.82546  20248241.547                    20248246.852
 121045098.863 7  94320881.28844  23034123.234                    23034132.680
 108264407.777 7  84361874.23746  20602031.328                    20602038.871
 116656648.668 7  90901299.00145  22199025.906                    22199034.637
 11  8  9 15 24 30.0000000  0  9G06G19G13G03G07G23G32G16G20
 116625063.428 7  90876587.85545  22192978.164                    22192986.852
 124268328.056 6  96832549.19943  23647486.313                    23647493.266
 113351849.756 7  88326248.22245  21570160.320                    21570168.004
 113392335.404 7  88357849.60545  21577873.898                    21577882.855
 126573382.612 7  98628650.304 6  24086116.305                    24086125.637
 106367979.901 8  82884129.61846  20241153.406                    20241159.383
 121135564.154 7  94391373.70744  23051338.023                    23051347.246
 108311819.885 7  84398818.71945  20611053.992                    20611061.230
 116732065.224 7  90960065.09045  22213377.391                    22213385.676
 11  8  9 15 25  0.0000000  0  9G06G19G13G03G07G23G32G16G20
 116592970.521 7  90851580.43245  22186870.547                    22186879.988
 124174784.918 6  96759658.53643  23629685.023                    23629692.707
 113275432.308 8  88266702.18345  21555618.531                    21555626.805
 113327534.706 7  88307355.55745  21565543.258                    21565551.641
 126511246.632 6  98580232.755 5  24074292.133                    24074301.199
 106331141.826 8  82855424.62646  20234143.555                    20234149.391
 121226182.362 7  94461985.25344  23068581.953                    23068592.184
 108359696.463 7  84436125.12846  20620164.242                    20620172.133
 116807772.839 7  91019058.01845  22227784.406                    22227792.082
 11  8  9 15 25 30.0000000  0  9G06G19G13G03G07G23G32G16G20
 116561350.124 7  90826941.12445  22180853.508                    22180863.012
 124081281.398 6  96686798.78943  23611891.672                    23611900.176
 113199222.285 8  88207317.77445  21541115.813                    21541124.637
 113263151.681 7  88257186.96945  21553290.883                    21553300.273
 126449155.234 6  98531849.866 5  24062475.844                    24062484.707
 106294715.637 8  82827040.59146  20227212.016                    20227217.770
 121316950.873 7  94532713.88944  23085853.992                    23085865.238
 108408035.485 7  84473791.88645  20629362.977                    20629370.391
 116883768.812 7  91078275.63245  22242245.328                    22242254.082
 11  8  9 15 26  0.0000000  0  9G06G19G13G03G07G23G32G16G20
 116530204.121 7  90802671.53145  22174926.867                    22174935.848
 123987820.650 6  96613972.35344  23594107.023                    23594114.711
 113123222.015 8  88148096.81345  21526653.758                    21526662.008
 113199189.414 7  88207346.24645  21541119.305                    21541128.473
 126387108.503 6  98483501.838 5  24050669.023                    24050678.086
 106258703.728 8  82798979.35146  20220358.914                    20220364.504
 121407867.270 6  94603557.79244  23103155.438                    23103165.582
 108456834.798 7  84511817.32845  20638649.289                    20638656.359
 116960050.729 7  91137716.04245  22256761.797                    22256771.094
 11  8  9 15 26 30.0000000  0  9G06G19G13G03G07G23G32G16G20
 116499534.731 7  90778773.31545  22169090.750                    22169100.016
 123894405.955 6  96541181.80243  23576330.273                    23576338.648
 113047434.107 8  88089041.31245  21512231.422                    21512239.652
 113135650.766 7  88157835.60545  21529028.352                    21529037.355
 126325105.853 7  98435188.114 6  24038870.281                    24038880.621
 106223108.446 8  82771242.75446  20213585.391                    20213591.039
 121498928.940 6  94674514.87044  23120484.273                    23120493.949
 108506092.018 8  84550199.56846  20648022.523                    20648030.098
 117036615.493 7  91197376.84645  22271330.930                    22271340.066
 11  8  9 15 27  0.0000000  0  9G06G19G13G03G07G23G32G16G20
 116469342.876 7  90755247.20645  22163345.125                    22163354.496
 123801039.878 6  96468429.12143  23558563.695                    23558570.582
 112971860.266 8  88030152.60745  21497850.625                    21497859.270
 113072537.930 7  88108656.78345  21517018.328                    21517027.297
 126263146.355 7  98386908.039 6  24027080.117                    24027090.219
 106187930.877 8  82743831.67246  20206891.508                    20206897.695
 121590132.195 7  94745582.29944  23137839.016                    23137849.535
 108555804.014 8  84588936.17046  20657482.484                    20657490.207
 117113459.108 7  91257254.96445  22285954.094                    22285962.285
 11  8  9 15 27 30.0000000  0  9G06G19G13G03G07G23G32G16G20
 116439631.331 7  90732095.35945  22157691.930                    22157700.176
 123707725.856 6  96395716.96843  23540804.992                    23540812.328
 112896503.298 8  87971432.92545  21483510.891                    21483519.035
 113009854.645 7  88059812.66445  21505090.000                    21505098.973
 126201230.133 7  98338661.636 6  24015298.047                    24015306.906
 106153173.784 8  82716748.22846  20200277.477                    20200283.168
 121681474.995 7  94816758.42544  23155221.656                    23155231.324
 108605968.702 8  84628025.53646  20667028.469                    20667036.891
 117190579.543 7  91317348.74145  22300630.297                    22300637.836
 11  8  9 15 28  0.0000000  0  9G06G19G13G03G07G23G32G16G20
 116410401.500 7  90709318.86545  22152128.922                    22152137.984
 123614467.190 6  96323047.93943  23523059.273                    23523066.781
 112821365.617 8  87912884.08045  21469212.227                    21469220.137
 112947603.545 7  88011305.30645  21493244.250                    21493252.234
 126139356.593 6  98290448.525 6  24003524.039                    24003533.172
 106118839.253 8  82689994.04646  20193743.711                    20193749.625
 121772954.452 6  94888041.02644  23172629.828                    23172640.012
 108656583.913 8  84667465.95146  20676660.563                    20676668.195
 117267973.384 7  91377655.59645  22315357.781                    22315365.152
 11  8  9 15 28 30.0000000  0  9G06G19G13G03G07G23G32G16G20
 116381655.672 7  90686919.55545  22146659.070                    22146668.602
 123521267.116 6  96250424.57743  23505324.258                    23505331.563
 112746449.980 8  87854508.26945  21454956.250                    21454964.387
 112885788.277 7  87963137.56945  21481480.883                    21481490.125
 126077525.407 7  98242268.436 6  23991757.914                    23991767.648
 106084929.777 8  82663571.07746  20187290.883                    20187296.039
 121864568.454 7  94959428.52144  23190062.836                    23190073.359
 108707647.573 8  84707255.81646  20686377.398                    20686384.773
 117345638.339 7  91438173.68845  22330136.578                    22330144.898
 11  8  9 15 29  0.0000000  0  9G06G19G13G03G07G23G32G16G20
 116353394.854 7  90664898.15245  22141281.281                    22141290.590
 123428128.183 7  96177848.88444  23487600.695                    23487608.148
 112671758.038 8  87796306.76945  21440742.813                    21440750.828
 112824410.455 7  87915310.70845  21469801.531                    21469810.793
 126015736.011 6  98194120.910 6  23979999.898                    23980010.125
 106051446.336 8  82637480.08446  20180919.352                    20180924.984
 121956313.232 7  95030917.91644  23207521.852                    23207532.395
 108759156.303 8  84747392.48046  20696179.195                    20696186.426
 117423570.472 7  91498899.98045  22344966.633                    22344975.406
 11  8  9 15 29 30.0000000  0  9G06G19G13G03G07G23G32G16G20
 116325621.283 7  90643256.43345  22135995.914                    22136004.648
 123335053.839 6  96105323.53944  23469889.039                    23469897.367
 112597292.797 8  87738281.91545  21426572.453                    21426580.785
 112763473.505 7  87867827.37845  21458205.063                    21458214.012
 125953988.370 7  98146005.892 6  23968249.273                    23968259.504
 106018391.988 8  82611723.45746  20174629.641                    20174635.461
 122048186.712 7  95102507.61844  23225004.758                    23225014.977
 108811108.310 8  84787874.54946  20706065.539                    20706072.813
 117501767.473 7  91559832.67245  22359846.984                    22359855.328
 11  8  9 15 30  0.0000000  0  9G06G19G13G03G07G23G32G16G20
 116298336.617 7  90621995.64845  22130804.063                    22130813.172
 123242047.204 6  96032850.90244  23452189.977                    23452198.945
 112523056.420 8  87680435.40245  21412445.586                    21412453.738
 112702980.172 7  87820689.70945  21446694.125                    21446702.641
 125892281.947 6  98097923.015 6  23956506.453                    23956517.699
 105985768.431 8  82586302.49946  20168420.938                    20168426.535
 122140186.086 6  95174195.41444  23242510.891                    23242522.254
 108863500.683 8  84828699.76145  20716035.172                    20716042.426
 117580226.218 7  91620969.29845  22374778.008                    22374786.645
 11  8  9 15 30 30.0000000  0 10G10G06G19G13G03G07G23G32G16G20
 129183628.36716 100662689.47553  24582848.242                    24582857.641
 116271542.390 7  90601117.03245  22125705.266                    22125714.621
 123149111.750 6  95960433.74344  23434505.211                    23434514.098
 112449051.352 8  87622769.12745  21398363.273                    21398371.320
 112642933.573 7  87773900.15345  21435267.484                    21435275.852
 125830616.407 6  98049872.045 6  23944771.344                    23944782.426
 105953577.767 8  82561218.87346  20162295.180                    20162301.301
 122232308.609 6  95245979.12644  23260041.484                    23260051.770
 108916331.214 7  84869866.41745  20726088.617                    20726095.367
 117658943.485 7  91682307.36445  22389757.047                    22389766.215
 11  8  9 15 31  0.0000000  0 10G10G06G19G13G03G07G23G32G16G20
 129120703.079 6 100613656.78143  24570874.164                    24570883.980
 116245240.809 7  90580622.31845  22120699.914                    22120708.988
 123056250.628 6  95888074.46544  23416834.438                    23416842.777
 112375280.384 8  87565285.28545  21384324.984                    21384333.203
 112583336.788 7  87727461.09445  21423926.539                    21423935.184
 125768991.237 6  98001852.482 6  23933044.406                    23933055.637
 105921822.341 8  82536474.38846  20156252.469                    20156258.695
 122324551.744 6  95317856.84643  23277595.195                    23277604.078
 108969597.655 8  84911372.74445  20736224.820                    20736231.574
 117737916.731 7  91743844.95145  22404784.922                    22404792.625
 11  8  9 15 31 30.0000000  0 10G10G06G19G13G03G07G23G32G16G20
 129058205.257 6 100564957.23342  24558979.883                    24558990.891
 116219433.182 7  90560512.48245  22115789.141                    22115797.957
 122963466.717 6  95815775.39344  23399177.789                    23399186.090
 112301745.540 8  87507985.41745  21370332.242                    21370340.168
 112524191.898 7  87681374.16645  21412671.602                    21412680.383
 125707405.969 5  97953864.116 6  23921325.008                    23921335.484
 105890503.844 8  82512070.36846  20150292.586                    20150299.184
 122416912.356 6  95389826.13043  23295171.031                    23295180.234
 109023297.223 8  84953216.56246  20746443.719                    20746451.027
 117817142.651 7  91805579.34845  22419861.633                    22419869.758
 11  8  9 15 32  0.0000000  0 10G10G06G19G13G03G07G23G32G16G20
 128996137.013 5 100516592.34242  24547169.820                    24547179.453
 116194121.537 7  90540789.12845  22110972.422                    22110981.645
 122870763.112 7  95743538.90844  23381536.891                    23381544.445
 112228449.481 8  87450871.64245  21356383.664                    21356392.301
 112465502.187 7  87635641.94046  21401503.984                    21401512.289
 125645860.371 6  97905906.598 6  23909612.813                    23909623.160
 105859624.256 8  82488008.34946  20144416.352                    20144423.043
 122509388.314 7  95461885.25644  23312768.625                    23312778.734
 109077427.546 7  84995396.01545  20756744.156                    20756751.891
 117896618.506 7  91867508.58644  22434985.305                    22434992.922
 11  8  9 15 32 30.0000000  0 10G10G06G19G13G03G07G23G32G16G20
 128934499.974 6 100468563.49842  24535440.961                    24535450.426
 116169307.326 7  90521453.39745  22106250.047                    22106259.223
 122778143.412 6  95671367.80244  23363911.883                    23363919.156
 112155394.541 8  87393945.74745  21342481.836                    21342490.121
 112407270.706 7  87590266.77446  21390422.094                    21390431.105
 125584354.330 6  97857979.901 6  23897908.977                    23897919.766
 105829185.924 8  82464290.16346  20138624.477                    20138630.418
 122601976.645 6  95534031.96043  23330388.063                    23330397.234
 109131986.022 7  85037909.09445  20767126.242                    20767133.320
 117976341.127 7  91929630.06245  22450154.914                    22450163.586
 11  8  9 15 33  0.0000000  0 10G10G06G19G13G03G07G23G32G16G20
 128873295.735 5 100420871.95842  24523792.867                    24523803.180
 116144992.143 7  90502506.49345  22101623.664                    22101632.008
 122685610.715 6  95599264.53244  23346302.945                    23346311.172
 112082583.386 8  87337209.77945  21328626.820                    21328634.832
 112349499.806 7  87545250.48446  21379429.125                    21379437.910
 125522887.032 6  97810083.420 6  23886211.742                    23886222.293
 105799190.396 8  82440917.01046  20132916.563                    20132922.699
 122694674.527 7  95606264.00444  23348028.141                    23348036.453
 109186970.335 8  85080754.01845  20777589.758                    20777596.664
 118056307.499 7  91991941.45245  22465373.203                    22465381.328
 11  8  9 15 33 30.0000000  0 10G10G06G19G13G03G07G23G32G16G20
 128812526.42215 100373518.87752  24512227.844                    24512238.762
 116121178.154 7  90483950.16445  22097091.602                    22097101.570
 122593168.496 6  95527231.71644  23328711.727                    23328719.734
 112010018.718 8  87280665.89345  21314818.203                    21314826.223
 112292192.698 7  87500595.58346  21368524.234                    21368532.395
 125461458.537 6  97762217.135 6  23874523.289                    23874533.172
 105769640.323 8  82417890.97946  20127293.328                    20127299.605
 122787479.633 6  95678579.61444  23365688.250                    23365697.379
 109242378.242 7  85123929.01645  20788133.266                    20788140.195
 118136515.044 7  92054440.80844  22480636.148                    22480644.707
 11  8  9 15 34  0.0000000  0 10G10G06G19G13G03G07G23G32G16G20
 128752192.535 5 100326505.85342  24500747.281                    24500758.801
 116097866.594 7  90465785.30745  22092655.570                    22092664.945
 122500819.738 6  95455271.69644  23311138.352                    23311146.855
 111937702.695 8  87224315.76745  21301056.758                    21301065.078
 112235352.124 7  87456304.26345  21357707.242                    21357716.039
 125400068.437 6  97714380.768 7  23862841.523                    23862851.559
 105740537.393 8  82395213.38246  20121755.305                    20121761.043
 122880389.113 6  95750976.56644  23383368.180                    23383377.676
 109298206.886 7  85167431.84145  20798756.813                    20798764.383
 118216960.495 7  92117125.52844  22495944.547                    22495952.746
 11  8  9 15 34 30.0000000  0 10G10G06G19G13G03G07G23G32G16G20
 128692297.016 5 100279833.98943  24489349.000                    24489360.875
 116075058.704 7  90448012.94845  22088316.008                    22088324.609
 122408567.412 6  95383386.85144  23293583.680                    23293592.059
 111865637.502 8  87168161.09945  21287343.078                    21287351.242
 112178980.567 7  87412378.38145  21346980.156                    21346989.109
 125338716.322 6  97666573.971 6  23851166.758                    23851176.715
 105711883.206 8  82372885.44846  20116302.641                    20116308.633
 122973400.056 6  95823452.57244  23401067.313                    23401077.047
 109354453.799 7  85211260.57545  20809460.188                    20809467.141
 118297640.557 7  92179993.07345  22511296.891                    22511305.652
 11  8  9 15 35  0.0000000  0 10G10G06G19G13G03G07G23G32G16G20
 128632841.393 5 100233504.92842  24478036.992                    24478046.523
 116052756.380 7  90430634.50645  22084071.820                    22084080.273
 122316415.081 6  95311579.90444  23276046.953                    23276055.680
 111793826.069 8  87112204.13545  21273677.758                    21273685.531
 112123080.751 7  87368820.10445  21336342.781                    21336351.254
 125277401.647 6  97618796.342 6  23839498.633                    23839508.238
 105683680.427 8  82350909.24646  20110935.469                    20110941.387
 123066509.944 6  95896005.66044  23418785.320                    23418795.715
 109411116.543 7  85255413.36045  20820243.328                    20820250.012
 118378552.350 7  92243041.19344  22526693.547                    22526702.297
 11  8  9 15 35 30.0000000  0 10G10G06G19G13G03G07G23G32G16G20
 128573826.793 5 100187519.54242  24466806.719                    24466816.473
 116030960.807 7  90413650.94545  22079923.984                    22079932.090
 122224365.463 6  95239853.04944  23258530.977                    23258539.125
 111722270.449 8  87056446.52545  21260061.211                    21260069.203
 112067655.138 7  87325631.32345  21325795.508                    21325804.277
 125216123.938 7  97571047.579 6  23827837.406                    23827846.559
 105655930.131 8  82329285.65346  20105655.031                    20105660.973
 123159715.686 6  95968633.44144  23436522.430                    23436532.520
 109468192.095 7  85299887.82045  20831104.227                    20831110.789
 118459692.762 7  92306267.45345  22542134.469                    22542143.547
 11  8  9 15 36  0.0000000  0 10G10G06G19G13G03G07G23G32G16G20
 128515255.512 5 100141879.64143  24455660.750                    24455671.289
 116009673.802 7  90397063.68945  22075873.125                    22075882.445
 122132422.336 6  95168209.12244  23241034.016                    23241042.871
 111650973.461 8  87000890.44846  21246493.898                    21246501.918
 112012706.921 7  87282814.53745  21315339.047                    21315349.000
 125154883.135 7  97523327.559 6  23816184.617                    23816192.461
 105628635.043 8  82308016.76246  20100460.953                    20100466.988
 123253015.219 7  96041334.28744  23454276.617                    23454286.434
 109525678.488 7  85344682.40345  20842043.789                    20842050.531
 118541059.358 7  92369669.93845  22557618.344                    22557627.398
 11  8  9 15 36 30.0000000  0 10G10G06G19G13G03G07G23G32G16G20
 128457128.737 5 100096586.05443  24444599.688                    24444610.355
 115988896.730 7  90380873.76245  22071919.352                    22071928.289
 122040588.469 7  95096650.32144  23223559.188                    23223566.504
 111579937.593 8  86945537.84146  21232976.219                    21232984.332
 111958238.351 7  87240371.52545  21304974.242                    21304983.125
 125093678.864 7  97475635.961 6  23804537.375                    23804545.445
 105601796.731 8  82287103.77446  20095353.445                    20095359.105
 123346405.334 7  96114105.72344  23472048.563                    23472058.328
 109583572.896 7  85389794.90445  20853060.789                    20853067.953
 118622648.741 7  92433246.06045  22573144.125                    22573152.645
 11  8  9 15 37  0.0000000  0 10G10G06G19G13G03G07G23G32G16G20
 128399448.356 6 100051640.36543  24433622.656                    24433633.934
 115968630.931 7  90365082.19645  22068063.141                    22068071.461
 121948867.181 7  95025179.27244  23206104.727                    23206113.359
 111509164.946 8  86890390.35045  21219508.859                    21219516.703
 111904252.257 8  87198304.44245  21294700.922                    21294709.656
 125032510.692 7  97427972.492 6  23792896.883                    23792906.379
 105575416.947 8  82266548.10246  20090333.586                    20090339.336
 123439883.359 7  96186945.69944  23489836.719                    23489846.809
 109641872.599 7  85435223.22345  20864154.516                    20864161.449
 118704457.654 7  92496993.21544  22588711.938                    22588721.785
 11  8  9 15 37 30.0000000  0 10G10G06G19G13G03G07G23G32G16G20
 128342215.949 6 100007043.69443  24422732.086                    24422742.484
 115948878.178 7  90349690.47545  22064304.148                    22064313.113
 121857262.179 6  94953798.78244  23188673.859                    23188681.090
 111438658.328 8  86835450.12945  21206091.273                    21206098.574
 111850751.385 7  87156615.46246  21284519.969                    21284529.297
 124971378.327 7  97380336.926 6  23781263.703                    23781273.398
 105549498.167 8  82246351.64746  20085401.742                    20085407.703
 123533446.927 6  96259852.31444  23507640.633                    23507650.977
 109700575.465 7  85480965.71145  20875325.891                    20875332.363
 118786483.519 7  92560909.41844  22604321.266                    22604329.207
 11  8  9 15 38  0.0000000  0 10G10G06G19G13G03G07G23G32G16G20
 128285433.082 6  99962797.31443  24411926.766                    24411937.176
 115929639.795 7  90334699.51145  22060643.578                    22060652.684
 121765776.292 6  94882511.11444  23171264.227                    23171271.945
 111368420.324 8  86780719.24145  21192725.766                    21192734.078
 111797738.470 7  87115306.68246  21274431.961                    21274441.242
 124910281.584 7  97332729.086 6  23769637.977                    23769647.766
 105524041.941 8  82226515.63146  20080557.484                    20080563.707
 123627093.376 7  96332823.51944  23525461.414                    23525471.785
 109759679.067 7  85527020.45345  20886572.773                    20886579.938
 118868723.065 7  92624992.15845  22619970.586                    22619979.055
 11  8  9 15 38 30.0000000  0 10G10G06G19G13G03G07G23G32G16G20
 128229101.253 6  99918902.35243  24401206.367                    24401217.984
 115910916.980 7  90320110.29545  22057080.000                    22057089.121
 121674413.042 7  94811319.05344  23153878.750                    23153885.891
 111298453.271 8  86726199.46745  21179411.641                    21179419.293
 111745215.789 7  87074379.92346  21264437.609                    21264446.590
 124849219.432 6  97285148.281 6  23758017.500                    23758027.406
 105499049.882 8  82207041.29846  20075801.406                    20075807.301
 123720819.690 6  96405856.93944  23543297.750                    23543308.129
 109819180.227 7  85573384.97045  20897895.461                    20897902.949
 118951173.354 7  92689239.10045  22635660.039                    22635668.918
 11  8  9 15 39  0.0000000  0 10G10G06G19G13G03G07G23G32G16G20
 128173222.328 6  99875360.33543  24390573.594                    24390584.504
 115892711.417 7  90305924.14345  22053615.945                    22053624.762
 121583175.676 6  94740225.13145  23136516.461                    23136523.563
 111228759.755 8  86671892.84545  21166148.742                    21166156.992
 111693186.199 8  87033837.39746  21254536.172                    21254545.355
 124788192.447 6  97237594.823 6  23746404.953                    23746414.250
 105474524.590 8  82187930.67146  20071134.172                    20071139.930
 123814623.538 6  96478950.77744  23561147.484                    23561158.262
 109879076.776 7  85620057.59845  20909293.500                    20909300.754
 119033831.541 7  92753647.99545  22651389.727                    22651399.777
 11  8  9 15 39 30.0000000  0 10G10G06G19G13G03G07G23G32G16G20
 128117797.690 6  99832172.41443  24380025.820                    24380037.625
 115875024.612 7  90292142.19945  22050250.422                    22050259.855
 121492067.457 7  94669231.77844  23119179.133                    23119186.805
 111159342.585 8  86617801.56545  21152939.266                    21152947.266
 111641652.403 7  86993681.19545  21244729.930                    21244739.125
 124727200.089 7  97190068.303 6  23734798.320                    23734806.863
 105450467.876 8  82169185.18647  20066557.180                    20066562.902
 123908502.246 6  96552102.94243  23579012.406                    23579021.750
 109939366.199 7  85667036.34945  20920765.938                    20920774.000
 119116694.834 7  92818216.76744  22667158.523                    22667166.973
 11  8  9 15 40  0.0000000  0 10G10G06G19G13G03G07G23G32G16G20
 128062828.873 6  99789339.61343  24369566.477                    24369577.082
 115857857.481 7  90278765.21845  22046983.469                    22046993.457
 121401091.123 7  94598341.23144  23101867.047                    23101874.891
 111090203.938 8  86563927.30145  21139783.234                    21139790.609
 111590616.664 7  86953913.10545  21235017.961                    21235026.035
 124666241.856 6  97142568.429 6  23723197.969                    23723206.988
 105426880.943 8  82150805.74646  20062068.313                    20062074.250
 124002452.924 6  96625311.20344  23596890.492                    23596899.301
 110000045.641 7  85714318.99945  20932313.063                    20932320.648
 119199759.652 7  92882942.53044  22682965.336                    22682974.668
 11  8  9 15 40 30.0000000  0 10G10G06G19G13G03G07G23G32G16G20
 128008317.268 6  99746863.02043  24359193.820                    24359204.043
 115841211.277 8  90265794.15645  22043815.797                    22043824.668
 121310250.432 7  94527556.36044  23084580.602                    23084588.227
 111021345.971 8  86510271.76545  21126679.813                    21126688.488
 111540081.515 7  86914535.08745  21225401.367                    21225410.191
 124605317.343 6  97095094.870 6  23711604.172                    23711614.063
 105403765.728 8  82132793.89546  20057669.766                    20057675.539
 124096472.718 6  96698573.31044  23614781.789                    23614791.289
 110061112.402 7  85761903.46545  20943933.031                    20943940.906
 119283023.072 7  92947823.03344  22698809.695                    22698818.137
 11  8  9 15 41  0.0000000  0 10G10G06G19G13G03G07G23G32G16G20
 127954264.545 6  99704744.01643  24348907.680                    24348917.273
 115825087.553 8  90253230.21045  22040747.461                    22040756.770
 121219548.815 7  94456879.86844  23067320.555                    23067327.613
 110952771.711 8  86456837.30845  21113630.602                    21113638.656
 111490049.813 8  86875549.35245  21215880.398                    21215889.586
 124544426.319 6  97047647.436 6  23700016.078                    23700026.391
 105381124.354 8  82115151.24746  20053360.977                    20053366.816
 124190559.165 6  96771887.33844  23632685.758                    23632695.977
 110122564.133 7  85809787.92645  20955627.430                    20955635.188
 119366482.138 7  93012856.02644  22714691.555                    22714698.949
 11  8  9 15 41 30.0000000  0 10G10G06G19G13G03G07G23G32G16G20
 127900671.960 6  99662983.57343  24338709.336                    24338718.840
 115809487.319 7  90241074.16245  22037779.180                    22037788.254
 121128988.785 7  94386313.67844  23050086.930                    23050095.059
 110884483.375 8  86403625.63446  21100635.625                    21100642.770
 111440523.619 7  86836957.54145  21206456.344                    21206465.199
 124483568.231 6  97000225.677 6  23688435.391                    23688445.414
 105358958.198 8  82097878.90547  20049142.930                    20049149.199
 124284709.344 6  96845251.04144  23650602.328                    23650612.758
 110184397.978 7  85857970.14544  20967394.039                    20967401.547
 119450133.615 7  93078038.97344  22730610.125                    22730617.512
 11  8  9 15 42  0.0000000  0 10G10G06G19G13G03G07G23G32G16G20
 127847541.160 6  99621582.99343  24328598.477                    24328608.641
 115794411.864 8  90229327.08445  22034910.141                    22034918.836
 121038574.286 7  94315860.82944  23032882.172                    23032888.469
 110816483.578 8  86350638.79246  21087696.070                    21087704.188
 111391505.778 7  86798761.84245  21197128.578                    21197137.508
 124422743.033 6  96952829.488 7  23676860.859                    23676870.996
 105337269.320 8  82080978.49247  20045015.531                    20045021.961
 124378920.894 7  96918662.57744  23668529.039                    23668540.160
 110246611.484 7  85906448.20045  20979232.422                    20979239.938
 119533974.859 7  93143369.76444  22746563.445                    22746571.785
 11  8  9 15 42 30.0000000  0 10G10G06G19G13G03G07G23G32G16G20
 127794873.539 6  99580543.30443  24318576.805                    24318586.203
 115779862.600 7  90217990.00245  22032141.813                    22032150.902
 120948308.440 6  94245523.87044  23015705.164                    23015711.656
 110748774.945 8  86297878.84446  21074810.859                    21074819.297
 111342998.573 7  86760964.02746  21187898.023                    21187906.727
 124361950.465 6  96905458.722 7  23665292.508                    23665303.168
 105316059.702 8  82064451.50746  20040979.766                    20040985.434
 124473191.096 6  96992119.79144  23686468.945                    23686479.777
 110309202.080 7  85955220.08944  20991143.023                    20991150.785
 119618002.756 7  93208846.00244  22762553.766                    22762563.152
 11  8  9 15 43  0.0000000  0 10G10G06G19G13G03G07G23G32G16G20
 127742670.770 5  99539865.91442  24308640.672                    24308652.313
 115765840.784 7  90207063.88645  22029473.039                    22029482.535
 120858194.520 7  94175305.28644  22998556.602                    22998563.156
 110681360.301 8  86245347.96646  21061982.773                    21061990.652
 111295004.569 7  86723566.10445  21178765.063                    21178773.645
 124301190.280 6  96858113.144 7  23653730.438                    23653740.758
 105295331.048 8  82048299.29247  20037035.086                    20037041.098
 124567517.401 6  97065620.71444  23704418.852                    23704429.418
 110372167.198 7  86004283.79144  21003124.766                    21003132.598
 119702214.336 7  93274465.32044  22778579.133                    22778588.906
 11  8  9 15 43 30.0000000  0 10G10G06G19G13G03G07G23G32G16G20
 127690934.247 5  99499551.70342  24298794.391                    24298808.695
 115752347.530 7  90196549.67745  22026905.148                    22026914.277
 120768235.775 7  94105207.61844  22981437.703                    22981445.246
 110614241.808 8  86193047.85146  21049210.695                    21049217.922
 111247526.514 8  86686570.24045  21169730.047                    21169738.645
 124240461.940 7  96810792.425 7  23642173.805                    23642184.277
 105275084.986 8  82032523.12646  20033182.695                    20033188.703
 124661897.041 6  97139163.22744  23722378.328                    23722389.789
 110435504.305 7  86053637.36044  21015178.008                    21015185.664
 119786606.325 7  93340225.31144  22794637.742                    22794647.586
 11  8  9 15 44  0.0000000  0 10G10G06G19G13G03G07G23G32G16G20
 127639665.278 6  99459601.86043  24289041.438                    24289051.578
 115739383.925 7  90186448.15745  22024438.227                    22024447.934
 120678435.544 7  94035233.48544  22964349.672                    22964356.582
 110547421.959 8  86140980.42846  21036494.672                    21036502.961
 111200566.151 7  86649977.76045  21160793.852                    21160802.930
 124179765.277 7  96763496.364 6  23630624.328                    23630633.941
 105255323.326 8  82017124.43747  20029421.992                    20029428.188
 124756327.369 6  97212745.20544  23740348.125                    23740359.191
 110499210.648 7  86103278.65044  21027301.047                    21027308.113
 119871176.068 7  93406123.74145  22810731.477                    22810741.160
 11  8  9 15 44 30.0000000  0 10G10G06G19G13G03G07G23G32G16G20
 127588865.082 5  99420017.27842  24279373.266                    24279383.973
 115726951.184 7  90176760.30345  22022073.016                    22022081.895
 120588797.150 7  93965385.44344  22947292.523                    22947299.773
 110480903.251 8  86089147.68846  21023836.820                    21023845.074
 111154126.415 7  86613790.96746  21151956.758                    21151965.461
 124119100.051 7  96716224.799 6  23619080.219                    23619089.574
 105236047.777 8  82002104.52747  20025753.734                    20025760.102
 124850805.708 6  97286364.55143  23758326.500                    23758337.695
 110563283.961 7  86153205.90644  21039493.844                    21039500.824
 119955920.410 6  93472158.23044  22826857.938                    22826867.328
 11  8  9 15 45  0.0000000  0 10G10G06G19G13G03G07G23G32G16G20
 127538535.002 5  99380799.11442  24269795.711                    24269806.160
 115715050.082 7  90167486.72345  22019807.883                    22019816.711
 120499323.563 7  93895665.82544  22930265.719                    22930272.891
 110414688.215 8  86037551.57846  21011236.273                    21011244.895
 111108209.265 7  86578011.39645  21143218.883                    21143227.418
 124058465.688 7  96668977.256 6  23607542.117                    23607550.723
 105217259.809 8  81987464.53147  20022178.805                    20022184.602
 124945329.122 6  97360019.11543  23776314.430                    23776324.578
 110627720.786 7  86203416.41144  21051755.492                    21051762.934
 120040836.020 7  93538326.19145  22843017.477                    22843026.527
 11  8  9 15 45 30.0000000  0 10G10G06G19G13G03G07G23G32G16G20
 127488676.623 6  99341948.45643  24260307.609                    24260318.949
 115703681.759 7  90158628.30645  22017644.938                    22017653.664
 120410018.462 7  93826077.49545  22913271.719                    22913279.215
 110348779.515 8  85986194.15045  20998694.453                    20998702.320
 111062817.414 7  86542641.13845  21134581.133                    21134589.629
 123997861.990 7  96621753.659 6  23596009.695                    23596018.102
 105198961.177 8  81973205.85447  20018696.820                    20018702.965
 125039895.195 7  97433706.86943  23794309.203                    23794319.703
 110692518.836 7  86253908.39144  21064085.914                    21064093.738
 120125920.210 7  93604625.45644  22859207.664                    22859216.035
 11  8  9 15 46  0.0000000  0 10G10G06G19G13G03G07G23G32G16G20
 127439291.07316  99303466.22053  24250911.680                    24250920.758
 115692847.656 8  90150186.15345  22015583.391                    22015592.738
 120320884.997 7  93756622.88644  22896310.328                    22896317.520
 110283179.520 8  85935077.27045  20986211.297                    20986218.980
 111017952.966 7  86507681.85245  21126043.516                    21126051.984
 123937289.112 7  96574554.077 6  23584483.281                    23584491.566
 105181153.797 8  81959329.96547  20015308.266                    20015314.176
 125134501.347 6  97507425.89343  23812312.813                    23812321.992
 110757675.597 7  86304679.88544  21076484.758                    21076492.066
 120211169.995 7  93671053.89045  22875430.945                    22875439.277
 11  8  9 15 46 30.0000000  0 10G10G06G19G13G03G07G23G32G16G20
 127390379.578 6  99265353.40143  24241603.344                    24241614.211
 115682548.324 7  90142160.69845  22013623.258                    22013632.168
 120231926.308 7  93687304.50544  22879381.602                    22879388.613
 110217890.861 8  85884203.01046  20973786.961                    20973795.379
 110973618.239 8  86473135.32845  21117607.586                    21117615.555
 123876746.318 7  96527377.904 6  23572961.633                    23572971.020
 105163839.057 8  81945837.96047  20012013.328                    20012018.777
 125229144.848 7  97581174.02843  23830322.906                    23830332.105
 110823188.398 7  86355728.78544  21088950.859                    21088958.480
 120296582.176 7  93737608.75544  22891682.281                    22891694.039
 11  8  9 15 47  0.0000000  0 10G10G06G19G13G03G07G23G32G16G20
 127341943.502 6  99227611.01642  24232386.906                    24232396.629
 115672784.966 8  90134552.90645  22011765.719                    22011774.043
 120143145.483 7  93618124.68545  22862487.250                    22862493.891
 110152915.962 8  85833573.23246  20961422.648                    20961430.973
 110929815.596 7  86439003.41345  21109271.703                    21109280.535
 123816233.289 7  96480224.919 6  23561445.969                    23561455.297
 105147018.534 8  81932731.05047  20008812.203                    20008817.977
 125323822.876 7  97654949.05443  23848338.945                    23848349.777
 110889054.467 7  86407052.95444  21101486.164                    21101492.211
 120382153.598 7  93804287.70144  22907968.031                    22907975.762
 11  8  9 15 47 30.0000000  0 10G10G06G19G13G03G07G23G32G16G20
 127293984.423 6  99190240.33743  24223259.898                    24223269.898
 115663558.873 7  90127363.73545  22010009.531                    22010018.656
 120054546.530 7  93549086.57845  22845627.078                    22845634.203
 110088257.603 8  85783190.10645  20949118.508                    20949126.840
 110886547.599 8  86405288.11345  21101038.211                    21101046.980
 123755750.050 7  96433095.161 6  23549935.930                    23549945.875
 105130694.657 8  81920011.12047  20005706.141                    20005712.016
 125418533.374 7  97728749.33944  23866362.406                    23866373.309
 110955271.677 7  86458650.77644  21114086.695                    21114093.621
 120467881.936 7  93871088.97944  22924280.711                    22924290.543
 11  8  9 15 48  0.0000000  0 10G10G06G19G13G03G07G23G32G16G20
 127246503.409 6  99153242.17243  24214225.242                    24214234.965
 115654870.607 8  90120593.64445  22008356.258                    22008365.777
 119966132.446 7  93480192.51345  22828801.945                    22828810.289
 110023918.206 8  85733055.52245  20936875.391                    20936883.125
 110843816.183 7  86371990.90845  21092906.359                    21092914.559
 123695295.969 6  96385988.128 7  23538432.594                    23538442.191
 105114868.206 8  81907678.81847  20002694.148                    20002700.133
 125513273.260 6  97802572.53943  23884390.547                    23884401.531
 111021836.973 7  86510519.80244  21126753.219                    21126760.711
 120553763.746 7  93938009.72644  22940624.789                    22940633.293
 11  8  9 15 48 30.0000000  0 10G10G06G19G13G03G07G23G32G16G20
 127199501.325 6  99116617.15543  24205280.547                    24205291.035
 115646721.171 8  90114243.44545  22006805.992                    22006814.387
 119877906.202 7  93411444.82545  22812013.570                    22812021.672
 109959900.175 8  85683171.35945  20924693.109                    20924701.070
 110801623.444 8  86339113.45346  21084877.438                    21084886.582
 123634871.060 6  96338903.825 6  23526932.609                    23526943.480
 105099540.765 8  81895735.36147  19999777.703                    19999783.563
 125608039.819 6  97876416.51544  23902424.164                    23902435.406
 111088747.721 7  86562658.02444  21139486.063                    21139493.992
 120639795.637 7  94005047.58244  22956995.250                    22957002.961
 11  8  9 15 49  0.0000000  0 10G10G06G19G13G03G07G23G32G16G20
 127152979.822 6  99080366.66443  24196427.586                    24196437.930
 115639111.574 7  90108313.90945  22005357.367                    22005366.430
 119789871.358 7  93342846.26845  22795261.445                    22795268.664
 109896205.989 8  85633539.54445  20912571.961                    20912580.098
 110759971.725 8  86306657.59345  21076951.039                    21076959.527
 123574475.000 6  96291841.986 6  23515440.211                    23515449.629
 105084714.141 8  81884182.14047  19996956.547                    19996962.254
 125702830.526 6  97950279.30744  23920462.086                    23920473.676
 111156000.910 7  86615063.06344  21152284.133                    21152291.801
 120725974.999 7  94072200.23244  22973395.117                    22973404.488
 11  8  9 15 49 30.0000000  0 10G10G06G19G13G03G07G23G32G16G20
 127106939.891 6  99044491.44243  24187666.406                    24187677.664
 115632042.660 7  90102805.62945  22004012.422                    22004022.016
 119702031.092 7  93274399.33045  22778545.227                    22778552.969
 109832838.188 7  85584162.03945  20900513.719                    20900521.961
 110718863.085 7  86274624.89445  21069128.258                    21069137.074
 123514107.653 6  96244802.497 6  23503953.555                    23503961.543
 105070389.999 8  81873020.46147  19994230.367                    19994236.727
 125797642.942 7  98024158.99143  23938505.609                    23938515.855
 111223594.274 7  86667733.16244  21165146.781                    21165153.773
 120812298.773 7  94139465.44744  22989820.578                    22989830.125
 11  8  9 15 50  0.0000000  0 10G10G06G19G13G03G07G23G32G16G20
 127061382.507 6  99008992.22143  24178996.625                    24179007.668
 115625515.226 7  90097719.33245  22002770.375                    22002779.027
 119614388.761 7  93206106.64844  22761867.391                    22761874.668
 109769799.174 8  85535040.73145  20888518.063                    20888526.117
 110678299.716 7  86243017.08345  21061409.352                    21061418.168
 123453768.569 6  96197785.086 6  23492471.305                    23492478.430
 105056569.602 8  81862251.32247  19991600.586                    19991606.820
 125892474.148 6  98098053.32143  23956550.867                    23956562.477
 111291525.135 7  86720666.29644  21178073.156                    21178080.852
 120898764.029 7  94206840.95644  23006276.398                    23006283.352
 11  8  9 15 50 30.0000000  0 10G10G06G19G13G03G07G23G32G16G20
 127016309.299 6  98973870.25443  24170420.273                    24170431.645
 115619530.099 7  90093055.60745  22001631.164                    22001640.098
 119526947.827 7  93137970.88044  22745227.586                    22745235.434
 109707091.801 8  85486177.84546  20876585.063                    20876592.941
 110638284.025 7  86211836.03145  21053794.563                    21053803.910
 123393457.620 6  96150789.620 6  23480994.164                    23481003.195
 105043254.847 8  81851876.18647  19989066.742                    19989072.816
 125987321.738 6  98171960.45543  23974598.961                    23974610.219
 111359791.160 7  86773860.59744  21191064.563                    21191071.801
 120985367.569 7  94274324.16644  23022755.313                    23022765.543
 11  8  9 15 51  0.0000000  0 10G10G06G19G13G03G07G23G32G16G20
 126971721.199 6  98939126.28443  24161935.344                    24161946.211
 115614088.146 7  90088815.12745  22000595.633                    22000604.547
 119439711.602 7  93069994.62544  22728628.203                    22728635.141
 109644718.747 8  85437575.47946  20864715.961                    20864724.141
 110598818.123 7  86181083.39845  21046284.773                    21046293.125
 123333174.814 7  96103816.008 6  23469522.250                    23469531.699
 105030447.080 8  81841896.10347  19986629.703                    19986635.578
 126082183.059 6  98245878.28143  23992651.461                    23992662.332
 111428389.098 7  86827313.50744  21204118.203                    21204124.992
 121072106.579 6  94341912.89444  23039261.648                    23039270.551
 11  8  9 15 51 30.0000000  0 10G10G06G19G13G03G07G23G32G16G20
 126927619.525 6  98904761.43343  24153543.203                    24153554.324
 115609190.384 7  90084998.69445  21999663.586                    21999672.348
 119352683.302 7  93002180.38944  22712066.469                    22712074.066
 109582682.380 7  85389235.44545  20852910.930                    20852919.074
 110559903.813 8  86150760.57945  21038879.656                    21038888.789
 123272919.305 7  96056863.705 6  23458056.727                    23458065.320
 105018147.950 8  81832312.35947  19984289.352                    19984295.016
 126177055.690 6  98319804.89543  24010703.844                    24010715.090
 111497316.695 7  86881023.32044  21217234.156                    21217241.004
 121158978.024 6  94409604.96444  23055792.445                    23055801.660
 11  8  9 15 52  0.0000000  0 10G10G06G19G13G03G07G23G32G16G20
 126884004.836 6  98870776.01043  24145243.781                    24145253.617
 115604837.214 7  90081606.65545  21998835.109                    21998844.121
 119265866.223 7  92934530.73945  22695545.781                    22695554.098
 109520984.984 7  85341159.55246  20841170.266                    20841178.012
 110521543.400 8  86120869.34545  21031579.961                    21031588.555
 123212691.357 7  96009932.909 6  23446595.484                    23446603.355
 105006358.515 8  81823125.77147  19982045.992                    19982051.461
 126271936.668 6  98393738.06943  24028760.367                    24028770.391
 111566571.170 7  86934987.80844  21230413.547                    21230420.441
 121245978.922 6  94477397.72544  23072347.469                    23072357.680
 11  8  9 15 52 30.0000000  0 10G10G06G19G13G03G07G23G32G16G20
 126840878.227 6  98837170.92343  24137036.445                    24137047.098
 115601029.642 7  90078639.70745  21998111.023                    21998119.750
 119179263.456 7  92867048.10845  22679065.844                    22679073.391
 109459629.308 8  85293349.94146  20829494.641                    20829502.672
 110483739.165 8  86091411.53246  21024386.070                    21024394.824
 123152490.697 7  95963023.324 6  23435139.617                    23435148.516
 104995080.716 8  81814337.86947  19979899.719                    19979905.477
 126366823.736 6  98467675.93243  24046816.227                    24046826.273
 111636150.354 7  86989205.29444  21243653.070                    21243660.984
 121333106.175 6  94545289.09244  23088928.305                    23088937.051
 11  8  9 15 53  0.0000000  0 10G10G06G19G13G03G07G23G32G16G20
 126798241.451 6  98803947.45843  24128922.664                    24128933.906
 115597768.532 7  90076098.59345  21997490.477                    21997498.918
 119092878.668 7  92799735.26445  22662627.570                    22662635.492
 109398618.050 8  85245808.71146  20817884.500                    20817892.891
 110446493.195 8  86062388.71746  21017298.445                    21017307.367
 123092317.252 7  95916134.970 6  23423689.398                    23423698.406
 104984316.122 8  81805949.86547  19977851.305                    19977857.117
 126461714.403 6  98541616.63043  24064873.664                    24064883.957
 111706051.002 7  87043673.31844  21256955.281                    21256962.602
 121420357.172 6  94613276.84844  23105530.977                    23105541.016
 11  8  9 15 53 30.0000000  0 10G10G06G19G13G03G07G23G32G16G20
 126756095.021 6  98771106.08044  24120902.734                    24120913.426
 115595053.927 7  90073983.33445  21996973.297                    21996982.977
 119006714.877 7  92732594.64345  22646230.523                    22646238.484
 109337953.204 8  85198537.40946  20806340.516                    20806348.480
 110409806.821 8  86033801.93345  21010317.336                    21010326.113
 123032170.354 7  95869267.280 7  23412243.734                    23412253.320
 104974065.539 8  81797962.38447  19975900.672                    19975906.496
 126556605.509 6  98615557.66943  24082930.469                    24082942.270
 111776270.665 7  87098389.92244  21270317.969                    21270324.852
 121507728.257 7  94681358.09444  23122158.531                    23122167.789
 11  8  9 15 54  0.0000000  0 10G10G06G19G13G03G07G23G32G16G20
 126714440.115 6  98738647.75843  24112976.047                    24112986.691
 115592886.953 7  90072294.78245  21996561.547                    21996570.715
 118920775.407 7  92665628.85944  22629876.305                    22629884.582
 109277637.587 8  85151538.22246  20794862.773                    20794870.820
 110373682.254 8  86005652.92846  21003442.539                    21003451.594
 122972049.779 7  95822420.125 7  23400803.555                    23400812.742
 104964330.259 8  81790376.44647  19974048.172                    19974053.961
 126651494.431 6  98689496.95443  24100988.070                    24100998.797
 111846806.306 7  87153352.72944  21283739.898                    21283747.918
 121595216.286 6  94749530.52744  23138805.656                    23138816.117
 11  8  9 15 54 30.0000000  0 10G10G06G19G13G03G07G23G32G16G20
 126673277.567 6  98706573.11343  24105142.445                    24105153.172
 115591268.230 7  90071033.46645  21996253.273                    21996262.211
 118835063.718 7  92598840.54145  22613567.461                    22613574.051
 109217673.577 8  85104813.04046  20783452.125                    20783459.922
 110338121.651 7  85977943.37445  20996675.672                    20996685.113
 122911955.586 7  95775593.526 7  23389367.227                    23389377.602
 104955112.174 8  81783193.52347  19972293.898                    19972299.785
 126746379.218 6  98763433.03143  24119044.023                    24119054.691
 111917655.678 7  87208560.01844  21297221.531                    21297229.410
 121682819.121 7  94817792.38544  23155477.125                    23155486.125
 11  8  9 15 55  0.0000000  0 10G10G06G19G13G03G07G23G32G16G20
 126632608.605 6  98674883.04743  24097403.719                    24097414.430
 115590198.165 7  90070199.63545  21996049.297                    21996058.516
 118749582.899 7  92532232.11645  22597300.602                    22597308.320
 109158063.760 8  85058363.84046  20772108.391                    20772116.484
 110303126.897 8  85950674.75345  20990016.594                    20990025.668
 122851887.618 7  95728787.367 7  23377937.023                    23377946.539
 104946412.672 8  81776414.67847  19970638.414                    19970644.023
 126841256.946 6  98837363.56143  24137098.875                    24137109.066
 111988815.822 7  87264009.45044  21310763.234                    21310771.309
 121770533.426 6  94886141.09844  23172168.039                    23172177.145
 11  8  9 15 55 30.0000000  0 10G10G06G19G13G03G07G23G32G16G20
 126592434.047 6  98643578.18143  24089759.727                    24089769.773
 115589677.549 8  90069793.96145  21995950.664                    21995959.801
 118664336.351 7  92465806.26745  22581078.016                    22581086.742
 109098810.707 8  85012192.62546  20760833.078                    20760840.820
 110268699.960 7  85923848.57245  20983464.719                    20983473.938
 122791845.334 7  95682001.200 7  23366511.430                    23366520.816
 104938232.884 8  81770040.81147  19969082.023                    19969087.688
 126936125.065 6  98911286.71243  24155151.875                    24155162.008
 112060284.361 7  87319699.18845  21324363.578                    21324371.168
 121858356.294 6  94954574.43844  23188880.289                    23188889.063
 11  8  9 15 56  0.0000000  0 10G10G06G19G13G03G07G23G32G16G20
 126552754.829 6  98612659.35143  24082209.016                    24082218.852
 115589707.191 7  90069817.07045  21995956.172                    21995965.223
 118579327.918 7  92399565.94445  22564901.914                    22564909.742
 109039917.372 8  84966301.72346  20749626.164                    20749634.145
 110234842.989 8  85897466.49845  20977022.523                    20977030.488
 122731829.155 7  95635235.379 7  23355090.336                    23355100.105
 104930574.852 8  81764073.50347  19967625.102                    19967630.699
 127030981.274 6  98985200.54443  24173202.039                    24173212.930
 112132058.719 7  87375627.22445  21338021.859                    21338029.316
 121946284.908 7  95023090.23644  23205613.070                    23205621.941
 11  8  9 15 56 30.0000000  0 10G10G06G19G13G03G07G23G32G16G20
 126513571.474 6  98582126.88843  24074751.867                    24074762.648
 115590287.102 7  90070268.93745  21996066.422                    21996075.488
 118494560.180 7  92333513.16345  22548771.430                    22548779.098
 108981385.439 8  84920692.42646  20738487.961                    20738496.129
 110201556.989 8  85871529.37446  20970688.773                    20970697.754
 122671838.305 6  95588489.286 7  23343674.633                    23343683.598
 104923438.600 8  81758512.77447  19966266.602                    19966272.535
 127125822.532 6  99059102.75943  24191249.906                    24191260.574
 112204135.777 7  87431791.13544  21351737.875                    21351745.715
 122034315.921 6  95091685.74044  23222363.750                    23222374.613
 11  8  9 15 57  0.0000000  0 10G10G06G19G13G03G07G23G32G16G20
 126474885.493 6  98551982.02043  24067390.539                    24067401.031
 115591417.891 7  90071150.06445  21996282.000                    21996290.629
 118410036.544 7  92267650.63845  22532686.797                    22532694.375
 108923217.776 8  84875366.97946  20727418.648                    20727426.727
 110168844.465 7  85846039.12045  20964463.242                    20964472.164
 122611872.816 6  95541762.986 7  23332263.484                    23332272.809
 104916826.164 8  81753360.21446  19965008.477                    19965014.402
 127220646.577 6  99132991.47344  24209294.586                    24209305.582
 112276513.339 7  87488189.22145  21365510.516                    21365517.934
 122122446.391 6  95160358.74144  23239134.898                    23239145.148
 11  8  9 15 57 30.0000000  0 10G10G06G19G13G03G07G23G32G16G20
 126436697.571 6  98522225.24843  24060123.883                    24060133.504
 115593100.405 7  90072461.10845  21996601.727                    21996610.797
 118325760.366 7  92201980.95545  22516649.773                    22516656.563
 108865416.905 8  84830327.33646  20716419.406                    20716427.465
 110136707.332 8  85820997.21146  20958348.125                    20958356.711
 122551932.792 6  95495056.505 7  23320856.664                    23320866.375
 104910739.039 8  81748616.99047  19963849.945                    19963855.742
 127315450.855 6  99206864.81643  24227335.273                    24227346.531
 112349188.628 7  87544819.25944  21379340.484                    21379347.965
 122210673.568 6  95229107.17644  23255923.469                    23255934.801
 11  8  9 15 58  0.0000000  0 10G10G06G19G13G03G07G23G32G16G20
 126399008.416 6  98492857.07043  24052951.047                    24052961.078
 115595334.997 7  90074202.34045  21997027.227                    21997035.449
 118241735.164 7  92136506.79745  22500660.156                    22500666.676
 108807985.386 8  84785575.50146  20705491.047                    20705499.395
 110105147.334 7  85796405.01245  20952342.461                    20952350.512
 122492017.829 6  95448369.544 7  23309455.047                    23309464.586
 104905178.347 8  81744283.97247  19962791.758                    19962798.078
 127410233.061 6  99280720.99243  24245371.320                    24245383.480
 112422159.052 7  87601679.30244  21393225.883                    21393233.508
 122298994.595 6  95297928.63344  23272731.094                    23272741.199
 11  8  9 15 58 30.0000000  0 10G10G06G19G13G03G07G23G32G16G20
 126361819.100 6  98463878.36643  24045875.383                    24045884.211
 115598121.861 7  90076373.92445  21997557.570                    21997565.699
 118157963.449 7  92071230.17944  22484718.617                    22484725.781
 108750925.418 8  84741113.19746  20694632.766                    20694640.723
 110074165.946 8  85772263.69346  20946446.883                    20946455.316
 122432127.563 7  95401701.822 7  23298058.742                    23298068.484
 104900144.937 8  81740361.82447  19961834.125                    19961839.582
 127504990.023 6  99354557.44843  24263403.383                    24263414.867
 112495421.702 7  87658767.06844  21407168.117                    21407174.719
 122387406.136 6  95366820.69544  23289556.195                    23289565.273
 11  8  9 15 59  0.0000000  0 10G10G06G19G13G03G07G23G32G16G20
 126325130.168 6  98435289.64243  24038893.172                    24038902.133
 115601461.557 7  90078976.26745  21998192.641                    21998201.945
 118074449.304 7  92006154.25044  22468826.516                    22468833.766
 108694239.620 8  84696942.45346  20683845.766                    20683853.129
 110043765.137 7  85748574.75445  20940661.750                    20940670.629
 122372261.800 6  95355053.199 7  23286666.375                    23286676.953
 104895640.275 8  81736851.69147  19960976.938                    19960983.043
 127599719.575 6  99428372.56743  24281429.305                    24281441.375
 112568974.378 7  87716080.83744  21421164.672                    21421172.141
 122475905.404 6  95435781.14444  23306396.625                    23306405.711
 11  8  9 15 59 30.0000000  0 10G10G06G19G13G03G07G23G32G16G20
 126288942.358 5  98407091.39043  24032005.656                    24032015.863
 115605354.599 7  90082009.82645  21998933.523                    21998941.848
 117991196.087 7  91941281.61745  22452984.297                    22452991.309
 108637930.891 8  84653065.51846  20673131.180                    20673138.625
 110013946.781 7  85725339.67045  20934987.227                    20934996.066
 122312420.980 6  95308424.036 6  23275278.586                    23275289.270
 104891665.693 8  81733754.61247  19960220.742                    19960226.945
 127694419.278 6  99502164.47743  24299450.375                    24299461.395
 112642814.100 7  87773618.22945  21435215.734                    21435223.359
 122564489.677 6  95504807.74944  23323254.078                    23323262.953
 11  8  9 16  0  0.0000000  0 10G10G06G19G13G03G07G23G32G16G20
 126253256.565 6  98379284.32543  24025214.938                    24025225.949
 115609801.271 7  90085474.77445  21999779.570                    21999788.094
 117908206.782 7  91876614.62745  22437191.883                    22437198.898
 108582001.367 8  84609484.06746  20662487.781                    20662495.434
 109984712.187 7  85702559.47746  20929424.016                    20929432.785
 122252604.691 6  95261813.970 6  23263896.523                    23263905.227
 104888222.390 8  81731071.50347  19959565.438                    19959570.762
 127789086.717 6  99575931.16843  24317465.625                    24317476.699
 112716938.239 7  87831377.27444  21449320.984                    21449328.746
 122653155.755 6  95573898.12943  23340125.859                    23340135.344
 11  8  9 16  0 30.0000000  0 10G10G06G19G13G03G07G23G32G16G20
 126218073.903 6  98351869.26643  24018520.039                    24018531.234
 115614801.932 7  90089371.38645  22000731.133                    22000740.000
 117825484.809 7  91812155.99945  22421450.422                    22421457.516
 108526453.586 8  84566200.07746  20651917.172                    20651925.023
 109956063.129 7  85680235.53045  20923972.695                    20923981.496
 122192812.456 7  95215222.668 6  23252518.570                    23252526.512
 104885311.295 8  81728803.10647  19959011.414                    19959017.262
 127883718.856 6  99649670.37943  24335473.266                    24335484.164
 112791344.424 7  87889356.07744  21463479.727                    21463487.418
 122741900.880 6  95643050.10843  23357013.172                    23357023.168
 11  8  9 16  1  0.0000000  0 10G10G06G19G13G03G07G23G32G16G20
 126183394.314 5  98324846.27343  24011920.695                    24011931.227
 115620356.833 7  90093699.88245  22001788.539                    22001797.469
 117743033.161 7  91747908.00245  22405760.102                    22405767.926
 108471289.684 8  84523215.22746  20641419.648                    20641427.684
 109928001.501 7  85658369.32345  20918632.414                    20918641.668
 122133044.287 7  95168650.040 6  23241145.117                    23241152.793
 104882933.597 8  81726950.34447  19958559.031                    19958564.988
 127978313.466 6  99723380.31543  24353474.477                    24353485.633
 112866029.705 7  87947552.37144  21477692.625                    21477699.277
 122830721.888 6  95712261.23144  23373915.797                    23373924.941
 11  8  9 16  1 30.0000000  0 10G10G06G19G13G03G07G23G32G16G20
 126149219.301 6  98298216.44543  24005416.977                    24005428.113
 115626466.560 7  90098460.71345  22002951.070                    22002960.184
 117660855.218 7  91683873.27745  22390122.664                    22390130.047
 108416512.729 8  84480531.90046  20630996.156                    20631004.125
 109900529.184 7  85636962.30745  20913404.586                    20913413.691
 122073300.399 7  95122096.367 6  23229776.141                    23229784.043
 104881090.954 8  81725514.50047  19958208.258                    19958214.367
 128072868.497 6  99797059.38243  24371468.586                    24371478.289
 112940991.534 7  88005964.17444  21491957.148                    21491964.535
 122919616.119 6  95781529.39044  23390831.984                    23390841.766
 11  8  9 16  2  0.0000000  0 10G10G06G19G13G03G07G23G32G16G20
 126115548.973 6  98271979.86843  23999009.867                    23999020.598
 115633130.879 7  90103653.68245  22004219.461                    22004227.738
 117578954.267 7  91620054.39645  22374537.227                    22374544.363
 108362124.553 8  84438151.50246  20620646.539                    20620654.254
 109873646.722 7  85616014.92346  20908289.242                    20908298.113
 122013579.980 7  95075560.994 6  23218411.938                    23218420.918
 104879783.569 8  81724495.74347  19957959.547                    19957965.387
 128167380.630 6  99870705.11143  24389453.031                    24389462.309
 113016227.321 7  88064589.42844  21506274.203                    21506281.711
 123008580.184 6  95850851.95543  23407761.656                    23407771.637
 11  8  9 16  2 30.0000000  0 10G10G06G19G13G03G07G23G32G16G20
 126082384.236 6  98246137.21043  23992699.313                    23992710.078
 115640350.118 7  90109279.04645  22005592.820                    22005601.715
 117497333.669 7  91556453.99445  22359004.969                    22359012.691
 108308128.173 8  84396076.39046  20610371.430                    20610379.488
 109847356.276 8  85595528.86246  20903286.375                    20903295.051
 121953883.145 7  95029044.034 7  23207051.813                    23207061.438
 104879012.922 8  81723895.23047  19957812.977                    19957818.738
 128261847.518 6  99944315.51743  24407430.008                    24407439.188
 113091734.413 7  88123426.10344  21520642.094                    21520650.191
 123097611.258 7  95920226.83844  23424704.398                    23424713.887
 11  8  9 16  3  0.0000000  0 10G10G06G19G13G03G07G23G32G16G20
 126049725.659 6  98220688.97243  23986485.508                    23986495.090
 115648124.776 7  90115337.21545  22007072.711                    22007081.563
 117415996.559 7  91493074.46145  22343527.234                    22343534.977
 108254525.635 8  84354308.18046  20600171.227                    20600179.129
 109821659.324 7  85575505.25546  20898396.477                    20898404.887
 121894210.271 7  94982545.707 7  23195696.742                    23195706.137
 104878780.344 8  81723713.98847  19957768.453                    19957774.723
 128356267.006 6 100017889.03043  24425397.305                    24425405.930
 113167509.974 7  88182471.95044  21535061.750                    21535069.348
 123186706.666 6  95989651.71944  23441657.945                    23441667.547
 11  8  9 16  3 30.0000000  0 10G10G06G19G13G03G07G23G32G16G20
 126017573.569 6  98195635.41643  23980366.570                    23980376.984
 115656454.723 7  90121828.08545  22008657.953                    22008666.906
 117334946.073 7  91429918.25445  22328103.867                    22328110.652
 108201319.302 8  84312848.71246  20590046.227                    20590054.152
 109796557.324 8  85555945.25046  20893619.688                    20893628.207
 121834560.806 7  94936065.637 7  23184346.008                    23184354.438
 104879086.362 8  81723952.42547  19957826.547                    19957833.176
 128450636.321 6 100091423.43143  24443354.992                    24443365.184
 113243551.485 7  88241725.06244  21549532.094                    21549540.051
 123275863.659 6  96059124.60044  23458623.891                    23458633.727
 11  8  9 16  4  0.0000000  0 10G10G06G19G13G03G07G23G32G16G20
 125985928.863 6  98170977.27043  23974344.648                    23974355.984
 115665340.333 7  90128751.93145  22010348.563                    22010356.859
 117254185.484 7  91366987.93845  22312735.094                    22312742.180
 108148511.806 8  84271700.01246  20579997.133                    20580004.836
 109772051.926 7  85536850.12945  20888956.133                    20888965.066
 121774934.667 7  94889603.686 6  23172999.641                    23173007.625
 104879931.986 8  81724611.33447  19957987.781                    19957993.871
 128544952.918 6 100164916.77442  24461302.266                    24461313.957
 113319856.595 7  88301183.54744  21564052.305                    21564059.828
 123365078.901 6  96128642.92044  23475601.625                    23475610.168
 11  8  9 16  4 30.0000000  0 10G10G06G19G13G03G07G23G32G16G20
 125954793.15116  98146715.92453  23968419.570                    23968430.633
 115674781.779 7  90136108.87745  22012144.969                    22012154.500
 117173718.313 7  91304286.25445  22297422.992                    22297429.332
 108096105.693 8  84230864.07846  20570024.750                    20570032.402
 109748144.577 7  85518221.01645  20884407.211                    20884415.645
 121715331.874 7  94843159.978 7  23161656.344                    23161666.027
 104881318.706 8  81725691.89147  19958251.422                    19958257.527
 128639214.66115 100238367.32353  24479239.633                    24479251.621
 113396422.367 7  88360845.17544  21578623.023                    21578630.031
 123454349.624 6  96198204.50544  23492588.125                    23492597.465
 11  8  9 16  5  0.0000000  0 10G10G06G19G13G03G07G23G32G16G20
 125924164.971 6  98122849.82643  23962591.313                    23962600.863
 115684779.199 7  90143899.05845  22014047.266                    22014056.609
 117093547.915 7  91241815.87145  22282167.117                    22282173.645
 108044103.688 8  84190343.04046  20560129.219                    20560137.156
 109724837.077 7  85500059.32045  20879971.758                    20879979.938
 121655752.227 6  94796734.304 7  23150318.906                    23150328.215
 104883247.316 8  81727194.69147  19958618.820                    19958624.941
 128733419.028 6 100311773.19643  24497166.164                    24497178.188
 113473246.357 7  88420708.04744  21593241.367                    21593248.969
 123543672.934 6  96267806.98144  23509586.422                    23509595.879
 11  8  9 16  5 30.0000000  0 10G10G06G19G13G03G07G23G32G16G20
 125894045.934 6  98099380.44543  23956860.000                    23956868.348
 115695332.738 7  90152122.56445  22016055.828                    22016064.789
 117013677.181 7  91179578.98245  22266968.656                    22266976.168
 107992507.997 8  84150138.61646  20550310.828                    20550318.621
 109702130.402 7  85482365.79045  20875650.781                    20875659.457
 121596195.869 7  94750326.798 7  23138986.148                    23138995.090
 104885718.654 8  81729120.38247  19959088.898                    19959094.652
 128827563.602 6 100385132.38943  24515081.445                    24515093.410
 113550325.896 7  88480769.98644  21607909.477                    21607917.648
 123633045.914 6  96337448.20943  23526593.641                    23526602.367
 11  8  9 16  6  0.0000000  0 10G10G06G19G13G03G07G23G32G16G20
 125864436.386 6  98076308.03143  23951225.438                    23951233.805
 115706442.068 7  90160779.17345  22018170.477                    22018178.906
 116934109.532 7  91117578.28045  22251827.344                    22251834.211
 107941320.224 8  84110252.04446  20540570.000                    20540578.160
 109680025.780 7  85465141.42645  20871443.969                    20871452.762
 121536662.476 7  94703937.175 7  23127657.625                    23127666.586
 104888733.683 8  81731469.75147  19959662.695                    19959668.371
 128921645.641 6 100458442.90743  24532985.227                    24532996.281
 113627658.458 7  88541029.08544  21622625.227                    21622633.828
 123722465.486 6  96407125.76343  23543609.117                    23543618.273
 11  8  9 16  6 30.0000000  0 10G10G06G19G13G03G07G23G32G16G20
 125835336.894 6  98053633.14543  23945687.563                    23945696.578
 115718107.563 7  90169869.14345  22020389.555                    22020399.211
 116854848.042 7  91055816.16245  22236743.633                    22236750.668
 107890543.528 8  84070685.79146  20530907.320                    20530915.453
 109658524.726 7  85448387.33945  20867352.742                    20867361.258
 121477152.141 7  94657565.536 7  23116332.672                    23116342.051
 104892293.590 8  81734243.68047  19960340.258                    19960345.914
 129015662.810 6 100531702.95043  24550876.648                    24550887.563
 113705241.266 7  88601483.20644  21637388.805                    21637396.988
 123811929.281 6  96476837.72843  23560632.828                    23560644.641
 11  8  9 16  7  0.0000000  0 10G10G06G19G13G03G07G23G32G16G20
 125806747.830 6  98031355.94843  23940247.406                    23940257.195
 115730329.160 7  90179392.40545  22022716.063                    22022725.078
 116775895.932 7  90994295.07345  22221719.961                    22221726.949
 107840180.082 8  84031441.55146  20521323.766                    20521332.121
 109637628.527 7  85432104.58045  20863376.313                    20863385.258
 121417664.595 7  94611211.617 6  23105012.266                    23105021.305
 104896398.928 8  81737442.62547  19961121.617                    19961127.031
 129109612.634 6 100604910.42443  24568754.297                    24568766.945
 113783071.638 7  88662130.21244  21652199.352                    21652207.836
 123901434.239 6  96546581.79243  23577665.719                    23577675.883
 11  8  9 16  7 30.0000000  0 10G10G06G19G13G03G07G23G32G16G20
 125778669.831 6  98009477.02443  23934904.492                    23934913.465
 115743106.894 7  90189349.08445  22025146.734                    22025155.910
 116697256.785 7  90933017.83745  22206755.430                    22206762.438
 107790232.702 8  83992521.52146  20511819.180                    20511826.801
 109617338.722 8  85416294.34545  20859515.359                    20859524.305
 121358200.039 7  94564875.655 7  23093696.602                    23093705.977
 104901050.831 8  81741067.46847  19962006.727                    19962012.699
 129203492.893 5 100678063.67643  24586618.930                    24586631.824
 113861147.339 7  88722968.39244  21667057.141                    21667065.109
 123990977.498 6  96616355.65743  23594705.797                    23594714.984
 11  8  9 16  8  0.0000000  0 10G10G06G19G13G03G07G23G32G16G20
 125751102.982 6  97987996.38343  23929658.445                    23929668.559
 115756440.758 7  90199739.07645  22027684.422                    22027693.648
 116618933.448 7  90871986.72345  22191850.398                    22191857.605
 107740703.490 8  83953927.32646  20502393.977                    20502401.961
 109597656.573 8  85400957.58946  20855770.359                    20855778.883
 121298758.275 7  94518557.428 7  23082385.688                    23082394.793
 104906249.861 8  81745118.63547  19962996.211                    19963001.898
 129297300.913 6 100751160.63943  24604470.898                    24604482.500
 113939465.536 7  88783995.53744  21681960.969                    21681968.387
 124080555.780 7  96686156.88144  23611752.313                    23611760.789
 11  8  9 16  8 30.0000000  0 10G10G06G19G13G03G07G23G32G16G20
 125724047.723 6  97966914.38243  23924510.734                    23924519.859
 115770330.639 7  90210562.33945  22030327.461                    22030337.277
 116540929.187 7  90811204.22245  22177006.875                    22177014.063
 107691594.858 8  83915660.86246  20493048.992                    20493056.793
 109578582.930 8  85386094.99446  20852140.492                    20852148.953
 121239339.242 7  94472256.888 7  23071079.094                    23071087.988
 104911997.209 8  81749597.06047  19964089.992                    19964095.438
 129391034.501 6 100824199.60343  24622306.930                    24622319.473
 114018023.870 7  88845209.80244  21696910.219                    21696917.598
 124170166.933 6  96755983.67243  23628804.906                    23628814.250
 11  8  9 16  9  0.0000000  0 10G10G06G19G13G03G07G23G32G16G20
 125697504.515 6  97946231.39543  23919459.445                    23919468.938
 115784776.292 7  90221818.67645  22033076.227                    22033085.590
 116463247.368 7  90750672.96645  22162224.484                    22162232.559
 107642908.983 8  83877723.82246  20483784.234                    20483792.184
 109560119.090 8  85371707.57746  20848626.953                    20848635.617
 121179942.790 7  94425973.960 7  23059775.727                    23059785.258
 104918293.343 8  81754503.12247  19965288.000                    19965293.523
 129484690.973 6 100897178.54343  24640130.406                    24640142.297
 114096819.542 7  88906608.98344  21711904.016                    21711910.586
 124259807.705 7  96825833.54344  23645863.102                    23645872.676
 11  8  9 16  9 30.0000000  0 10G10G06G19G13G03G07G23G32G16G20
 125671474.090 6  97925947.92043  23914505.641                    23914515.980
 115799777.836 7  90233508.16345  22035931.477                    22035940.055
 116385891.000 7  90690395.35245  22147504.484                    22147511.824
 107594648.468 8  83840118.20846  20474600.898                    20474608.289
 109542266.839 8  85357796.71746  20845230.078                    20845238.738
 121120568.891 7  94379708.630 7  23048477.602                    23048486.398
 104925139.037 8  81759837.42147  19966590.766                    19966597.070
 129578267.901 6 100970095.45843  24657937.180                    24657949.344
 114175849.870 7  88968191.03644  21726943.219                    21726949.707
 124349474.888 7  96895704.03344  23662926.688                    23662935.723
 11  8  9 16 10  0.0000000  0 10G10G06G19G13G03G07G23G32G16G20
 125645956.230 6  97906063.89743  23909648.930                    23909659.285
 115815335.067 7  90245630.68945  22038891.609                    22038900.379
 116308863.242 7  90630373.75145  22132846.219                    22132853.156
 107546815.372 8  83802845.67246  20465498.164                    20465506.340
 109525026.854 7  85344362.94445  20841949.164                    20841957.527
 121061217.704 7  94333460.999 6  23037183.008                    23037192.133
 104932535.144 8  81765600.59947  19967997.875                    19968003.996
 129671763.036 6 101042948.62843  24675729.531                    24675741.297
 114255112.321 7  89029953.93244  21742026.172                    21742033.660
 124439165.943 7  96965593.16544  23679993.805                    23680003.277
 11  8  9 16 10 30.0000000  0 10G10G06G19G13G03G07G23G32G16G20
 125620951.195 6  97886579.45743  23904890.727                    23904901.063
 115831447.766 7  90258186.00645  22041957.695                    22041966.906
 116232167.272 7  90570610.69745  22118251.688                    22118257.848
 107499412.237 8  83765908.16746  20456477.852                    20456486.207
 109508400.062 8  85331406.98646  20838785.234                    20838794.008
 121001889.196 7  94287231.000 7  23025892.898                    23025901.797
 104940482.357 8  81771793.21247  19969510.492                    19969516.473
 129765173.728 6 101115736.04044  24693505.445                    24693516.508
 114334604.499 7  89091895.84643  21757153.398                    21757160.133
 124528878.274 6  97035498.78443  23697065.313                    23697075.859
 11  8  9 16 11  0.0000000  0 10G10G06G19G13G03G07G23G32G16G20
 125596459.456 6  97867494.98443  23900230.750                    23900240.434
 115848115.678 7  90271173.98045  22045129.852                    22045137.809
 116155806.307 7  90511108.68645  22103720.578                    22103727.273
 107452441.349 8  83729307.48046  20447539.531                    20447547.172
 109492387.841 7  85318929.91445  20835737.898                    20835747.332
 120942583.193 7  94241018.555 6  23014608.094                    23014616.234
 104948981.263 8  81778415.73846  19971127.398                    19971133.336
 129858497.611 6 101188455.76443  24711263.875                    24711275.492
 114414323.649 7  89154014.61643  21772323.648                    21772330.031
 124618608.300 7  97105418.23143  23714140.414                    23714150.742
 11  8  9 16 11 30.0000000  0 10G10G06G19G13G03G07G23G32G16G20
 125572481.623 6  97848811.02243  23895668.555                    23895677.254
 115865339.104 7  90284594.81845  22048407.109                    22048415.922
 116079783.478 7  90451870.14145  22089254.164                    22089260.434
 107405905.417 8  83693045.71946  20438684.141                    20438691.523
 109476991.400 7  85306932.68045  20832808.398                    20832817.375
 120883299.915 7  94194823.819 6  23003326.492                    23003334.918
 104958033.033 8  81785469.04147  19972849.789                    19972856.191
 129951732.784 6 101261106.36843  24729005.930                    24729017.582
 114494267.634 7  89216308.61744  21787536.250                    21787542.531
 124708353.985 7  97175349.87543  23731218.547                    23731228.996
 11  8  9 16 12  0.0000000  0 10G10G06G19G13G03G07G23G32G16G20
 125549017.410 6  97830527.21643  23891202.883                    23891212.938
 115883117.218 7  90298447.88245  22051790.641                    22051799.305
 116004102.258 7  90392897.78445  22074852.297                    22074859.102
 107359806.357 8  83657124.37646  20429911.586                    20429919.398
 109462211.493 8  85295415.86845  20829995.742                    20830004.215
 120824039.463 7  94148646.877 7  22992049.477                    22992058.102
 104967638.088 8  81792953.47346  19974677.922                    19974683.840
 130044876.470 6 101333685.65043  24746730.484                    24746742.398
 114574433.521 7  89278775.49544  21802790.695                    21802798.340
 124798112.127 7  97245291.28143  23748299.328                    23748307.887
 11  8  9 16 12 30.0000000  0 10G10G06G19G13G03G07G23G32G16G20
 125526067.249 6  97812644.00343  23886834.820                    23886845.773
 115901450.002 7  90312733.13445  22055279.008                    22055287.988
 115928765.748 7  90334194.06045  22060515.445                    22060522.879
 107314146.518 8  83621545.27746  20421223.016                    20421230.480
 109448049.093 7  85284380.22945  20827300.648                    20827309.512
 120764801.583 7  94102487.467 6  22980777.203                    22980785.410
 104977796.975 8  81800869.47947  19976610.867                    19976617.031
 130137926.416 6 101406191.88043  24764438.086                    24764449.750
 114654818.874 7  89341413.35344  21818087.750                    21818095.637
 124887880.120 6  97315240.31743  23765381.234                    23765390.371
 11  8  9 16 13  0.0000000  0  9G10G06G19G13G03G07G23G16G20
 125503631.696 6  97795161.70243  23882565.492                    23882574.902
 115920337.674 7  90327450.77045  22058872.492                    22058882.313
 115853777.356 7  90275761.57745  22046245.563                    22046252.914
 107268928.694 8  83586310.59646  20412618.148                    20412625.328
 109434505.993 8  85273827.15845  20824723.758                    20824732.469
 120705586.269 7  94056345.712 6  22969508.453                    22969517.672
 104988510.927 8  81809217.99247  19978649.836                    19978656.055
 114735421.656 7  89404220.69344  21833425.938                    21833434.543
 124977655.631 6  97385195.14243  23782464.719                    23782474.746
 11  8  9 16 13 30.0000000  0  9G10G06G19G13G03G07G23G16G20
 125481710.583 6  97778080.30243  23878394.820                    23878403.969
 115939779.521 7  90342600.24745  22062573.664                    22062582.184
 115779140.033 7  90217602.62645  22032043.211                    22032050.305
 107224154.843 8  83551421.89346  20404098.219                    20404106.066
 109421582.737 7  85263757.11045  20822264.039                    20822273.254
 120646394.024 7  94010221.894 6  22958244.625                    22958252.645
 104999780.323 8  81817999.31947  19980794.398                    19980800.492
 114816238.838 7  89467195.09444  21848805.539                    21848812.754
 125067435.282 6  97455153.17443  23799550.625                    23799559.492
 11  8  9 16 14  0.0000000  0  9G10G06G19G13G03G07G23G16G20
 125460303.892 6  97761399.77643  23874321.461                    23874330.684
 115959775.031 7  90358181.14445  22066377.945                    22066386.961
 115704856.540 7  90159719.40445  22017906.797                    22017914.672
 107179827.047 8  83516880.75746  20395663.023                    20395671.242
 109409279.946 7  85254170.51245  20819923.406                    20819932.320
 120587224.357 7  93964115.683 6  22946984.594                    22946993.582
 105011605.282 8  81827213.55147  19983044.477                    19983050.465
 114897267.607 7  89530334.34644  21864224.516                    21864232.723
 125157216.009 6  97525112.09343  23816635.125                    23816643.484
 11  8  9 16 14 30.0000000  0  9G10G06G19G13G03G07G23G16G20
 125439411.968 6  97745120.33743  23870345.211                    23870354.941
 115980323.804 7  90374193.14045  22070288.102                    22070297.168
 115630929.908 7  90102114.28145  22003839.398                    22003846.934
 107135947.654 8  83482689.02946  20387312.836                    20387321.156
 109397598.629 8  85245068.18746  20817700.391                    20817709.352
 120528077.361 7  93918027.131 7  22935729.586                    22935738.402
 105023986.361 8  81836861.12247  19985400.563                    19985406.508
 114978505.656 7  89593636.68544  21879683.313                    21879691.074
 125246995.431 6  97595070.03143  23833719.000                    23833728.188
 11  8  9 16 15  0.0000000  0  9G10G06G19G13G03G07G23G16G20
 125419034.734 6  97729241.99543  23866466.344                    23866478.660
 116001425.536 7  90390636.00445  22074303.500                    22074312.766
 115557363.477 7  90044789.79245  21989840.430                    21989847.691
 107092518.857 7  83448848.41346  20379048.438                    20379056.465
 109386539.649 7  85236450.81346  20815595.820                    20815604.656
 120468952.999 7  93871956.213 6  22924478.102                    22924487.020
 105036924.188 8  81846942.52847  19987862.656                    19987868.852
 115059950.534 7  89657100.20744  21895182.258                    21895189.949
 125336770.302 7  97665024.40044  23850802.734                    23850814.059
 11  8  9 16 15 30.0000000  0  9G10G06G19G13G03G07G23G16G20
 125399172.628 6  97713765.07743  23862688.031                    23862698.633
 116023079.805 7  90407509.44045  22078424.461                    22078433.492
 115484160.483 7  89987748.54445  21975909.859                    21975917.469
 107049543.141 7  83415360.84146  20370870.453                    20370878.473
 109376103.855 8  85228319.00846  20813610.320                    20813618.723
 120409851.393 7  93825903.043 7  22913231.672                    22913240.766
 105050419.271 8  81857458.16647  19990430.641                    19990436.793
 115141599.758 7  89720722.93444  21910718.859                    21910727.359
 125426538.081 6  97734973.19344  23867884.633                    23867896.344
 11  8  9 16 16  0.0000000  0  9G10G06G19G13G03G07G23G16G20
 125379825.174 6  97698689.12443  23859006.836                    23859015.734
 116045286.072 7  90424812.99545  22082650.008                    22082659.152
 115411323.593 7  89930992.55645  21962049.922                    21962057.027
 107007022.179 8  83382227.62146  20362779.273                    20362787.203
 109366292.047 8  85220673.45946  20811742.820                    20811751.957
 120350772.322 7  93779867.424 6  22901989.227                    22901998.168
 105064471.745 8  81868408.13047  19993104.758                    19993110.918
 115223450.385 7  89784502.61644  21926295.141                    21926302.844
 125516295.916 6  97804914.27243  23884965.867                    23884975.703
 11  8  9 16 16 30.0000000  0  9G10G06G19G13G03G07G23G16G20
 125360992.642 6  97684014.45143  23855422.430                    23855432.508
 116068044.342 7  90442546.69745  22086981.406                    22086990.461
 115338856.651 7  89874524.81345  21948258.953                    21948266.621
 106964958.955 8  83349451.07846  20354774.727                    20354782.457
 109357105.374 7  85213515.00845  20809994.773                    20810003.695
 120291716.372 7  93733849.827 7  22890751.523                    22890760.098
 105079082.911 8  81879793.44347  19995885.453                    19995891.527
 115305500.389 7  89848437.64244  21941909.234                    21941916.391
 125606041.557 7  97874845.91543  23902043.266                    23902052.781
 11  8  9 16 17  0.0000000  0  9G10G06G19G13G03G07G23G16G20
 125342674.991 6  97669740.93143  23851936.430                    23851946.914
 116091354.053 7  90460710.08145  22091416.773                    22091425.586
 115266762.398 7  89818347.51645  21934540.055                    21934547.887
 106923355.493 7  83317032.80446  20346857.875                    20346866.020
 109348544.227 7  85206843.98446  20808365.547                    20808374.715
 120232683.472 7  93687850.184 7  22879518.125                    22879526.711
 105094252.837 8  81891614.14547  19998771.602                    19998778.227
 115387747.264 7  89912526.10844  21957559.500                    21957567.918
 125695771.784 7  97944765.57843  23919118.570                    23919127.766
 11  8  9 16 17 30.0000000  0 10G10G06G19G13G03G07G23G08G16G20
 125324872.493 6  97655868.87143  23848549.125                    23848559.902
 116115214.421 7  90479302.53945  22095957.641                    22095966.086
 115195043.675 7  89762462.81345  21920892.555                    21920899.402
 106882213.781 8  83284974.33646  20339028.805                    20339036.984
 109340609.514 7  85200661.08545  20806855.836                    20806864.297
 120173673.564 7  93641868.465 7  22868288.547                    22868298.035
 105109981.815 8  81903870.49046  20001765.000                    20001771.273
 131299163.66616                  24985407.523
 115470188.386 7  89976765.90744  21973247.438                    21973256.027
 125785483.573 6  98014670.76743  23936190.344                    23936199.594
 11  8  9 16 18  0.0000000  0 10G10G06G19G13G03G07G23G08G16G20
 125307584.978 6  97642398.05343  23845259.789                    23845269.383
 116139625.217 7  90498323.94245  22100602.664                    22100611.797
 115123703.939 7  89706873.42545  21907317.156                    21907323.871
 106841536.561 7  83253277.78946  20331288.336                    20331296.246
 109333302.031 7  85194966.94745  20805464.758                    20805473.727
 120114687.023 7  93595904.970 7  22857064.172                    22857073.348
 105126270.727 8  81916563.13647  20004864.930                    20004870.824
 131233436.253 6 102259890.92452  24972900.445                    24972910.852
 115552821.558 7  90041155.36244  21988972.914                    21988980.094
 125875175.042 6  98084560.16943  23953257.883                    23953267.621
 11  8  9 16 18 30.0000000  0 10G10G06G19G13G03G07G23G08G16G20
 125290812.351 6  97629328.51543  23842067.102                    23842077.449
 116164585.836 7  90517773.74645  22105352.500                    22105362.031
 115052745.953 7  89651581.51445  21893815.000                    21893821.945
 106801325.660 8  83221944.63546  20323636.313                    20323644.516
 109326622.408 8  85189762.02045  20804193.938                    20804202.594
 120055723.733 7  93549959.562 6  22845843.461                    22845852.313
 105143119.624 8  81929692.13746  20008071.023                    20008077.254
 131167670.105 6 102208644.60742  24960385.797                    24960396.898
 115635644.054 7  90105692.33544  22004732.867                    22004740.926
 125964842.662 7  98154431.00543  23970321.313                    23970331.660
 11  8  9 16 19  0.0000000  0 10G10G06G19G13G03G07G23G08G16G20
 125274554.232 6  97616659.86143  23838973.609                    23838983.973
 116190095.247 7  90537651.19745  22110206.414                    22110215.730
 114982173.052 7  89596589.68145  21880385.102                    21880391.598
 106761583.103 7  83190976.41046  20316073.859                    20316081.797
 109320570.848 7  85185046.52845  20803042.305                    20803051.492
 119996783.656 7  93504032.262 7  22834627.328                    22834636.363
 105160528.671 8  81943257.59347  20011384.195                    20011390.270
 131101864.200 6 102157367.32542  24947863.391                    24947874.363
 115718653.350 7  90170374.88244  22020528.781                    22020535.914
 126054483.860 6  98224281.22243  23987378.977                    23987388.508
 11  8  9 16 19 30.0000000  0 10G10G06G19G13G03G07G23G08G16G20
 125258810.760 6  97604392.24743  23835977.477                    23835988.254
 116216153.237 7  90557956.12545  22115165.711                    22115175.324
 114911987.778 7  89541899.85545  21867028.992                    21867036.137
 106722310.889 7  83160374.67646  20308600.250                    20308608.078
 109315148.096 8  85180821.01945  20802010.648                    20802019.508
 119937867.008 7  93458123.214 7  22823415.906                    22823425.281
 105178498.020 8  81957259.66346  20014803.344                    20014809.348
 131036018.262 6 102106058.86043  24935333.031                    24935344.418
 115801847.044 7  90235201.10444  22036360.422                    22036367.035
 126144095.735 6  98294108.63543  24004431.602                    24004441.059
 11  8  9 16 20  0.0000000  0 10G10G06G19G13G03G07G23G08G16G20
 125243581.892 6  97592525.57143  23833080.273                    23833089.691
 116242759.150 7  90578687.98245  22120228.672                    22120237.613
 114842193.456 7  89487514.70045  21853747.625                    21853755.094
 106683511.416 7  83130141.31346  20301217.016                    20301224.883
 109310355.180 7  85177086.27745  20801098.586                    20801106.793
 119878973.953 7  93412232.557 7  22812208.813                    22812218.328
 105197028.488 8  81971698.96246  20018329.570                    20018335.586
 130970131.839 6 102054718.89742  24922794.789                    24922805.934
 115885222.722 7  90300169.15644  22052227.227                    22052233.469
 126233676.172 6  98363911.49843  24021478.109                    24021488.531
 11  8  9 16 20 30.0000000  0 10G10G06G19G13G03G07G23G08G16G20
 125228867.523 6  97581059.80043  23830280.281                    23830290.152
 116269912.681 7  90599846.57145  22125395.422                    22125404.500
 114772793.088 7  89433436.50046  21840541.758                    21840548.426
 106645187.189 7  83100278.28346  20293924.164                    20293931.719
 109306192.361 7  85173842.54045  20800306.586                    20800314.941
 119820104.587 7  93366360.320 7  22801006.086                    22801015.480
 105216120.464 8  81986575.81546  20021962.734                    20021968.648
 130904204.363 6 102003346.96643  24910249.859                    24910260.277
 115968778.070 7  90365277.17344  22068126.273                    22068134.063
 126323222.564 6  98433687.72643  24038519.016                    24038528.566
 11  8  9 16 21  0.0000000  0 10G10G06G19G13G03G07G23G08G16G20
 125214667.336 6  97569994.74443  23827578.156                    23827587.609
 116297612.514 7  90621430.84845  22130666.500                    22130676.078
 114703789.497 7  89379667.45546  21827410.820                    21827417.699
 106607339.907 7  83070786.88946  20286721.828                    20286729.910
 109302660.068 7  85171090.10245  20799634.375                    20799642.762
 119761258.841 7  93320506.503 7  22789808.672                    22789817.910
 105235773.577 8  82001889.89846  20025702.609                    20025708.645
 130838235.471 6 101951942.67143  24897695.641                    24897706.629
 116052510.211 7  90430522.94944  22084059.797                    22084068.477
 126412731.616 5  98503434.91543  24055551.297                    24055562.406
 11  8  9 16 21 30.0000000  0 10G10G06G19G13G03G07G23G08G16G20
 125200981.273 7  97559330.31743  23824973.977                    23824982.199
 116325858.431 7  90643440.64845  22136041.531                    22136050.734
 114635186.146 7  89326210.32545  21814355.664                    21814362.801
 106569971.783 7  83041668.86446  20279610.719                    20279618.215
 109299758.899 7  85168829.46545  20799082.273                    20799090.793
 119702436.986 7  93274671.300 7  22778615.406                    22778624.477
 105255988.314 8  82017641.64346  20029549.180                    20029555.527
 130772224.927 6 101900505.93743  24885134.695                    24885145.801
 116136416.883 7  90495904.72244  22100027.016                    22100034.969
 126502200.160 5  98573150.57543  24072576.945                    24072588.141
 11  8  9 16 22  0.0000000  0 10G10G06G19G13G03G07G23G08G16G20
 125187809.026 7  97549066.16243  23822467.492                    23822476.941
 116354649.348 7  90665875.13045  22141520.359                    22141529.492
 114566985.795 7  89273067.19945  21801377.281                    21801383.840
 106533084.674 7  83012925.65646  20272591.305                    20272599.063
 109297489.187 8  85167060.85845  20798650.031                    20798658.555
 119643639.082 7  93228854.806 7  22767426.250                    22767435.441
 105276764.832 8  82033831.12246  20033503.109                    20033509.582
 130706172.381 6 101849036.47643  24872564.664                    24872576.609
 116220495.808 7  90561420.74345  22116027.438                    22116034.590
 126591626.467 5  98642833.26243  24089593.680                    24089604.973
 11  8  9 16 22 30.0000000  0 10G10G06G19G13G03G07G23G08G16G20
 125175150.088 6  97539202.04443  23820058.703                    23820068.594
 116383984.844 7  90688733.93345  22147103.070                    22147110.969
 114499191.173 7  89220240.25045  21788476.094                    21788483.156
 106496680.855 7  82984559.04046  20265663.719                    20265672.035
 109295851.674 7  85165784.85745  20798338.391                    20798346.867
 119584865.447 7  93183057.177 7  22756242.219                    22756251.484
 105298103.488 8  82050458.63746  20037563.133                    20037569.535
 130640077.235 6 101797533.84043  24859987.336                    24859999.195
 116304744.391 7  90627068.94444  22132058.938                    22132067.227
 126681007.570 6  98712480.80544  24106603.063                    24106614.246
 11  8  9 16 23  0.0000000  0 10G10G06G19G13G03G07G23G08G16G20
 125163004.788 6  97529738.20043  23817747.867                    23817756.941
 116413864.101 7  90712016.46745  22152788.836                    22152797.008
 114431805.262 7  89167731.76845  21775653.344                    21775660.254
 106460762.824 7  82956570.95846  20258829.336                    20258836.852
 109294846.686 7  85165001.77145  20798147.141                    20798156.012
 119526116.341 7  93137278.666 7  22745062.680                    22745071.742
 105320004.451 8  82067524.31246  20041731.273                    20041737.543
 130573939.623 6 101745998.09043  24847402.469                    24847413.184
 116389160.382 7  90692847.58844  22148122.625                    22148131.348
 126770340.641 6  98782090.89944  24123603.148                    24123614.211
 11  8  9 16 23 30.0000000  0 10G10G06G19G13G03G07G23G08G16G20
 125151371.979 7  97520673.70643  23815533.445                    23815543.418
 116444286.056 7  90735721.88145  22158577.844                    22158587.223
 114364830.974 7  89115544.03145  21762908.789                    21762915.219
 106425331.866 7  82928962.41446  20252086.766                    20252094.934
 109294474.468 8  85164711.71545  20798076.234                    20798085.039
 119467391.465 7  93091519.042 7  22733887.539                    22733896.516
 105342467.420 8  82085027.91847  20046005.648                    20046012.230
 130507758.840 6 101694428.66543  24834807.727                    24834819.492
 116473741.110 7  90758754.61044  22164217.680                    22164225.957
 126859622.868 6  98851661.40244  24140592.813                    24140603.895
 11  8  9 16 24  0.0000000  0 10G10G06G19G13G03G07G23G08G16G20
 125140251.704 6  97512008.57243  23813416.719                    23813427.793
 116475250.058 7  90759849.66045  22164470.023                    22164478.813
 114298271.268 7  89063679.35445  21750242.766                    21750249.953
 106390390.042 7  82901735.01546  20245437.820                    20245445.461
 109294735.328 8  85164914.96545  20798125.930                    20798134.293
 119408691.070 7  93045778.537 7  22722716.852                    22722726.039
 105365492.572 8  82102969.57346  20050387.500                    20050393.699
 130441534.552 6 101642825.40543  24822206.266                    24822217.574
 116558484.308 7  90824788.25744  22180344.219                    22180351.406
 126948851.773 6  98921190.33043  24157571.945                    24157582.859
 11  8  9 16 24 30.0000000  0 10G10G06G19G13G03G07G23G08G16G20
 125129643.912 6  97503742.74343  23811398.047                    23811408.816
 116506755.405 7  90784399.27645  22170464.992                    22170473.891
 114232129.298 7  89012140.18345  21737656.414                    21737663.301
 106355940.010 7  82874890.82446  20238881.914                    20238890.012
 109295629.786 8  85165611.93945  20798296.219                    20798304.910
 119350015.698 7  93000057.438 7  22711551.781                    22711560.539
 105389080.440 8  82121349.70246  20054876.070                    20054882.367
 130375266.472 6 101591187.97443  24809595.617                    24809606.902
 116643387.901 7  90890946.85444  22196501.273                    22196508.090
 127038024.967 6  98990675.83043  24174541.617                    24174551.941
 11  8  9 16 25  0.0000000  0 10G10G06G19G13G03G07G23G08G16G20
 125119548.227 6  97495875.99743  23809477.148                    23809487.816
 116538801.507 7  90809370.26245  22176563.414                    22176572.828
 114166408.091 7  88960928.87145  21725149.922                    21725157.418
 106321983.591 7  82848431.27746  20232420.594                    20232428.969
 109297158.302 8  85166802.97745  20798587.148                    20798596.188
 119291365.630 7  92954356.120 7  22700391.164                    22700400.004
 105413231.260 8  82140168.48646  20059471.742                    20059477.742
 130308954.576 6 101539516.41643  24796977.391                    24796987.508
 116728449.205 7  90957228.34844  22212687.617                    22212695.344
 127127139.768 6  99060115.86443  24191500.086                    24191509.578
 11  8  9 16 25 30.0000000  0 10G10G06G19G13G03G07G23G08G16G20
 125109964.323 6  97488408.02644  23807653.727                    23807664.766
 116571387.444 7  90834761.89745  22182764.492                    22182773.922
 114101110.550 7  88910047.68845  21712724.234                    21712731.188
 106288523.066 7  82822358.14546  20226053.086                    20226060.973
 109299320.919 8  85168488.11045  20798998.914                    20799006.914
 119232740.870 7  92908674.497 7  22689235.031                    22689243.570
 105437944.789 8  82159425.76146  20064174.828                    20064181.063
 130242598.463 5 101487810.46743  24784349.320                    24784360.828
 116813666.171 7  91023631.12745  22228903.914                    22228911.352
 127216193.263 6  99129508.12943  24208445.563                    24208456.293
 11  8  9 16 26  0.0000000  0 10G10G06G19G13G03G07G23G08G16G20
 125100891.437 6  97481338.22643  23805927.180                    23805937.613
 116604511.829 7  90860573.06345  22189067.727                    22189076.797
 114036239.354 7  88859498.72146  21700379.844                    21700386.453
 106255560.057 7  82796672.67246  20219780.477                    20219788.523
 109302117.909 7  85170667.56645  20799531.086                    20799538.973
 119174141.866 7  92863012.964 7  22678084.086                    22678092.301
 105463221.068 8  82179121.52346  20068984.750                    20068991.082
 130176197.590 5 101436069.58442  24771713.586                    24771725.094
 116899036.361 7  91090153.30145  22245149.008                    22245156.809
 127305183.108 6  99198850.74243  24225380.922                    24225390.676
 11  8  9 16 26 30.0000000  0 10G10G06G19G13G03G07G23G08G16G20
 125092329.233 6  97474666.43543  23804297.313                    23804307.637
 116638174.038 7  90886803.34745  22195473.547                    22195482.277
 113971797.182 7  88809284.06545  21688116.781                    21688123.875
 106223096.643 7  82771376.51546  20213602.797                    20213610.387
 109305549.313 7  85173341.38145  20800183.969                    20800192.758
 119115568.444 7  92817371.378 6  22666938.242                    22666946.137
 105489059.604 8  82199255.43346  20073901.234                    20073907.770
 130109752.08515 101384293.58752  24759068.828                    24759080.727
 116984557.415 7  91156793.04744  22261423.148                    22261431.016
 127394106.279 5  99268141.44243  24242302.594                    24242312.363
 11  8  9 16 27  0.0000000  0 10G10G06G19G13G03G07G23G08G16G20
 125084277.218 7  97468392.15744  23802765.250                    23802776.664
 116672372.769 7  90913451.70145  22201981.211                    22201990.398
 113907787.149 7  88759406.14745  21675935.711                    21675943.031
 106191134.452 7  82746470.89246  20207520.773                    20207529.117
 109309615.536 7  85176509.84545  20800957.602                    20800966.613
 119057020.486 7  92771749.656 6  22655796.523                    22655804.578
 105515460.500 8  82219827.55346  20078925.242                    20078931.910
 130043260.592 6 101332482.46942  24746416.508                    24746427.625
 117070226.415 7  91223548.08444  22277725.852                    22277733.742
 127482960.179 5  99337378.11642  24259210.547                    24259219.551
 11  8  9 16 27 30.0000000  0 10G10G06G19G13G03G07G23G08G16G20
 125076735.240 6  97462515.25644  23801330.313                    23801341.000
 116707107.582 7  90940517.74845  22208590.914                    22208600.441
 113844212.073 7  88709867.14145  21663837.922                    21663845.133
 106159675.761 7  82721957.62146  20201534.172                    20201542.281
 109314316.426 8  85180172.86945  20801852.430                    20801860.980
 118998498.701 7  92726148.273 7  22644659.945                    22644668.820
 105542424.060 8  82240838.11246  20084056.117                    20084062.750
 129976723.921 5 101280635.87842  24733753.039                    24733765.566
 117156041.331 7  91290416.81645  22294055.266                    22294063.988
 127571742.569 6  99406559.09643  24276105.219                    24276114.637
 11  8  9 16 28  0.0000000  0 10G10G06G19G13G03G07G23G08G16G20
 125069702.984 6  97457035.52443  23799992.523                    23800002.223
 116742377.464 7  90968000.75845  22215302.828                    22215311.953
 113781074.851 7  88660669.31045  21651823.219                    21651830.938
 106128722.787 7  82697838.42146  20195644.266                    20195651.820
 109319652.388 8  85184330.74445  20802867.680                    20802875.984
 118940003.517 7  92680567.623 7  22633528.922                    22633537.508
 105569950.482 8  82262287.25846  20089294.672                    20089300.906
 129910141.437 6 101228753.52042  24721084.930                    24721095.359
 117242000.279 7  91357397.76845  22310413.406                    22310421.117
 127660450.874 6  99475682.35643  24292985.781                    24292996.152
 11  8  9 16 28 30.0000000  0 10G10G06G19G13G03G07G23G08G16G20
 125063179.513 6  97451952.35643  23798750.906                    23798761.012
 116778181.294 7  90995899.82245  22222116.227                    22222124.934
 113718378.171 7  88611814.76746  21639892.297                    21639899.652
 106098277.088 7  82674114.49746  20189850.469                    20189858.441
 109325623.083 8  85188983.23045  20804003.766                    20804012.559
 118881534.973 7  92635007.738 7  22622402.211                    22622411.313
 105598039.180 8  82284174.54546  20094639.617                    20094645.859
 129843512.896 5 101176835.11842  24708406.039                    24708416.453
 117328100.351 7  91424488.66545  22326797.242                    22326805.320
 127749082.385 6  99544745.75243  24309852.828                    24309861.660
 11  8  9 16 29  0.0000000  0 10G10G06G19G13G03G07G23G08G16G20
 125057163.997 7  97447264.94144  23797605.453                    23797616.305
 116814517.761 7  91024213.93945  22229030.961                    22229039.938
 113656124.640 7  88563305.53245  21628046.664                    21628053.055
 106068340.393 7  82650787.19846  20184153.727                    20184161.586
 109332229.232 8  85194130.87245  20805261.164                    20805269.789
 118823093.376 7  92589468.845 6  22611281.508                    22611290.121
 105626689.868 8  82306499.73947  20100091.664                    20100098.133
 129776837.645 6 101124880.50742  24695718.078                    24695727.926
 117414339.326 7  91491687.83745  22343208.227                    22343216.758
 127837634.184 6  99613747.04543  24326703.352                    24326713.516
 11  8  9 16 29 30.0000000  0 10G10G06G19G13G03G07G23G08G16G20
 125051656.271 6  97442973.21543  23796558.117                    23796568.180
 116851385.978 7  91052942.39045  22236046.070                    22236055.441
 113594317.183 7  88515143.89245  21616284.914                    21616291.559
 106038915.014 7  82627858.33846  20178554.367                    20178562.301
 109339470.163 7  85199773.14245  20806639.102                    20806647.199
 118764678.654 7  92543950.912 7  22600165.297                    22600174.027
 105655902.589 8  82329262.87446  20105650.883                    20105657.074
 129710115.487 6 101072889.35343  24683020.617                    24683031.887
 117500715.027 7  91558993.54345  22359644.922                    22359653.160
 127926103.983 6  99682684.45544  24343538.688                    24343549.406
 11  8  9 16 30  0.0000000  0 10G10G06G19G13G03G07G23G08G16G20
 125046655.527 6  97439076.53443  23795605.797                    23795616.941
 116888784.772 7  91082084.27245  22243163.359                    22243172.566
 113532958.397 7  88467331.87145  21604608.758                    21604614.781
 106010001.962 7  82605328.68346  20173052.250                    20173060.109
 109347345.874 8  85205910.03345  20808137.633                    20808146.559
 118706290.958 7  92498454.045 6  22589053.992                    22589062.527
 105685676.853 8  82352463.57546  20111316.781                    20111322.711
 129643346.227 6 101020861.40343  24670316.313                    24670326.297
 117587224.938 7  91626403.82745  22376107.320                    22376115.172
 128014488.979 6  99751555.73844  24360357.875                    24360368.477
 11  8  9 16 30 30.0000000  0 10G10G06G19G13G03G07G23G08G16G20
 125042161.328 7  97435574.55344  23794751.188                    23794761.148
 116926713.212 7  91111638.88245  22250380.805                    22250390.219
 113472051.429 7  88419871.93646  21593018.203                    21593024.637
 105981603.847 8  82583200.27246  20167648.445                    20167656.457
 109355856.694 8  85212541.82445  20809757.016                    20809766.344
 118647931.091 7  92452978.818 7  22577948.344                    22577957.523
 105716013.060 8  82376102.16446  20117089.164                    20117095.258
 129576529.838 6 100968796.79243  24657600.141                    24657610.945
 117673867.036 7  91693917.10345  22392594.633                    22392602.465
 128102787.081 6  99820359.33444  24377160.625                    24377171.914
 11  8  9 16 31  0.0000000  0 10G10G06G19G13G03G07G23G08G16G20
 125038172.716 6  97432466.50644  23793992.328                    23794002.453
 116965170.139 7  91141605.32045  22257698.469                    22257708.832
 113411598.990 7  88372766.15945  21581514.563                    21581521.629
 105953722.295 8  82561474.38046  20162342.836                    20162351.082
 109365002.660 8  85219668.54145  20811497.906                    20811506.621
 118589599.181 7  92407525.410 7  22566848.367                    22566857.895
 105746910.829 8  82400178.31746  20122968.773                    20122974.832
 129509665.843 6 100916695.06143  24644876.180                    24644887.535
 117760639.004 7  91761531.58445  22409106.773                    22409114.625
 128190995.371 6  99889092.92444  24393946.344                    24393956.301
 11  8  9 16 31 30.0000000  0 10G10G06G19G13G03G07G23G08G16G20
 125034689.655 7  97429752.41944  23793329.367                    23793339.535
 117004154.735 7  91171982.88345  22265117.656                    22265126.781
 113351603.960 7  88326016.83345  21570097.336                    21570104.578
 105926359.463 7  82540152.69846  20157136.086                    20157143.762
 109374783.738 8  85227290.15045  20813358.688                    20813367.621
 118531295.740 7  92362094.169 7  22555753.648                    22555763.379
 105778369.735 8  82424691.73946  20128955.438                    20128961.063
 129442754.172 6 100864556.21043  24632142.859                    24632154.051
 117847538.858 7  91829245.71645  22425643.156                    22425650.988
 128279111.659 6  99957754.83944  24410714.406                    24410724.074
 11  8  9 16 32  0.0000000  0 10G10G06G19G13G03G07G23G08G16G20
 125031711.331 6  97427431.64643  23792761.523                    23792772.375
 117043665.471 7  91202770.44445  22272636.102                    22272645.375
 113292068.562 7  88279625.63445  21558768.164                    21558775.746
 105899516.708 8  82519236.25346  20152028.008                    20152035.832
 109385199.378 8  85235406.22445  20815340.820                    20815349.789
 118473020.713 7  92316685.060 7  22544664.320                    22544673.840
 105810389.503 8  82449642.18146  20135048.461                    20135054.555
 129375794.366 6 100812379.77143  24619400.969                    24619411.813
 117934563.921 7  91897057.42945  22442203.711                    22442212.316
 128367133.001 6 100026342.82443  24427463.227                    24427474.629
 11  8  9 16 32 30.0000000  0 10G10G06G19G13G03G07G23G08G16G20
 125029236.733 6  97425503.37843  23792291.898                    23792301.871
 117083701.379 7  91233967.23645  22280254.172                    22280263.789
 113232995.839 7  88233594.95846  21547527.703                    21547534.563
 105873196.109 7  82498726.68946  20147019.328                    20147027.258
 109396249.558 8  85244016.73745  20817443.641                    20817452.730
 118414774.535 7  92271298.454 7  22533580.711                    22533589.980
 105842969.966 8  82475029.54446  20141248.695                    20141254.469
 129308786.185 6 100760165.70543  24606650.188                    24606660.914
 118021712.213 7  91964965.14545  22458787.523                    22458796.320
 128455057.308 6 100094855.10844  24444195.344                    24444205.754
 11  8  9 16 33  0.0000000  0 10G10G06G19G13G03G07G23G08G16G20
 125027265.455 6  97423967.25443  23791916.672                    23791926.539
 117124261.200 7  91265572.27445  22287973.031                    22287981.922
 113174388.444 7  88187926.88046  21536374.555                    21536381.438
 105847399.540 7  82478625.47746  20142110.188                    20142118.180
 109407934.467 8  85253121.84345  20819667.117                    20819675.969
 118356557.748 7  92225934.749 7  22522502.898                    22522511.867
 105876110.831 8  82500853.57046  20147555.367                    20147561.410
 129241729.594 6 100707913.82943  24593889.828                    24593900.527
 118108981.370 7  92032967.04245  22475394.383                    22475403.211
 128542881.442 6 100163289.36043  24460908.375                    24460919.148
 11  8  9 16 33 30.0000000  0 10G10G06G19G13G03G07G23G08G16G20
 125025796.670 6  97422822.74643  23791637.781                    23791646.410
 117165343.666 7  91297584.55145  22295790.258                    22295799.250
 113116248.942 7  88142623.38346  21525310.789                    21525318.121
 105822128.552 7  82458933.80146  20137301.133                    20137308.848
 109420253.544 8  85262721.09945  20822011.375                    20822020.551
 118298370.534 7  92180594.089 7  22511429.969                    22511438.840
 105909811.468 8  82527113.77646  20153968.531                    20153974.391
 129174624.083 6 100655623.89243  24581119.672                    24581129.551
 118196369.187 7  92101061.39045  22492023.477                    22492032.477
 128630603.276 6 100231643.97143  24477600.898                    24477611.500
 11  8  9 16 34  0.0000000  0 10G10G06G19G13G03G07G23G08G16G20
 125024829.468 6  97422069.07443  23791453.680                    23791463.000
 117206947.458 7  91330003.07545  22303706.945                    22303716.105
 113058579.669 7  88097686.30946  21514336.602                    21514344.043
 105797384.595 7  82439652.79046  20132592.781                    20132600.727
 109433206.439 8  85272814.25145  20824476.367                    20824485.715
 118240213.081 7  92135276.606 7  22500362.594                    22500371.035
 105944071.702 8  82553810.05146  20160487.773                    20160494.266
 129107469.333 6 100603295.55843  24568340.703                    24568351.422
 118283873.127 7  92169246.23945  22508675.313                    22508683.457
 128718220.480 6 100299917.00342  24494273.102                    24494283.719
 11  8  9 16 34 30.0000000  0 10G10G06G19G13G03G07G23G08G16G20
 125024363.213 6  97421705.78243  23791364.805                    23791374.535
 117249071.607 7  91362827.06945  22311723.148                    22311732.016
 113001383.996 7  88053118.26045  21503453.180                    21503459.656
 105773169.577 8  82420783.94246  20127984.586                    20127992.859
 109446793.281 8  85283401.38845  20827062.125                    20827070.543
 118182085.938 7  92089982.796 7  22489301.492                    22489310.621
 105978891.474 8  82580942.32446  20167113.445                    20167119.473
 129040265.310 7 100550928.87343  24555552.133                    24555563.273
 118371491.566 7  92237520.31545  22525348.570                    22525356.102
 128805730.649 5 100368106.51542  24510927.523                    24510936.473
 11  8  9 16 35  0.0000000  0 10G10G06G19G13G03G07G23G08G16G20
 125024397.272 6  97421732.28743  23791370.977                    23791380.602
 117291715.367 7  91396055.93145  22319837.852                    22319847.836
 112944664.836 7  88008921.54745  21492659.758                    21492666.637
 105749486.138 7  82402329.32446  20123477.742                    20123486.430
 109461013.908 8  85294482.36445  20829768.883                    20829776.871
 118123989.804 7  92044713.100 6  22478246.602                    22478253.453
 106014270.600 8  82608510.47146  20173846.367                    20173852.484
 128973012.519 6 100498524.16843  24542753.203                    24542765.332
 118459222.731 7  92305882.22245  22542043.422                    22542051.309
 128893131.508 5 100436210.93342  24527558.664                    24527569.246
 11  8  9 16 35 30.0000000  0 10G10G06G19G13G03G07G23G08G16G20
 125024930.666 6  97422147.84543  23791472.016                    23791481.859
 117334876.617 7  91429688.06445  22328051.133                    22328060.945
 112888424.013 7  87965097.55746  21481957.664                    21481964.402
 105726335.113 8  82384289.56746  20119072.680                    20119080.418
 109475867.621 8  85306056.66145  20832595.234                    20832604.078
 118065924.524 7  91999467.491 7  22467197.141                    22467205.438
 106050207.985 8  82636513.61446  20180684.531                    20180690.699
 128905709.966 6 100446080.69142  24529946.703                    24529957.441
 118547063.511 7  92374329.55144  22558758.953                    22558766.891
 128980419.933 5 100504227.65242  24544166.195                    24544181.496
